<?xml version="1.0" encoding="UTF-8" standalone="no" ?>
<gpx xmlns="http://www.topografix.com/GPX/1/1" xmlns:xsi="http://www.w3.org/2001/XMLSchema-instance" xsi:schemaLocation="http://www.topografix.com/GPX/1/1 http://www.topografix.com/GPX/1/1/gpx.xsd" version="1.1" creator="VisuGPX - https://www.visugpx.com">
  <metadata>
    <name>Valvignere Montagne de Berg et Serre du Levrou</name>
    <desc><![CDATA[grp_trc:]]></desc>
  </metadata>
  <trk>
    <name><![CDATA[Valvignere Intras]]></name>
    <cmt><![CDATA[16.03.22]]></cmt>
    <desc><![CDATA[comment ...]]></desc>
    <trkseg>
      <trkpt lat="44.50088" lon="4.57431">
        <ele>202</ele>
        <time>2022-03-16T08:07:14Z</time>
      </trkpt>
      <trkpt lat="44.50088" lon="4.57431">
        <ele>202</ele>
        <time>2022-03-16T08:07:15Z</time>
      </trkpt>
      <trkpt lat="44.50091" lon="4.57435">
        <ele>200</ele>
        <time>2022-03-16T08:07:55Z</time>
      </trkpt>
      <trkpt lat="44.50095" lon="4.57434">
        <ele>197</ele>
        <time>2022-03-16T08:07:58Z</time>
      </trkpt>
      <trkpt lat="44.50097" lon="4.5743">
        <ele>196</ele>
        <time>2022-03-16T08:08:03Z</time>
      </trkpt>
      <trkpt lat="44.50098" lon="4.57429">
        <ele>195</ele>
        <time>2022-03-16T08:08:23Z</time>
      </trkpt>
      <trkpt lat="44.5009" lon="4.57435">
        <ele>194</ele>
        <time>2022-03-16T08:08:30Z</time>
      </trkpt>
      <trkpt lat="44.50085" lon="4.57443">
        <ele>191</ele>
        <time>2022-03-16T08:08:36Z</time>
      </trkpt>
      <trkpt lat="44.50084" lon="4.57448">
        <ele>190</ele>
        <time>2022-03-16T08:08:40Z</time>
      </trkpt>
      <trkpt lat="44.50077" lon="4.57453">
        <ele>188</ele>
        <time>2022-03-16T08:08:48Z</time>
      </trkpt>
      <trkpt lat="44.50068" lon="4.57456">
        <ele>187</ele>
        <time>2022-03-16T08:08:55Z</time>
      </trkpt>
      <trkpt lat="44.5005" lon="4.57452">
        <ele>186</ele>
        <time>2022-03-16T08:09:10Z</time>
      </trkpt>
      <trkpt lat="44.50049" lon="4.57445">
        <ele>186</ele>
        <time>2022-03-16T08:09:15Z</time>
      </trkpt>
      <trkpt lat="44.50052" lon="4.57441">
        <ele>187</ele>
        <time>2022-03-16T08:09:20Z</time>
      </trkpt>
      <trkpt lat="44.50055" lon="4.57428">
        <ele>188</ele>
        <time>2022-03-16T08:09:28Z</time>
      </trkpt>
      <trkpt lat="44.5006" lon="4.57427">
        <ele>188</ele>
        <time>2022-03-16T08:09:35Z</time>
      </trkpt>
      <trkpt lat="44.50061" lon="4.57415">
        <ele>187</ele>
        <time>2022-03-16T08:09:58Z</time>
      </trkpt>
      <trkpt lat="44.50054" lon="4.57405">
        <ele>185</ele>
        <time>2022-03-16T08:10:03Z</time>
      </trkpt>
      <trkpt lat="44.50048" lon="4.57395">
        <ele>186</ele>
        <time>2022-03-16T08:10:09Z</time>
      </trkpt>
      <trkpt lat="44.50055" lon="4.57387">
        <ele>186</ele>
        <time>2022-03-16T08:10:30Z</time>
      </trkpt>
      <trkpt lat="44.50071" lon="4.57388">
        <ele>186</ele>
        <time>2022-03-16T08:10:42Z</time>
      </trkpt>
      <trkpt lat="44.50077" lon="4.57388">
        <ele>188</ele>
        <time>2022-03-16T08:10:50Z</time>
      </trkpt>
      <trkpt lat="44.50098" lon="4.57393">
        <ele>188</ele>
        <time>2022-03-16T08:11:04Z</time>
      </trkpt>
      <trkpt lat="44.50116" lon="4.57394">
        <ele>189</ele>
        <time>2022-03-16T08:11:17Z</time>
      </trkpt>
      <trkpt lat="44.50122" lon="4.57398">
        <ele>189</ele>
        <time>2022-03-16T08:11:21Z</time>
      </trkpt>
      <trkpt lat="44.50128" lon="4.57401">
        <ele>189</ele>
        <time>2022-03-16T08:11:25Z</time>
      </trkpt>
      <trkpt lat="44.50132" lon="4.57394">
        <ele>189</ele>
        <time>2022-03-16T08:11:30Z</time>
      </trkpt>
      <trkpt lat="44.50136" lon="4.57388">
        <ele>189</ele>
        <time>2022-03-16T08:11:34Z</time>
      </trkpt>
      <trkpt lat="44.50136" lon="4.57373">
        <ele>189</ele>
        <time>2022-03-16T08:11:44Z</time>
      </trkpt>
      <trkpt lat="44.50138" lon="4.57358">
        <ele>187</ele>
        <time>2022-03-16T08:11:55Z</time>
      </trkpt>
      <trkpt lat="44.50139" lon="4.57351">
        <ele>186</ele>
        <time>2022-03-16T08:12:00Z</time>
      </trkpt>
      <trkpt lat="44.5014" lon="4.57342">
        <ele>184</ele>
        <time>2022-03-16T08:12:06Z</time>
      </trkpt>
      <trkpt lat="44.50147" lon="4.57288">
        <ele>178</ele>
        <time>2022-03-16T08:12:39Z</time>
      </trkpt>
      <trkpt lat="44.50148" lon="4.57282">
        <ele>178</ele>
        <time>2022-03-16T08:12:43Z</time>
      </trkpt>
      <trkpt lat="44.50152" lon="4.57276">
        <ele>179</ele>
        <time>2022-03-16T08:12:46Z</time>
      </trkpt>
      <trkpt lat="44.50156" lon="4.57272">
        <ele>180</ele>
        <time>2022-03-16T08:12:53Z</time>
      </trkpt>
      <trkpt lat="44.5016" lon="4.57268">
        <ele>179</ele>
        <time>2022-03-16T08:13:02Z</time>
      </trkpt>
      <trkpt lat="44.50162" lon="4.57253">
        <ele>181</ele>
        <time>2022-03-16T08:13:11Z</time>
      </trkpt>
      <trkpt lat="44.50162" lon="4.57246">
        <ele>181</ele>
        <time>2022-03-16T08:13:16Z</time>
      </trkpt>
      <trkpt lat="44.50163" lon="4.57223">
        <ele>180</ele>
        <time>2022-03-16T08:13:28Z</time>
      </trkpt>
      <trkpt lat="44.50161" lon="4.57215">
        <ele>179</ele>
        <time>2022-03-16T08:13:35Z</time>
      </trkpt>
      <trkpt lat="44.50166" lon="4.57156">
        <ele>176</ele>
        <time>2022-03-16T08:14:06Z</time>
      </trkpt>
      <trkpt lat="44.50167" lon="4.57149">
        <ele>176</ele>
        <time>2022-03-16T08:14:10Z</time>
      </trkpt>
      <trkpt lat="44.5017" lon="4.57144">
        <ele>178</ele>
        <time>2022-03-16T08:14:19Z</time>
      </trkpt>
      <trkpt lat="44.50172" lon="4.57131">
        <ele>180</ele>
        <time>2022-03-16T08:14:26Z</time>
      </trkpt>
      <trkpt lat="44.50181" lon="4.57098">
        <ele>181</ele>
        <time>2022-03-16T08:14:46Z</time>
      </trkpt>
      <trkpt lat="44.50203" lon="4.57051">
        <ele>184</ele>
        <time>2022-03-16T08:15:18Z</time>
      </trkpt>
      <trkpt lat="44.50228" lon="4.5702">
        <ele>185</ele>
        <time>2022-03-16T08:15:44Z</time>
      </trkpt>
      <trkpt lat="44.50238" lon="4.56999">
        <ele>185</ele>
        <time>2022-03-16T08:15:58Z</time>
      </trkpt>
      <trkpt lat="44.50241" lon="4.56993">
        <ele>186</ele>
        <time>2022-03-16T08:16:03Z</time>
      </trkpt>
      <trkpt lat="44.50245" lon="4.56979">
        <ele>185</ele>
        <time>2022-03-16T08:16:12Z</time>
      </trkpt>
      <trkpt lat="44.50247" lon="4.56973">
        <ele>185</ele>
        <time>2022-03-16T08:16:17Z</time>
      </trkpt>
      <trkpt lat="44.50253" lon="4.56958">
        <ele>184</ele>
        <time>2022-03-16T08:16:26Z</time>
      </trkpt>
      <trkpt lat="44.50266" lon="4.5692">
        <ele>187</ele>
        <time>2022-03-16T08:16:46Z</time>
      </trkpt>
      <trkpt lat="44.50269" lon="4.56915">
        <ele>188</ele>
        <time>2022-03-16T08:16:49Z</time>
      </trkpt>
      <trkpt lat="44.50289" lon="4.56873">
        <ele>202</ele>
        <time>2022-03-16T08:17:19Z</time>
      </trkpt>
      <trkpt lat="44.50289" lon="4.56868">
        <ele>204</ele>
        <time>2022-03-16T08:17:23Z</time>
      </trkpt>
      <trkpt lat="44.5029" lon="4.56863">
        <ele>204</ele>
        <time>2022-03-16T08:17:26Z</time>
      </trkpt>
      <trkpt lat="44.503" lon="4.56841">
        <ele>206</ele>
        <time>2022-03-16T08:17:41Z</time>
      </trkpt>
      <trkpt lat="44.50303" lon="4.56836">
        <ele>207</ele>
        <time>2022-03-16T08:17:44Z</time>
      </trkpt>
      <trkpt lat="44.50305" lon="4.56831">
        <ele>208</ele>
        <time>2022-03-16T08:17:48Z</time>
      </trkpt>
      <trkpt lat="44.50305" lon="4.56826">
        <ele>208</ele>
        <time>2022-03-16T08:17:53Z</time>
      </trkpt>
      <trkpt lat="44.50304" lon="4.56805">
        <ele>209</ele>
        <time>2022-03-16T08:18:07Z</time>
      </trkpt>
      <trkpt lat="44.503" lon="4.56786">
        <ele>209</ele>
        <time>2022-03-16T08:18:19Z</time>
      </trkpt>
      <trkpt lat="44.50298" lon="4.56782">
        <ele>209</ele>
        <time>2022-03-16T08:18:22Z</time>
      </trkpt>
      <trkpt lat="44.50299" lon="4.56778">
        <ele>212</ele>
        <time>2022-03-16T08:18:29Z</time>
      </trkpt>
      <trkpt lat="44.5029" lon="4.5675">
        <ele>215</ele>
        <time>2022-03-16T08:18:50Z</time>
      </trkpt>
      <trkpt lat="44.50276" lon="4.56724">
        <ele>213</ele>
        <time>2022-03-16T08:19:07Z</time>
      </trkpt>
      <trkpt lat="44.50271" lon="4.56717">
        <ele>213</ele>
        <time>2022-03-16T08:19:13Z</time>
      </trkpt>
      <trkpt lat="44.50268" lon="4.56709">
        <ele>213</ele>
        <time>2022-03-16T08:19:19Z</time>
      </trkpt>
      <trkpt lat="44.50264" lon="4.56701">
        <ele>213</ele>
        <time>2022-03-16T08:19:24Z</time>
      </trkpt>
      <trkpt lat="44.50259" lon="4.56667">
        <ele>218</ele>
        <time>2022-03-16T08:19:46Z</time>
      </trkpt>
      <trkpt lat="44.50257" lon="4.56661">
        <ele>218</ele>
        <time>2022-03-16T08:19:50Z</time>
      </trkpt>
      <trkpt lat="44.50257" lon="4.56655">
        <ele>217</ele>
        <time>2022-03-16T08:19:55Z</time>
      </trkpt>
      <trkpt lat="44.50257" lon="4.5665">
        <ele>217</ele>
        <time>2022-03-16T08:19:59Z</time>
      </trkpt>
      <trkpt lat="44.50255" lon="4.56643">
        <ele>219</ele>
        <time>2022-03-16T08:20:08Z</time>
      </trkpt>
      <trkpt lat="44.5026" lon="4.56641">
        <ele>220</ele>
        <time>2022-03-16T08:20:15Z</time>
      </trkpt>
      <trkpt lat="44.50266" lon="4.5664">
        <ele>222</ele>
        <time>2022-03-16T08:20:18Z</time>
      </trkpt>
      <trkpt lat="44.50273" lon="4.56637">
        <ele>224</ele>
        <time>2022-03-16T08:20:24Z</time>
      </trkpt>
      <trkpt lat="44.50278" lon="4.56634">
        <ele>224</ele>
        <time>2022-03-16T08:20:32Z</time>
      </trkpt>
      <trkpt lat="44.50284" lon="4.56629">
        <ele>225</ele>
        <time>2022-03-16T08:20:36Z</time>
      </trkpt>
      <trkpt lat="44.50286" lon="4.56621">
        <ele>224</ele>
        <time>2022-03-16T08:21:07Z</time>
      </trkpt>
      <trkpt lat="44.50289" lon="4.56614">
        <ele>224</ele>
        <time>2022-03-16T08:21:13Z</time>
      </trkpt>
      <trkpt lat="44.5029" lon="4.56606">
        <ele>223</ele>
        <time>2022-03-16T08:21:19Z</time>
      </trkpt>
      <trkpt lat="44.5029" lon="4.56595">
        <ele>222</ele>
        <time>2022-03-16T08:21:25Z</time>
      </trkpt>
      <trkpt lat="44.50292" lon="4.56596">
        <ele>222</ele>
        <time>2022-03-16T08:22:40Z</time>
      </trkpt>
      <trkpt lat="44.50296" lon="4.56593">
        <ele>223</ele>
        <time>2022-03-16T08:22:53Z</time>
      </trkpt>
      <trkpt lat="44.50304" lon="4.56576">
        <ele>225</ele>
        <time>2022-03-16T08:23:05Z</time>
      </trkpt>
      <trkpt lat="44.50322" lon="4.56541">
        <ele>225</ele>
        <time>2022-03-16T08:23:49Z</time>
      </trkpt>
      <trkpt lat="44.50326" lon="4.56538">
        <ele>226</ele>
        <time>2022-03-16T08:23:56Z</time>
      </trkpt>
      <trkpt lat="44.50329" lon="4.56533">
        <ele>228</ele>
        <time>2022-03-16T08:24:00Z</time>
      </trkpt>
      <trkpt lat="44.50333" lon="4.56529">
        <ele>229</ele>
        <time>2022-03-16T08:24:03Z</time>
      </trkpt>
      <trkpt lat="44.50337" lon="4.56525">
        <ele>228</ele>
        <time>2022-03-16T08:24:07Z</time>
      </trkpt>
      <trkpt lat="44.50339" lon="4.5652">
        <ele>228</ele>
        <time>2022-03-16T08:24:11Z</time>
      </trkpt>
      <trkpt lat="44.50337" lon="4.56505">
        <ele>227</ele>
        <time>2022-03-16T08:24:20Z</time>
      </trkpt>
      <trkpt lat="44.50339" lon="4.56497">
        <ele>227</ele>
        <time>2022-03-16T08:24:25Z</time>
      </trkpt>
      <trkpt lat="44.5034" lon="4.56493">
        <ele>226</ele>
        <time>2022-03-16T08:24:28Z</time>
      </trkpt>
      <trkpt lat="44.50345" lon="4.56475">
        <ele>227</ele>
        <time>2022-03-16T08:24:40Z</time>
      </trkpt>
      <trkpt lat="44.50347" lon="4.5647">
        <ele>227</ele>
        <time>2022-03-16T08:24:43Z</time>
      </trkpt>
      <trkpt lat="44.5035" lon="4.56467">
        <ele>227</ele>
        <time>2022-03-16T08:24:46Z</time>
      </trkpt>
      <trkpt lat="44.50351" lon="4.56465">
        <ele>228</ele>
        <time>2022-03-16T08:24:48Z</time>
      </trkpt>
      <trkpt lat="44.50352" lon="4.5646">
        <ele>228</ele>
        <time>2022-03-16T08:24:52Z</time>
      </trkpt>
      <trkpt lat="44.50354" lon="4.56458">
        <ele>227</ele>
        <time>2022-03-16T08:24:56Z</time>
      </trkpt>
      <trkpt lat="44.5036" lon="4.56454">
        <ele>229</ele>
        <time>2022-03-16T08:25:01Z</time>
      </trkpt>
      <trkpt lat="44.50362" lon="4.56449">
        <ele>229</ele>
        <time>2022-03-16T08:25:04Z</time>
      </trkpt>
      <trkpt lat="44.50362" lon="4.56428">
        <ele>228</ele>
        <time>2022-03-16T08:25:31Z</time>
      </trkpt>
      <trkpt lat="44.50364" lon="4.56422">
        <ele>228</ele>
        <time>2022-03-16T08:26:13Z</time>
      </trkpt>
      <trkpt lat="44.50375" lon="4.56414">
        <ele>228</ele>
        <time>2022-03-16T08:26:26Z</time>
      </trkpt>
      <trkpt lat="44.50389" lon="4.56412">
        <ele>230</ele>
        <time>2022-03-16T08:26:48Z</time>
      </trkpt>
      <trkpt lat="44.50388" lon="4.56405">
        <ele>231</ele>
        <time>2022-03-16T08:27:55Z</time>
      </trkpt>
      <trkpt lat="44.50392" lon="4.56402">
        <ele>232</ele>
        <time>2022-03-16T08:28:04Z</time>
      </trkpt>
      <trkpt lat="44.504" lon="4.56399">
        <ele>233</ele>
        <time>2022-03-16T08:28:35Z</time>
      </trkpt>
      <trkpt lat="44.50405" lon="4.56399">
        <ele>234</ele>
        <time>2022-03-16T08:28:43Z</time>
      </trkpt>
      <trkpt lat="44.50409" lon="4.56397">
        <ele>235</ele>
        <time>2022-03-16T08:28:50Z</time>
      </trkpt>
      <trkpt lat="44.50413" lon="4.56394">
        <ele>235</ele>
        <time>2022-03-16T08:28:59Z</time>
      </trkpt>
      <trkpt lat="44.50416" lon="4.56391">
        <ele>237</ele>
        <time>2022-03-16T08:29:03Z</time>
      </trkpt>
      <trkpt lat="44.50418" lon="4.56385">
        <ele>237</ele>
        <time>2022-03-16T08:29:07Z</time>
      </trkpt>
      <trkpt lat="44.50415" lon="4.5638">
        <ele>238</ele>
        <time>2022-03-16T08:29:20Z</time>
      </trkpt>
      <trkpt lat="44.50408" lon="4.56377">
        <ele>239</ele>
        <time>2022-03-16T08:29:36Z</time>
      </trkpt>
      <trkpt lat="44.504" lon="4.56365">
        <ele>241</ele>
        <time>2022-03-16T08:29:53Z</time>
      </trkpt>
      <trkpt lat="44.50402" lon="4.56357">
        <ele>242</ele>
        <time>2022-03-16T08:30:05Z</time>
      </trkpt>
      <trkpt lat="44.50406" lon="4.56352">
        <ele>243</ele>
        <time>2022-03-16T08:30:13Z</time>
      </trkpt>
      <trkpt lat="44.50413" lon="4.56348">
        <ele>243</ele>
        <time>2022-03-16T08:30:25Z</time>
      </trkpt>
      <trkpt lat="44.50416" lon="4.56345">
        <ele>244</ele>
        <time>2022-03-16T08:30:31Z</time>
      </trkpt>
      <trkpt lat="44.50419" lon="4.56343">
        <ele>246</ele>
        <time>2022-03-16T08:30:36Z</time>
      </trkpt>
      <trkpt lat="44.50422" lon="4.56341">
        <ele>247</ele>
        <time>2022-03-16T08:30:40Z</time>
      </trkpt>
      <trkpt lat="44.50425" lon="4.56342">
        <ele>252</ele>
        <time>2022-03-16T08:30:54Z</time>
      </trkpt>
      <trkpt lat="44.50428" lon="4.56338">
        <ele>254</ele>
        <time>2022-03-16T08:31:00Z</time>
      </trkpt>
      <trkpt lat="44.50432" lon="4.56336">
        <ele>259</ele>
        <time>2022-03-16T08:31:05Z</time>
      </trkpt>
      <trkpt lat="44.50434" lon="4.56331">
        <ele>260</ele>
        <time>2022-03-16T08:31:13Z</time>
      </trkpt>
      <trkpt lat="44.50436" lon="4.56328">
        <ele>260</ele>
        <time>2022-03-16T08:31:19Z</time>
      </trkpt>
      <trkpt lat="44.50441" lon="4.56326">
        <ele>260</ele>
        <time>2022-03-16T08:31:26Z</time>
      </trkpt>
      <trkpt lat="44.50444" lon="4.56322">
        <ele>260</ele>
        <time>2022-03-16T08:31:30Z</time>
      </trkpt>
      <trkpt lat="44.50448" lon="4.56321">
        <ele>260</ele>
        <time>2022-03-16T08:31:34Z</time>
      </trkpt>
      <trkpt lat="44.50454" lon="4.56318">
        <ele>261</ele>
        <time>2022-03-16T08:31:44Z</time>
      </trkpt>
      <trkpt lat="44.50458" lon="4.56315">
        <ele>262</ele>
        <time>2022-03-16T08:31:49Z</time>
      </trkpt>
      <trkpt lat="44.50472" lon="4.56298">
        <ele>262</ele>
        <time>2022-03-16T08:32:11Z</time>
      </trkpt>
      <trkpt lat="44.50474" lon="4.56296">
        <ele>263</ele>
        <time>2022-03-16T08:32:16Z</time>
      </trkpt>
      <trkpt lat="44.50476" lon="4.56296">
        <ele>263</ele>
        <time>2022-03-16T08:32:21Z</time>
      </trkpt>
      <trkpt lat="44.5048" lon="4.56293">
        <ele>264</ele>
        <time>2022-03-16T08:32:25Z</time>
      </trkpt>
      <trkpt lat="44.50482" lon="4.56291">
        <ele>265</ele>
        <time>2022-03-16T08:32:28Z</time>
      </trkpt>
      <trkpt lat="44.50484" lon="4.56295">
        <ele>266</ele>
        <time>2022-03-16T08:32:49Z</time>
      </trkpt>
      <trkpt lat="44.50487" lon="4.5629">
        <ele>268</ele>
        <time>2022-03-16T08:33:02Z</time>
      </trkpt>
      <trkpt lat="44.5049" lon="4.56285">
        <ele>269</ele>
        <time>2022-03-16T08:33:05Z</time>
      </trkpt>
      <trkpt lat="44.50493" lon="4.56279">
        <ele>268</ele>
        <time>2022-03-16T08:33:10Z</time>
      </trkpt>
      <trkpt lat="44.50495" lon="4.56274">
        <ele>269</ele>
        <time>2022-03-16T08:33:14Z</time>
      </trkpt>
      <trkpt lat="44.50499" lon="4.56273">
        <ele>270</ele>
        <time>2022-03-16T08:33:22Z</time>
      </trkpt>
      <trkpt lat="44.50504" lon="4.56271">
        <ele>271</ele>
        <time>2022-03-16T08:33:27Z</time>
      </trkpt>
      <trkpt lat="44.50508" lon="4.5627">
        <ele>271</ele>
        <time>2022-03-16T08:33:31Z</time>
      </trkpt>
      <trkpt lat="44.50511" lon="4.56266">
        <ele>271</ele>
        <time>2022-03-16T08:33:37Z</time>
      </trkpt>
      <trkpt lat="44.50515" lon="4.56263">
        <ele>271</ele>
        <time>2022-03-16T08:33:43Z</time>
      </trkpt>
      <trkpt lat="44.50533" lon="4.56246">
        <ele>273</ele>
        <time>2022-03-16T08:34:05Z</time>
      </trkpt>
      <trkpt lat="44.5054" lon="4.56242">
        <ele>273</ele>
        <time>2022-03-16T08:34:14Z</time>
      </trkpt>
      <trkpt lat="44.50545" lon="4.56242">
        <ele>273</ele>
        <time>2022-03-16T08:34:20Z</time>
      </trkpt>
      <trkpt lat="44.5055" lon="4.56241">
        <ele>274</ele>
        <time>2022-03-16T08:34:25Z</time>
      </trkpt>
      <trkpt lat="44.50553" lon="4.56237">
        <ele>275</ele>
        <time>2022-03-16T08:34:31Z</time>
      </trkpt>
      <trkpt lat="44.50556" lon="4.56232">
        <ele>275</ele>
        <time>2022-03-16T08:34:42Z</time>
      </trkpt>
      <trkpt lat="44.5056" lon="4.56232">
        <ele>276</ele>
        <time>2022-03-16T08:34:45Z</time>
      </trkpt>
      <trkpt lat="44.50573" lon="4.56224">
        <ele>278</ele>
        <time>2022-03-16T08:34:59Z</time>
      </trkpt>
      <trkpt lat="44.50587" lon="4.56223">
        <ele>280</ele>
        <time>2022-03-16T08:35:16Z</time>
      </trkpt>
      <trkpt lat="44.50594" lon="4.56219">
        <ele>282</ele>
        <time>2022-03-16T08:35:28Z</time>
      </trkpt>
      <trkpt lat="44.50597" lon="4.56216">
        <ele>284</ele>
        <time>2022-03-16T08:35:40Z</time>
      </trkpt>
      <trkpt lat="44.50604" lon="4.56211">
        <ele>286</ele>
        <time>2022-03-16T08:36:03Z</time>
      </trkpt>
      <trkpt lat="44.50608" lon="4.5621">
        <ele>287</ele>
        <time>2022-03-16T08:36:07Z</time>
      </trkpt>
      <trkpt lat="44.50611" lon="4.56205">
        <ele>287</ele>
        <time>2022-03-16T08:36:10Z</time>
      </trkpt>
      <trkpt lat="44.50619" lon="4.56202">
        <ele>286</ele>
        <time>2022-03-16T08:36:20Z</time>
      </trkpt>
      <trkpt lat="44.5063" lon="4.56209">
        <ele>288</ele>
        <time>2022-03-16T08:36:46Z</time>
      </trkpt>
      <trkpt lat="44.50635" lon="4.56207">
        <ele>290</ele>
        <time>2022-03-16T08:36:56Z</time>
      </trkpt>
      <trkpt lat="44.50639" lon="4.56206">
        <ele>291</ele>
        <time>2022-03-16T08:37:03Z</time>
      </trkpt>
      <trkpt lat="44.50644" lon="4.56205">
        <ele>292</ele>
        <time>2022-03-16T08:37:10Z</time>
      </trkpt>
      <trkpt lat="44.50648" lon="4.56193">
        <ele>292</ele>
        <time>2022-03-16T08:37:19Z</time>
      </trkpt>
      <trkpt lat="44.50649" lon="4.56188">
        <ele>293</ele>
        <time>2022-03-16T08:37:45Z</time>
      </trkpt>
      <trkpt lat="44.50651" lon="4.56184">
        <ele>292</ele>
        <time>2022-03-16T08:37:48Z</time>
      </trkpt>
      <trkpt lat="44.50656" lon="4.56172">
        <ele>293</ele>
        <time>2022-03-16T08:37:58Z</time>
      </trkpt>
      <trkpt lat="44.50661" lon="4.56166">
        <ele>293</ele>
        <time>2022-03-16T08:38:04Z</time>
      </trkpt>
      <trkpt lat="44.50663" lon="4.56164">
        <ele>294</ele>
        <time>2022-03-16T08:38:08Z</time>
      </trkpt>
      <trkpt lat="44.50665" lon="4.5616">
        <ele>294</ele>
        <time>2022-03-16T08:38:12Z</time>
      </trkpt>
      <trkpt lat="44.50666" lon="4.56156">
        <ele>294</ele>
        <time>2022-03-16T08:38:16Z</time>
      </trkpt>
      <trkpt lat="44.50666" lon="4.56153">
        <ele>297</ele>
        <time>2022-03-16T08:38:20Z</time>
      </trkpt>
      <trkpt lat="44.50666" lon="4.5615">
        <ele>297</ele>
        <time>2022-03-16T08:38:23Z</time>
      </trkpt>
      <trkpt lat="44.50668" lon="4.56147">
        <ele>298</ele>
        <time>2022-03-16T08:38:26Z</time>
      </trkpt>
      <trkpt lat="44.50669" lon="4.56144">
        <ele>298</ele>
        <time>2022-03-16T08:38:30Z</time>
      </trkpt>
      <trkpt lat="44.50671" lon="4.5614">
        <ele>297</ele>
        <time>2022-03-16T08:38:34Z</time>
      </trkpt>
      <trkpt lat="44.50673" lon="4.56137">
        <ele>299</ele>
        <time>2022-03-16T08:38:38Z</time>
      </trkpt>
      <trkpt lat="44.50675" lon="4.5613">
        <ele>300</ele>
        <time>2022-03-16T08:38:44Z</time>
      </trkpt>
      <trkpt lat="44.50678" lon="4.56128">
        <ele>300</ele>
        <time>2022-03-16T08:38:46Z</time>
      </trkpt>
      <trkpt lat="44.50683" lon="4.56112">
        <ele>299</ele>
        <time>2022-03-16T08:39:00Z</time>
      </trkpt>
      <trkpt lat="44.50684" lon="4.56109">
        <ele>298</ele>
        <time>2022-03-16T08:39:04Z</time>
      </trkpt>
      <trkpt lat="44.50686" lon="4.56107">
        <ele>298</ele>
        <time>2022-03-16T08:39:09Z</time>
      </trkpt>
      <trkpt lat="44.50688" lon="4.56105">
        <ele>299</ele>
        <time>2022-03-16T08:39:14Z</time>
      </trkpt>
      <trkpt lat="44.5069" lon="4.56102">
        <ele>298</ele>
        <time>2022-03-16T08:39:17Z</time>
      </trkpt>
      <trkpt lat="44.50698" lon="4.5608">
        <ele>300</ele>
        <time>2022-03-16T08:39:34Z</time>
      </trkpt>
      <trkpt lat="44.50701" lon="4.56075">
        <ele>301</ele>
        <time>2022-03-16T08:39:39Z</time>
      </trkpt>
      <trkpt lat="44.50704" lon="4.56068">
        <ele>302</ele>
        <time>2022-03-16T08:39:44Z</time>
      </trkpt>
      <trkpt lat="44.50707" lon="4.56066">
        <ele>303</ele>
        <time>2022-03-16T08:39:47Z</time>
      </trkpt>
      <trkpt lat="44.50708" lon="4.5606">
        <ele>306</ele>
        <time>2022-03-16T08:39:54Z</time>
      </trkpt>
      <trkpt lat="44.5071" lon="4.56056">
        <ele>306</ele>
        <time>2022-03-16T08:39:58Z</time>
      </trkpt>
      <trkpt lat="44.50713" lon="4.56055">
        <ele>307</ele>
        <time>2022-03-16T08:40:00Z</time>
      </trkpt>
      <trkpt lat="44.50716" lon="4.56044">
        <ele>309</ele>
        <time>2022-03-16T08:40:14Z</time>
      </trkpt>
      <trkpt lat="44.50724" lon="4.56031">
        <ele>312</ele>
        <time>2022-03-16T08:40:28Z</time>
      </trkpt>
      <trkpt lat="44.50724" lon="4.56028">
        <ele>312</ele>
        <time>2022-03-16T08:40:32Z</time>
      </trkpt>
      <trkpt lat="44.50726" lon="4.56025">
        <ele>312</ele>
        <time>2022-03-16T08:40:36Z</time>
      </trkpt>
      <trkpt lat="44.50725" lon="4.56021">
        <ele>312</ele>
        <time>2022-03-16T08:40:41Z</time>
      </trkpt>
      <trkpt lat="44.50724" lon="4.56018">
        <ele>312</ele>
        <time>2022-03-16T08:40:44Z</time>
      </trkpt>
      <trkpt lat="44.50725" lon="4.56015">
        <ele>312</ele>
        <time>2022-03-16T08:40:48Z</time>
      </trkpt>
      <trkpt lat="44.50727" lon="4.56012">
        <ele>312</ele>
        <time>2022-03-16T08:40:51Z</time>
      </trkpt>
      <trkpt lat="44.50729" lon="4.56006">
        <ele>313</ele>
        <time>2022-03-16T08:40:56Z</time>
      </trkpt>
      <trkpt lat="44.50732" lon="4.55999">
        <ele>313</ele>
        <time>2022-03-16T08:41:06Z</time>
      </trkpt>
      <trkpt lat="44.50735" lon="4.55998">
        <ele>313</ele>
        <time>2022-03-16T08:41:09Z</time>
      </trkpt>
      <trkpt lat="44.50736" lon="4.5599">
        <ele>315</ele>
        <time>2022-03-16T08:41:18Z</time>
      </trkpt>
      <trkpt lat="44.50733" lon="4.5598">
        <ele>317</ele>
        <time>2022-03-16T08:41:28Z</time>
      </trkpt>
      <trkpt lat="44.50732" lon="4.55976">
        <ele>317</ele>
        <time>2022-03-16T08:41:32Z</time>
      </trkpt>
      <trkpt lat="44.5073" lon="4.55972">
        <ele>319</ele>
        <time>2022-03-16T08:41:39Z</time>
      </trkpt>
      <trkpt lat="44.50729" lon="4.55967">
        <ele>320</ele>
        <time>2022-03-16T08:41:44Z</time>
      </trkpt>
      <trkpt lat="44.50727" lon="4.55964">
        <ele>320</ele>
        <time>2022-03-16T08:41:47Z</time>
      </trkpt>
      <trkpt lat="44.50725" lon="4.55961">
        <ele>321</ele>
        <time>2022-03-16T08:41:51Z</time>
      </trkpt>
      <trkpt lat="44.50725" lon="4.55956">
        <ele>321</ele>
        <time>2022-03-16T08:41:55Z</time>
      </trkpt>
      <trkpt lat="44.50724" lon="4.55957">
        <ele>325</ele>
        <time>2022-03-16T08:43:19Z</time>
      </trkpt>
      <trkpt lat="44.50719" lon="4.55958">
        <ele>326</ele>
        <time>2022-03-16T08:44:04Z</time>
      </trkpt>
      <trkpt lat="44.50722" lon="4.55962">
        <ele>327</ele>
        <time>2022-03-16T08:45:49Z</time>
      </trkpt>
      <trkpt lat="44.5072" lon="4.5596">
        <ele>326</ele>
        <time>2022-03-16T08:46:10Z</time>
      </trkpt>
      <trkpt lat="44.50722" lon="4.55954">
        <ele>323</ele>
        <time>2022-03-16T08:46:28Z</time>
      </trkpt>
      <trkpt lat="44.50712" lon="4.55935">
        <ele>322</ele>
        <time>2022-03-16T08:46:52Z</time>
      </trkpt>
      <trkpt lat="44.50707" lon="4.55931">
        <ele>321</ele>
        <time>2022-03-16T08:47:03Z</time>
      </trkpt>
      <trkpt lat="44.50704" lon="4.55926">
        <ele>322</ele>
        <time>2022-03-16T08:47:13Z</time>
      </trkpt>
      <trkpt lat="44.50704" lon="4.55919">
        <ele>323</ele>
        <time>2022-03-16T08:47:20Z</time>
      </trkpt>
      <trkpt lat="44.50699" lon="4.55914">
        <ele>325</ele>
        <time>2022-03-16T08:47:27Z</time>
      </trkpt>
      <trkpt lat="44.50694" lon="4.55916">
        <ele>324</ele>
        <time>2022-03-16T08:47:31Z</time>
      </trkpt>
      <trkpt lat="44.50695" lon="4.5591">
        <ele>324</ele>
        <time>2022-03-16T08:47:37Z</time>
      </trkpt>
      <trkpt lat="44.50696" lon="4.55904">
        <ele>325</ele>
        <time>2022-03-16T08:47:43Z</time>
      </trkpt>
      <trkpt lat="44.50697" lon="4.55894">
        <ele>329</ele>
        <time>2022-03-16T08:47:51Z</time>
      </trkpt>
      <trkpt lat="44.50696" lon="4.55891">
        <ele>330</ele>
        <time>2022-03-16T08:47:55Z</time>
      </trkpt>
      <trkpt lat="44.50694" lon="4.55885">
        <ele>334</ele>
        <time>2022-03-16T08:48:04Z</time>
      </trkpt>
      <trkpt lat="44.50692" lon="4.55882">
        <ele>335</ele>
        <time>2022-03-16T08:48:10Z</time>
      </trkpt>
      <trkpt lat="44.50692" lon="4.55878">
        <ele>335</ele>
        <time>2022-03-16T08:48:14Z</time>
      </trkpt>
      <trkpt lat="44.50694" lon="4.55874">
        <ele>337</ele>
        <time>2022-03-16T08:48:19Z</time>
      </trkpt>
      <trkpt lat="44.50696" lon="4.55874">
        <ele>339</ele>
        <time>2022-03-16T08:48:25Z</time>
      </trkpt>
      <trkpt lat="44.50698" lon="4.55876">
        <ele>340</ele>
        <time>2022-03-16T08:48:29Z</time>
      </trkpt>
      <trkpt lat="44.50699" lon="4.55878">
        <ele>340</ele>
        <time>2022-03-16T08:48:32Z</time>
      </trkpt>
      <trkpt lat="44.50703" lon="4.55881">
        <ele>340</ele>
        <time>2022-03-16T08:48:38Z</time>
      </trkpt>
      <trkpt lat="44.50708" lon="4.55882">
        <ele>341</ele>
        <time>2022-03-16T08:48:44Z</time>
      </trkpt>
      <trkpt lat="44.50709" lon="4.55878">
        <ele>342</ele>
        <time>2022-03-16T08:48:49Z</time>
      </trkpt>
      <trkpt lat="44.50709" lon="4.55874">
        <ele>342</ele>
        <time>2022-03-16T08:48:52Z</time>
      </trkpt>
      <trkpt lat="44.50707" lon="4.55871">
        <ele>342</ele>
        <time>2022-03-16T08:48:58Z</time>
      </trkpt>
      <trkpt lat="44.50707" lon="4.55867">
        <ele>342</ele>
        <time>2022-03-16T08:49:03Z</time>
      </trkpt>
      <trkpt lat="44.50705" lon="4.5586">
        <ele>344</ele>
        <time>2022-03-16T08:49:13Z</time>
      </trkpt>
      <trkpt lat="44.50706" lon="4.55857">
        <ele>344</ele>
        <time>2022-03-16T08:49:16Z</time>
      </trkpt>
      <trkpt lat="44.50706" lon="4.55854">
        <ele>344</ele>
        <time>2022-03-16T08:49:19Z</time>
      </trkpt>
      <trkpt lat="44.50707" lon="4.55851">
        <ele>344</ele>
        <time>2022-03-16T08:49:23Z</time>
      </trkpt>
      <trkpt lat="44.50709" lon="4.55844">
        <ele>345</ele>
        <time>2022-03-16T08:49:31Z</time>
      </trkpt>
      <trkpt lat="44.50709" lon="4.5584">
        <ele>346</ele>
        <time>2022-03-16T08:49:35Z</time>
      </trkpt>
      <trkpt lat="44.50707" lon="4.55838">
        <ele>346</ele>
        <time>2022-03-16T08:49:38Z</time>
      </trkpt>
      <trkpt lat="44.50707" lon="4.55831">
        <ele>347</ele>
        <time>2022-03-16T08:49:46Z</time>
      </trkpt>
      <trkpt lat="44.50706" lon="4.55826">
        <ele>347</ele>
        <time>2022-03-16T08:49:52Z</time>
      </trkpt>
      <trkpt lat="44.50708" lon="4.5582">
        <ele>348</ele>
        <time>2022-03-16T08:49:58Z</time>
      </trkpt>
      <trkpt lat="44.50708" lon="4.55817">
        <ele>348</ele>
        <time>2022-03-16T08:50:02Z</time>
      </trkpt>
      <trkpt lat="44.50707" lon="4.55815">
        <ele>349</ele>
        <time>2022-03-16T08:50:08Z</time>
      </trkpt>
      <trkpt lat="44.50707" lon="4.55811">
        <ele>350</ele>
        <time>2022-03-16T08:50:11Z</time>
      </trkpt>
      <trkpt lat="44.50708" lon="4.55808">
        <ele>351</ele>
        <time>2022-03-16T08:50:15Z</time>
      </trkpt>
      <trkpt lat="44.5071" lon="4.55807">
        <ele>351</ele>
        <time>2022-03-16T08:50:19Z</time>
      </trkpt>
      <trkpt lat="44.5071" lon="4.55803">
        <ele>352</ele>
        <time>2022-03-16T08:50:26Z</time>
      </trkpt>
      <trkpt lat="44.50711" lon="4.55799">
        <ele>353</ele>
        <time>2022-03-16T08:50:30Z</time>
      </trkpt>
      <trkpt lat="44.50712" lon="4.55796">
        <ele>355</ele>
        <time>2022-03-16T08:50:33Z</time>
      </trkpt>
      <trkpt lat="44.50711" lon="4.55791">
        <ele>357</ele>
        <time>2022-03-16T08:50:37Z</time>
      </trkpt>
      <trkpt lat="44.50711" lon="4.55787">
        <ele>357</ele>
        <time>2022-03-16T08:50:43Z</time>
      </trkpt>
      <trkpt lat="44.5071" lon="4.55783">
        <ele>355</ele>
        <time>2022-03-16T08:50:47Z</time>
      </trkpt>
      <trkpt lat="44.5071" lon="4.55779">
        <ele>355</ele>
        <time>2022-03-16T08:50:51Z</time>
      </trkpt>
      <trkpt lat="44.5071" lon="4.55776">
        <ele>356</ele>
        <time>2022-03-16T08:50:55Z</time>
      </trkpt>
      <trkpt lat="44.50709" lon="4.55773">
        <ele>356</ele>
        <time>2022-03-16T08:51:00Z</time>
      </trkpt>
      <trkpt lat="44.50711" lon="4.55758">
        <ele>358</ele>
        <time>2022-03-16T08:51:19Z</time>
      </trkpt>
      <trkpt lat="44.50712" lon="4.55751">
        <ele>360</ele>
        <time>2022-03-16T08:51:26Z</time>
      </trkpt>
      <trkpt lat="44.50713" lon="4.55749">
        <ele>360</ele>
        <time>2022-03-16T08:51:28Z</time>
      </trkpt>
      <trkpt lat="44.50714" lon="4.55746">
        <ele>360</ele>
        <time>2022-03-16T08:51:31Z</time>
      </trkpt>
      <trkpt lat="44.50714" lon="4.5574">
        <ele>361</ele>
        <time>2022-03-16T08:51:38Z</time>
      </trkpt>
      <trkpt lat="44.50712" lon="4.55739">
        <ele>362</ele>
        <time>2022-03-16T08:51:40Z</time>
      </trkpt>
      <trkpt lat="44.50711" lon="4.55735">
        <ele>363</ele>
        <time>2022-03-16T08:51:43Z</time>
      </trkpt>
      <trkpt lat="44.5071" lon="4.55732">
        <ele>364</ele>
        <time>2022-03-16T08:51:46Z</time>
      </trkpt>
      <trkpt lat="44.5071" lon="4.55728">
        <ele>364</ele>
        <time>2022-03-16T08:51:49Z</time>
      </trkpt>
      <trkpt lat="44.50709" lon="4.55724">
        <ele>365</ele>
        <time>2022-03-16T08:51:52Z</time>
      </trkpt>
      <trkpt lat="44.50708" lon="4.55718">
        <ele>365</ele>
        <time>2022-03-16T08:51:58Z</time>
      </trkpt>
      <trkpt lat="44.50707" lon="4.55715">
        <ele>365</ele>
        <time>2022-03-16T08:52:00Z</time>
      </trkpt>
      <trkpt lat="44.50706" lon="4.55712">
        <ele>367</ele>
        <time>2022-03-16T08:52:03Z</time>
      </trkpt>
      <trkpt lat="44.50698" lon="4.55687">
        <ele>369</ele>
        <time>2022-03-16T08:52:22Z</time>
      </trkpt>
      <trkpt lat="44.50695" lon="4.55682">
        <ele>370</ele>
        <time>2022-03-16T08:52:26Z</time>
      </trkpt>
      <trkpt lat="44.50691" lon="4.5568">
        <ele>370</ele>
        <time>2022-03-16T08:52:30Z</time>
      </trkpt>
      <trkpt lat="44.50688" lon="4.55679">
        <ele>370</ele>
        <time>2022-03-16T08:52:32Z</time>
      </trkpt>
      <trkpt lat="44.50685" lon="4.55679">
        <ele>370</ele>
        <time>2022-03-16T08:52:35Z</time>
      </trkpt>
      <trkpt lat="44.50686" lon="4.55678">
        <ele>371</ele>
        <time>2022-03-16T08:53:02Z</time>
      </trkpt>
      <trkpt lat="44.50683" lon="4.55679">
        <ele>372</ele>
        <time>2022-03-16T08:53:27Z</time>
      </trkpt>
      <trkpt lat="44.50676" lon="4.55679">
        <ele>372</ele>
        <time>2022-03-16T08:53:50Z</time>
      </trkpt>
      <trkpt lat="44.50674" lon="4.55683">
        <ele>374</ele>
        <time>2022-03-16T08:54:47Z</time>
      </trkpt>
      <trkpt lat="44.50665" lon="4.5568">
        <ele>374</ele>
        <time>2022-03-16T08:55:03Z</time>
      </trkpt>
      <trkpt lat="44.50657" lon="4.55682">
        <ele>373</ele>
        <time>2022-03-16T08:55:09Z</time>
      </trkpt>
      <trkpt lat="44.50643" lon="4.55678">
        <ele>372</ele>
        <time>2022-03-16T08:55:30Z</time>
      </trkpt>
      <trkpt lat="44.50631" lon="4.5567">
        <ele>372</ele>
        <time>2022-03-16T08:55:49Z</time>
      </trkpt>
      <trkpt lat="44.50622" lon="4.55668">
        <ele>373</ele>
        <time>2022-03-16T08:56:01Z</time>
      </trkpt>
      <trkpt lat="44.50613" lon="4.55668">
        <ele>376</ele>
        <time>2022-03-16T08:56:10Z</time>
      </trkpt>
      <trkpt lat="44.50614" lon="4.55655">
        <ele>375</ele>
        <time>2022-03-16T08:56:27Z</time>
      </trkpt>
      <trkpt lat="44.50622" lon="4.55652">
        <ele>375</ele>
        <time>2022-03-16T08:56:36Z</time>
      </trkpt>
      <trkpt lat="44.50628" lon="4.55656">
        <ele>375</ele>
        <time>2022-03-16T08:56:41Z</time>
      </trkpt>
      <trkpt lat="44.50634" lon="4.55648">
        <ele>377</ele>
        <time>2022-03-16T08:57:04Z</time>
      </trkpt>
      <trkpt lat="44.50635" lon="4.55637">
        <ele>379</ele>
        <time>2022-03-16T08:57:09Z</time>
      </trkpt>
      <trkpt lat="44.50636" lon="4.55627">
        <ele>381</ele>
        <time>2022-03-16T08:57:15Z</time>
      </trkpt>
      <trkpt lat="44.50643" lon="4.55627">
        <ele>383</ele>
        <time>2022-03-16T08:57:23Z</time>
      </trkpt>
      <trkpt lat="44.50651" lon="4.55624">
        <ele>384</ele>
        <time>2022-03-16T08:57:33Z</time>
      </trkpt>
      <trkpt lat="44.50659" lon="4.55633">
        <ele>385</ele>
        <time>2022-03-16T08:57:40Z</time>
      </trkpt>
      <trkpt lat="44.50659" lon="4.55625">
        <ele>385</ele>
        <time>2022-03-16T08:58:06Z</time>
      </trkpt>
      <trkpt lat="44.50654" lon="4.55616">
        <ele>386</ele>
        <time>2022-03-16T08:58:24Z</time>
      </trkpt>
      <trkpt lat="44.50655" lon="4.55609">
        <ele>389</ele>
        <time>2022-03-16T08:59:11Z</time>
      </trkpt>
      <trkpt lat="44.50653" lon="4.55603">
        <ele>390</ele>
        <time>2022-03-16T08:59:20Z</time>
      </trkpt>
      <trkpt lat="44.5065" lon="4.55598">
        <ele>390</ele>
        <time>2022-03-16T08:59:28Z</time>
      </trkpt>
      <trkpt lat="44.5065" lon="4.55591">
        <ele>391</ele>
        <time>2022-03-16T08:59:39Z</time>
      </trkpt>
      <trkpt lat="44.50648" lon="4.5559">
        <ele>393</ele>
        <time>2022-03-16T08:59:51Z</time>
      </trkpt>
      <trkpt lat="44.50649" lon="4.55595">
        <ele>393</ele>
        <time>2022-03-16T08:59:54Z</time>
      </trkpt>
      <trkpt lat="44.5065" lon="4.55599">
        <ele>394</ele>
        <time>2022-03-16T08:59:57Z</time>
      </trkpt>
      <trkpt lat="44.50651" lon="4.55603">
        <ele>395</ele>
        <time>2022-03-16T09:00:00Z</time>
      </trkpt>
      <trkpt lat="44.50653" lon="4.55605">
        <ele>396</ele>
        <time>2022-03-16T09:00:03Z</time>
      </trkpt>
      <trkpt lat="44.50657" lon="4.55602">
        <ele>397</ele>
        <time>2022-03-16T09:00:06Z</time>
      </trkpt>
      <trkpt lat="44.5066" lon="4.55604">
        <ele>398</ele>
        <time>2022-03-16T09:00:09Z</time>
      </trkpt>
      <trkpt lat="44.50663" lon="4.55607">
        <ele>398</ele>
        <time>2022-03-16T09:00:13Z</time>
      </trkpt>
      <trkpt lat="44.50677" lon="4.55603">
        <ele>397</ele>
        <time>2022-03-16T09:00:30Z</time>
      </trkpt>
      <trkpt lat="44.50675" lon="4.55602">
        <ele>401</ele>
        <time>2022-03-16T09:00:55Z</time>
      </trkpt>
      <trkpt lat="44.50672" lon="4.55599">
        <ele>401</ele>
        <time>2022-03-16T09:01:05Z</time>
      </trkpt>
      <trkpt lat="44.50665" lon="4.55596">
        <ele>401</ele>
        <time>2022-03-16T09:01:09Z</time>
      </trkpt>
      <trkpt lat="44.50666" lon="4.55591">
        <ele>401</ele>
        <time>2022-03-16T09:01:29Z</time>
      </trkpt>
      <trkpt lat="44.50668" lon="4.55589">
        <ele>401</ele>
        <time>2022-03-16T09:01:38Z</time>
      </trkpt>
      <trkpt lat="44.50668" lon="4.55584">
        <ele>401</ele>
        <time>2022-03-16T09:01:46Z</time>
      </trkpt>
      <trkpt lat="44.50664" lon="4.55574">
        <ele>403</ele>
        <time>2022-03-16T09:01:55Z</time>
      </trkpt>
      <trkpt lat="44.50663" lon="4.55568">
        <ele>403</ele>
        <time>2022-03-16T09:02:00Z</time>
      </trkpt>
      <trkpt lat="44.50663" lon="4.55563">
        <ele>403</ele>
        <time>2022-03-16T09:02:05Z</time>
      </trkpt>
      <trkpt lat="44.50662" lon="4.55558">
        <ele>403</ele>
        <time>2022-03-16T09:02:10Z</time>
      </trkpt>
      <trkpt lat="44.50662" lon="4.55556">
        <ele>403</ele>
        <time>2022-03-16T09:02:32Z</time>
      </trkpt>
      <trkpt lat="44.50665" lon="4.55558">
        <ele>403</ele>
        <time>2022-03-16T09:02:47Z</time>
      </trkpt>
      <trkpt lat="44.50664" lon="4.55553">
        <ele>403</ele>
        <time>2022-03-16T09:02:50Z</time>
      </trkpt>
      <trkpt lat="44.50664" lon="4.55543">
        <ele>402</ele>
        <time>2022-03-16T09:02:58Z</time>
      </trkpt>
      <trkpt lat="44.5066" lon="4.55539">
        <ele>404</ele>
        <time>2022-03-16T09:03:02Z</time>
      </trkpt>
      <trkpt lat="44.50661" lon="4.55536">
        <ele>404</ele>
        <time>2022-03-16T09:03:08Z</time>
      </trkpt>
      <trkpt lat="44.50659" lon="4.5551">
        <ele>411</ele>
        <time>2022-03-16T09:03:32Z</time>
      </trkpt>
      <trkpt lat="44.50658" lon="4.555">
        <ele>413</ele>
        <time>2022-03-16T09:03:43Z</time>
      </trkpt>
      <trkpt lat="44.50656" lon="4.55495">
        <ele>416</ele>
        <time>2022-03-16T09:03:53Z</time>
      </trkpt>
      <trkpt lat="44.50652" lon="4.55494">
        <ele>417</ele>
        <time>2022-03-16T09:03:57Z</time>
      </trkpt>
      <trkpt lat="44.5065" lon="4.5549">
        <ele>419</ele>
        <time>2022-03-16T09:04:04Z</time>
      </trkpt>
      <trkpt lat="44.50647" lon="4.55485">
        <ele>420</ele>
        <time>2022-03-16T09:04:10Z</time>
      </trkpt>
      <trkpt lat="44.50648" lon="4.5548">
        <ele>421</ele>
        <time>2022-03-16T09:04:18Z</time>
      </trkpt>
      <trkpt lat="44.50647" lon="4.55473">
        <ele>422</ele>
        <time>2022-03-16T09:04:24Z</time>
      </trkpt>
      <trkpt lat="44.50645" lon="4.55469">
        <ele>423</ele>
        <time>2022-03-16T09:04:33Z</time>
      </trkpt>
      <trkpt lat="44.50643" lon="4.55463">
        <ele>424</ele>
        <time>2022-03-16T09:04:39Z</time>
      </trkpt>
      <trkpt lat="44.50639" lon="4.5546">
        <ele>425</ele>
        <time>2022-03-16T09:04:46Z</time>
      </trkpt>
      <trkpt lat="44.50635" lon="4.55455">
        <ele>430</ele>
        <time>2022-03-16T09:04:57Z</time>
      </trkpt>
      <trkpt lat="44.50632" lon="4.55452">
        <ele>432</ele>
        <time>2022-03-16T09:05:01Z</time>
      </trkpt>
      <trkpt lat="44.50629" lon="4.55448">
        <ele>432</ele>
        <time>2022-03-16T09:05:07Z</time>
      </trkpt>
      <trkpt lat="44.50626" lon="4.55447">
        <ele>432</ele>
        <time>2022-03-16T09:05:11Z</time>
      </trkpt>
      <trkpt lat="44.50624" lon="4.55444">
        <ele>433</ele>
        <time>2022-03-16T09:05:15Z</time>
      </trkpt>
      <trkpt lat="44.50621" lon="4.55442">
        <ele>433</ele>
        <time>2022-03-16T09:05:20Z</time>
      </trkpt>
      <trkpt lat="44.5062" lon="4.55438">
        <ele>434</ele>
        <time>2022-03-16T09:05:24Z</time>
      </trkpt>
      <trkpt lat="44.5062" lon="4.55432">
        <ele>433</ele>
        <time>2022-03-16T09:05:31Z</time>
      </trkpt>
      <trkpt lat="44.50618" lon="4.55429">
        <ele>433</ele>
        <time>2022-03-16T09:05:38Z</time>
      </trkpt>
      <trkpt lat="44.50615" lon="4.55427">
        <ele>433</ele>
        <time>2022-03-16T09:05:45Z</time>
      </trkpt>
      <trkpt lat="44.50616" lon="4.55422">
        <ele>434</ele>
        <time>2022-03-16T09:05:49Z</time>
      </trkpt>
      <trkpt lat="44.50613" lon="4.55417">
        <ele>435</ele>
        <time>2022-03-16T09:05:53Z</time>
      </trkpt>
      <trkpt lat="44.5061" lon="4.55415">
        <ele>436</ele>
        <time>2022-03-16T09:06:03Z</time>
      </trkpt>
      <trkpt lat="44.50607" lon="4.55412">
        <ele>436</ele>
        <time>2022-03-16T09:06:08Z</time>
      </trkpt>
      <trkpt lat="44.50605" lon="4.55407">
        <ele>436</ele>
        <time>2022-03-16T09:06:16Z</time>
      </trkpt>
      <trkpt lat="44.50601" lon="4.55405">
        <ele>437</ele>
        <time>2022-03-16T09:06:22Z</time>
      </trkpt>
      <trkpt lat="44.50602" lon="4.55398">
        <ele>437</ele>
        <time>2022-03-16T09:06:27Z</time>
      </trkpt>
      <trkpt lat="44.50599" lon="4.55389">
        <ele>436</ele>
        <time>2022-03-16T09:06:41Z</time>
      </trkpt>
      <trkpt lat="44.50594" lon="4.55387">
        <ele>437</ele>
        <time>2022-03-16T09:06:48Z</time>
      </trkpt>
      <trkpt lat="44.5059" lon="4.55383">
        <ele>437</ele>
        <time>2022-03-16T09:06:56Z</time>
      </trkpt>
      <trkpt lat="44.50588" lon="4.55377">
        <ele>438</ele>
        <time>2022-03-16T09:07:02Z</time>
      </trkpt>
      <trkpt lat="44.50586" lon="4.55371">
        <ele>438</ele>
        <time>2022-03-16T09:07:09Z</time>
      </trkpt>
      <trkpt lat="44.50579" lon="4.5537">
        <ele>440</ele>
        <time>2022-03-16T09:08:04Z</time>
      </trkpt>
      <trkpt lat="44.50568" lon="4.55361">
        <ele>441</ele>
        <time>2022-03-16T09:08:20Z</time>
      </trkpt>
      <trkpt lat="44.50564" lon="4.55357">
        <ele>441</ele>
        <time>2022-03-16T09:08:29Z</time>
      </trkpt>
      <trkpt lat="44.50559" lon="4.55355">
        <ele>442</ele>
        <time>2022-03-16T09:08:38Z</time>
      </trkpt>
      <trkpt lat="44.50552" lon="4.55349">
        <ele>446</ele>
        <time>2022-03-16T09:08:49Z</time>
      </trkpt>
      <trkpt lat="44.50546" lon="4.55348">
        <ele>447</ele>
        <time>2022-03-16T09:08:57Z</time>
      </trkpt>
      <trkpt lat="44.50541" lon="4.55347">
        <ele>448</ele>
        <time>2022-03-16T09:09:02Z</time>
      </trkpt>
      <trkpt lat="44.50541" lon="4.55326">
        <ele>451</ele>
        <time>2022-03-16T09:09:20Z</time>
      </trkpt>
      <trkpt lat="44.50538" lon="4.5532">
        <ele>452</ele>
        <time>2022-03-16T09:09:29Z</time>
      </trkpt>
      <trkpt lat="44.50539" lon="4.55315">
        <ele>453</ele>
        <time>2022-03-16T09:09:55Z</time>
      </trkpt>
      <trkpt lat="44.50542" lon="4.55314">
        <ele>454</ele>
        <time>2022-03-16T09:10:02Z</time>
      </trkpt>
      <trkpt lat="44.5054" lon="4.5531">
        <ele>456</ele>
        <time>2022-03-16T09:10:15Z</time>
      </trkpt>
      <trkpt lat="44.50539" lon="4.55307">
        <ele>457</ele>
        <time>2022-03-16T09:10:18Z</time>
      </trkpt>
      <trkpt lat="44.50537" lon="4.55304">
        <ele>458</ele>
        <time>2022-03-16T09:10:24Z</time>
      </trkpt>
      <trkpt lat="44.50539" lon="4.55299">
        <ele>457</ele>
        <time>2022-03-16T09:10:28Z</time>
      </trkpt>
      <trkpt lat="44.50537" lon="4.55291">
        <ele>457</ele>
        <time>2022-03-16T09:10:35Z</time>
      </trkpt>
      <trkpt lat="44.50534" lon="4.55289">
        <ele>458</ele>
        <time>2022-03-16T09:10:39Z</time>
      </trkpt>
      <trkpt lat="44.50528" lon="4.55282">
        <ele>462</ele>
        <time>2022-03-16T09:10:55Z</time>
      </trkpt>
      <trkpt lat="44.50525" lon="4.55279">
        <ele>463</ele>
        <time>2022-03-16T09:10:59Z</time>
      </trkpt>
      <trkpt lat="44.50523" lon="4.55274">
        <ele>463</ele>
        <time>2022-03-16T09:11:04Z</time>
      </trkpt>
      <trkpt lat="44.50521" lon="4.5527">
        <ele>463</ele>
        <time>2022-03-16T09:11:08Z</time>
      </trkpt>
      <trkpt lat="44.50519" lon="4.55262">
        <ele>463</ele>
        <time>2022-03-16T09:11:16Z</time>
      </trkpt>
      <trkpt lat="44.50512" lon="4.55243">
        <ele>465</ele>
        <time>2022-03-16T09:11:37Z</time>
      </trkpt>
      <trkpt lat="44.5051" lon="4.55241">
        <ele>465</ele>
        <time>2022-03-16T09:11:40Z</time>
      </trkpt>
      <trkpt lat="44.50508" lon="4.55239">
        <ele>464</ele>
        <time>2022-03-16T09:11:44Z</time>
      </trkpt>
      <trkpt lat="44.50505" lon="4.55235">
        <ele>466</ele>
        <time>2022-03-16T09:11:48Z</time>
      </trkpt>
      <trkpt lat="44.50502" lon="4.55234">
        <ele>466</ele>
        <time>2022-03-16T09:11:51Z</time>
      </trkpt>
      <trkpt lat="44.505" lon="4.55232">
        <ele>465</ele>
        <time>2022-03-16T09:11:54Z</time>
      </trkpt>
      <trkpt lat="44.50498" lon="4.55229">
        <ele>466</ele>
        <time>2022-03-16T09:11:58Z</time>
      </trkpt>
      <trkpt lat="44.50496" lon="4.55225">
        <ele>468</ele>
        <time>2022-03-16T09:12:03Z</time>
      </trkpt>
      <trkpt lat="44.50495" lon="4.55221">
        <ele>469</ele>
        <time>2022-03-16T09:12:07Z</time>
      </trkpt>
      <trkpt lat="44.50494" lon="4.55217">
        <ele>467</ele>
        <time>2022-03-16T09:12:11Z</time>
      </trkpt>
      <trkpt lat="44.50495" lon="4.55213">
        <ele>467</ele>
        <time>2022-03-16T09:12:14Z</time>
      </trkpt>
      <trkpt lat="44.50496" lon="4.55209">
        <ele>467</ele>
        <time>2022-03-16T09:12:18Z</time>
      </trkpt>
      <trkpt lat="44.50494" lon="4.55207">
        <ele>468</ele>
        <time>2022-03-16T09:12:21Z</time>
      </trkpt>
      <trkpt lat="44.50491" lon="4.55205">
        <ele>467</ele>
        <time>2022-03-16T09:12:29Z</time>
      </trkpt>
      <trkpt lat="44.5049" lon="4.55202">
        <ele>467</ele>
        <time>2022-03-16T09:12:38Z</time>
      </trkpt>
      <trkpt lat="44.50488" lon="4.552">
        <ele>467</ele>
        <time>2022-03-16T09:12:41Z</time>
      </trkpt>
      <trkpt lat="44.50487" lon="4.55196">
        <ele>468</ele>
        <time>2022-03-16T09:12:57Z</time>
      </trkpt>
      <trkpt lat="44.50484" lon="4.55193">
        <ele>470</ele>
        <time>2022-03-16T09:13:01Z</time>
      </trkpt>
      <trkpt lat="44.50477" lon="4.55184">
        <ele>469</ele>
        <time>2022-03-16T09:13:11Z</time>
      </trkpt>
      <trkpt lat="44.50474" lon="4.55182">
        <ele>472</ele>
        <time>2022-03-16T09:13:15Z</time>
      </trkpt>
      <trkpt lat="44.50468" lon="4.55171">
        <ele>473</ele>
        <time>2022-03-16T09:13:26Z</time>
      </trkpt>
      <trkpt lat="44.50461" lon="4.55161">
        <ele>473</ele>
        <time>2022-03-16T09:13:35Z</time>
      </trkpt>
      <trkpt lat="44.50458" lon="4.55159">
        <ele>473</ele>
        <time>2022-03-16T09:13:38Z</time>
      </trkpt>
      <trkpt lat="44.50454" lon="4.55153">
        <ele>473</ele>
        <time>2022-03-16T09:13:45Z</time>
      </trkpt>
      <trkpt lat="44.50452" lon="4.55149">
        <ele>474</ele>
        <time>2022-03-16T09:13:49Z</time>
      </trkpt>
      <trkpt lat="44.5045" lon="4.55146">
        <ele>474</ele>
        <time>2022-03-16T09:13:53Z</time>
      </trkpt>
      <trkpt lat="44.50447" lon="4.55145">
        <ele>475</ele>
        <time>2022-03-16T09:13:58Z</time>
      </trkpt>
      <trkpt lat="44.50446" lon="4.55143">
        <ele>475</ele>
        <time>2022-03-16T09:14:26Z</time>
      </trkpt>
      <trkpt lat="44.50446" lon="4.5514">
        <ele>475</ele>
        <time>2022-03-16T09:15:06Z</time>
      </trkpt>
      <trkpt lat="44.50445" lon="4.55134">
        <ele>476</ele>
        <time>2022-03-16T09:15:11Z</time>
      </trkpt>
      <trkpt lat="44.50433" lon="4.55119">
        <ele>480</ele>
        <time>2022-03-16T09:15:26Z</time>
      </trkpt>
      <trkpt lat="44.50431" lon="4.55115">
        <ele>479</ele>
        <time>2022-03-16T09:15:29Z</time>
      </trkpt>
      <trkpt lat="44.50427" lon="4.55108">
        <ele>478</ele>
        <time>2022-03-16T09:15:33Z</time>
      </trkpt>
      <trkpt lat="44.50424" lon="4.55106">
        <ele>478</ele>
        <time>2022-03-16T09:15:36Z</time>
      </trkpt>
      <trkpt lat="44.50422" lon="4.55102">
        <ele>479</ele>
        <time>2022-03-16T09:15:41Z</time>
      </trkpt>
      <trkpt lat="44.50412" lon="4.55077">
        <ele>482</ele>
        <time>2022-03-16T09:16:03Z</time>
      </trkpt>
      <trkpt lat="44.50411" lon="4.55073">
        <ele>483</ele>
        <time>2022-03-16T09:16:06Z</time>
      </trkpt>
      <trkpt lat="44.5041" lon="4.55065">
        <ele>485</ele>
        <time>2022-03-16T09:16:13Z</time>
      </trkpt>
      <trkpt lat="44.50404" lon="4.55055">
        <ele>487</ele>
        <time>2022-03-16T09:16:23Z</time>
      </trkpt>
      <trkpt lat="44.50397" lon="4.55047">
        <ele>488</ele>
        <time>2022-03-16T09:16:32Z</time>
      </trkpt>
      <trkpt lat="44.50393" lon="4.5504">
        <ele>488</ele>
        <time>2022-03-16T09:16:38Z</time>
      </trkpt>
      <trkpt lat="44.50386" lon="4.55032">
        <ele>490</ele>
        <time>2022-03-16T09:16:46Z</time>
      </trkpt>
      <trkpt lat="44.50385" lon="4.55028">
        <ele>490</ele>
        <time>2022-03-16T09:16:49Z</time>
      </trkpt>
      <trkpt lat="44.50383" lon="4.55026">
        <ele>489</ele>
        <time>2022-03-16T09:16:52Z</time>
      </trkpt>
      <trkpt lat="44.50381" lon="4.55023">
        <ele>489</ele>
        <time>2022-03-16T09:16:55Z</time>
      </trkpt>
      <trkpt lat="44.5038" lon="4.5502">
        <ele>489</ele>
        <time>2022-03-16T09:17:02Z</time>
      </trkpt>
      <trkpt lat="44.5038" lon="4.55017">
        <ele>489</ele>
        <time>2022-03-16T09:17:26Z</time>
      </trkpt>
      <trkpt lat="44.50378" lon="4.55015">
        <ele>489</ele>
        <time>2022-03-16T09:17:28Z</time>
      </trkpt>
      <trkpt lat="44.50373" lon="4.5501">
        <ele>493</ele>
        <time>2022-03-16T09:17:33Z</time>
      </trkpt>
      <trkpt lat="44.50372" lon="4.55007">
        <ele>493</ele>
        <time>2022-03-16T09:17:35Z</time>
      </trkpt>
      <trkpt lat="44.5037" lon="4.55007">
        <ele>494</ele>
        <time>2022-03-16T09:18:05Z</time>
      </trkpt>
      <trkpt lat="44.50368" lon="4.55005">
        <ele>494</ele>
        <time>2022-03-16T09:18:24Z</time>
      </trkpt>
      <trkpt lat="44.5037" lon="4.55003">
        <ele>494</ele>
        <time>2022-03-16T09:18:33Z</time>
      </trkpt>
      <trkpt lat="44.50367" lon="4.55001">
        <ele>494</ele>
        <time>2022-03-16T09:18:37Z</time>
      </trkpt>
      <trkpt lat="44.50354" lon="4.54996">
        <ele>490</ele>
        <time>2022-03-16T09:18:48Z</time>
      </trkpt>
      <trkpt lat="44.50347" lon="4.5499">
        <ele>491</ele>
        <time>2022-03-16T09:18:57Z</time>
      </trkpt>
      <trkpt lat="44.50341" lon="4.54988">
        <ele>490</ele>
        <time>2022-03-16T09:19:01Z</time>
      </trkpt>
      <trkpt lat="44.50337" lon="4.54983">
        <ele>491</ele>
        <time>2022-03-16T09:19:05Z</time>
      </trkpt>
      <trkpt lat="44.50322" lon="4.54982">
        <ele>492</ele>
        <time>2022-03-16T09:19:14Z</time>
      </trkpt>
      <trkpt lat="44.50316" lon="4.5498">
        <ele>491</ele>
        <time>2022-03-16T09:19:18Z</time>
      </trkpt>
      <trkpt lat="44.50308" lon="4.54981">
        <ele>489</ele>
        <time>2022-03-16T09:19:26Z</time>
      </trkpt>
      <trkpt lat="44.50293" lon="4.54971">
        <ele>489</ele>
        <time>2022-03-16T09:19:40Z</time>
      </trkpt>
      <trkpt lat="44.50288" lon="4.5497">
        <ele>490</ele>
        <time>2022-03-16T09:19:44Z</time>
      </trkpt>
      <trkpt lat="44.50283" lon="4.54968">
        <ele>489</ele>
        <time>2022-03-16T09:19:49Z</time>
      </trkpt>
      <trkpt lat="44.50264" lon="4.54965">
        <ele>489</ele>
        <time>2022-03-16T09:20:02Z</time>
      </trkpt>
      <trkpt lat="44.50259" lon="4.54966">
        <ele>489</ele>
        <time>2022-03-16T09:20:06Z</time>
      </trkpt>
      <trkpt lat="44.50246" lon="4.5497">
        <ele>488</ele>
        <time>2022-03-16T09:20:15Z</time>
      </trkpt>
      <trkpt lat="44.50236" lon="4.5497">
        <ele>490</ele>
        <time>2022-03-16T09:20:22Z</time>
      </trkpt>
      <trkpt lat="44.50218" lon="4.54975">
        <ele>495</ele>
        <time>2022-03-16T09:20:39Z</time>
      </trkpt>
      <trkpt lat="44.50214" lon="4.54973">
        <ele>495</ele>
        <time>2022-03-16T09:20:42Z</time>
      </trkpt>
      <trkpt lat="44.5021" lon="4.54973">
        <ele>495</ele>
        <time>2022-03-16T09:20:45Z</time>
      </trkpt>
      <trkpt lat="44.50206" lon="4.5497">
        <ele>495</ele>
        <time>2022-03-16T09:20:49Z</time>
      </trkpt>
      <trkpt lat="44.50203" lon="4.54973">
        <ele>495</ele>
        <time>2022-03-16T09:20:52Z</time>
      </trkpt>
      <trkpt lat="44.50196" lon="4.54972">
        <ele>495</ele>
        <time>2022-03-16T09:20:58Z</time>
      </trkpt>
      <trkpt lat="44.50186" lon="4.54976">
        <ele>496</ele>
        <time>2022-03-16T09:21:07Z</time>
      </trkpt>
      <trkpt lat="44.50167" lon="4.54983">
        <ele>495</ele>
        <time>2022-03-16T09:21:37Z</time>
      </trkpt>
      <trkpt lat="44.50161" lon="4.54988">
        <ele>495</ele>
        <time>2022-03-16T09:21:43Z</time>
      </trkpt>
      <trkpt lat="44.50155" lon="4.54992">
        <ele>494</ele>
        <time>2022-03-16T09:21:50Z</time>
      </trkpt>
      <trkpt lat="44.50147" lon="4.54997">
        <ele>494</ele>
        <time>2022-03-16T09:21:57Z</time>
      </trkpt>
      <trkpt lat="44.50144" lon="4.55">
        <ele>493</ele>
        <time>2022-03-16T09:22:00Z</time>
      </trkpt>
      <trkpt lat="44.50141" lon="4.55">
        <ele>492</ele>
        <time>2022-03-16T09:22:02Z</time>
      </trkpt>
      <trkpt lat="44.50138" lon="4.55">
        <ele>492</ele>
        <time>2022-03-16T09:22:05Z</time>
      </trkpt>
      <trkpt lat="44.50135" lon="4.55001">
        <ele>493</ele>
        <time>2022-03-16T09:22:17Z</time>
      </trkpt>
      <trkpt lat="44.50132" lon="4.55">
        <ele>493</ele>
        <time>2022-03-16T09:22:20Z</time>
      </trkpt>
      <trkpt lat="44.50118" lon="4.55001">
        <ele>494</ele>
        <time>2022-03-16T09:22:43Z</time>
      </trkpt>
      <trkpt lat="44.50109" lon="4.54993">
        <ele>494</ele>
        <time>2022-03-16T09:23:35Z</time>
      </trkpt>
      <trkpt lat="44.501" lon="4.54988">
        <ele>493</ele>
        <time>2022-03-16T09:23:45Z</time>
      </trkpt>
      <trkpt lat="44.50093" lon="4.54984">
        <ele>492</ele>
        <time>2022-03-16T09:23:53Z</time>
      </trkpt>
      <trkpt lat="44.5009" lon="4.54983">
        <ele>491</ele>
        <time>2022-03-16T09:23:56Z</time>
      </trkpt>
      <trkpt lat="44.50083" lon="4.54979">
        <ele>491</ele>
        <time>2022-03-16T09:24:02Z</time>
      </trkpt>
      <trkpt lat="44.50079" lon="4.54977">
        <ele>491</ele>
        <time>2022-03-16T09:24:05Z</time>
      </trkpt>
      <trkpt lat="44.50077" lon="4.54975">
        <ele>491</ele>
        <time>2022-03-16T09:24:07Z</time>
      </trkpt>
      <trkpt lat="44.50069" lon="4.54968">
        <ele>489</ele>
        <time>2022-03-16T09:24:15Z</time>
      </trkpt>
      <trkpt lat="44.50062" lon="4.54966">
        <ele>487</ele>
        <time>2022-03-16T09:24:21Z</time>
      </trkpt>
      <trkpt lat="44.50059" lon="4.54967">
        <ele>486</ele>
        <time>2022-03-16T09:24:24Z</time>
      </trkpt>
      <trkpt lat="44.50057" lon="4.54964">
        <ele>485</ele>
        <time>2022-03-16T09:24:39Z</time>
      </trkpt>
      <trkpt lat="44.5005" lon="4.54956">
        <ele>487</ele>
        <time>2022-03-16T09:24:51Z</time>
      </trkpt>
      <trkpt lat="44.50046" lon="4.54957">
        <ele>487</ele>
        <time>2022-03-16T09:25:24Z</time>
      </trkpt>
      <trkpt lat="44.50024" lon="4.54944">
        <ele>486</ele>
        <time>2022-03-16T09:25:52Z</time>
      </trkpt>
      <trkpt lat="44.5002" lon="4.54941">
        <ele>486</ele>
        <time>2022-03-16T09:25:57Z</time>
      </trkpt>
      <trkpt lat="44.50016" lon="4.54938">
        <ele>486</ele>
        <time>2022-03-16T09:26:05Z</time>
      </trkpt>
      <trkpt lat="44.50013" lon="4.54934">
        <ele>486</ele>
        <time>2022-03-16T09:26:18Z</time>
      </trkpt>
      <trkpt lat="44.50013" lon="4.54928">
        <ele>486</ele>
        <time>2022-03-16T09:27:03Z</time>
      </trkpt>
      <trkpt lat="44.50012" lon="4.54922">
        <ele>486</ele>
        <time>2022-03-16T09:27:08Z</time>
      </trkpt>
      <trkpt lat="44.50006" lon="4.54923">
        <ele>487</ele>
        <time>2022-03-16T09:27:18Z</time>
      </trkpt>
      <trkpt lat="44.50002" lon="4.54918">
        <ele>489</ele>
        <time>2022-03-16T09:27:32Z</time>
      </trkpt>
      <trkpt lat="44.49996" lon="4.54919">
        <ele>490</ele>
        <time>2022-03-16T09:27:39Z</time>
      </trkpt>
      <trkpt lat="44.4999" lon="4.54915">
        <ele>489</ele>
        <time>2022-03-16T09:27:45Z</time>
      </trkpt>
      <trkpt lat="44.49984" lon="4.54914">
        <ele>488</ele>
        <time>2022-03-16T09:27:50Z</time>
      </trkpt>
      <trkpt lat="44.4998" lon="4.5491">
        <ele>488</ele>
        <time>2022-03-16T09:27:54Z</time>
      </trkpt>
      <trkpt lat="44.49974" lon="4.5491">
        <ele>489</ele>
        <time>2022-03-16T09:28:01Z</time>
      </trkpt>
      <trkpt lat="44.49969" lon="4.54912">
        <ele>488</ele>
        <time>2022-03-16T09:28:07Z</time>
      </trkpt>
      <trkpt lat="44.49962" lon="4.54911">
        <ele>487</ele>
        <time>2022-03-16T09:28:14Z</time>
      </trkpt>
      <trkpt lat="44.49957" lon="4.54913">
        <ele>488</ele>
        <time>2022-03-16T09:28:18Z</time>
      </trkpt>
      <trkpt lat="44.49952" lon="4.54914">
        <ele>488</ele>
        <time>2022-03-16T09:28:23Z</time>
      </trkpt>
      <trkpt lat="44.49947" lon="4.54913">
        <ele>488</ele>
        <time>2022-03-16T09:28:28Z</time>
      </trkpt>
      <trkpt lat="44.49943" lon="4.54912">
        <ele>487</ele>
        <time>2022-03-16T09:28:32Z</time>
      </trkpt>
      <trkpt lat="44.49939" lon="4.54911">
        <ele>487</ele>
        <time>2022-03-16T09:28:37Z</time>
      </trkpt>
      <trkpt lat="44.49935" lon="4.54912">
        <ele>486</ele>
        <time>2022-03-16T09:28:43Z</time>
      </trkpt>
      <trkpt lat="44.4993" lon="4.5491">
        <ele>486</ele>
        <time>2022-03-16T09:28:50Z</time>
      </trkpt>
      <trkpt lat="44.4992" lon="4.54909">
        <ele>483</ele>
        <time>2022-03-16T09:28:59Z</time>
      </trkpt>
      <trkpt lat="44.49916" lon="4.54908">
        <ele>483</ele>
        <time>2022-03-16T09:29:03Z</time>
      </trkpt>
      <trkpt lat="44.49912" lon="4.54912">
        <ele>482</ele>
        <time>2022-03-16T09:29:08Z</time>
      </trkpt>
      <trkpt lat="44.49908" lon="4.54913">
        <ele>480</ele>
        <time>2022-03-16T09:29:12Z</time>
      </trkpt>
      <trkpt lat="44.499" lon="4.54919">
        <ele>478</ele>
        <time>2022-03-16T09:29:22Z</time>
      </trkpt>
      <trkpt lat="44.49893" lon="4.54921">
        <ele>478</ele>
        <time>2022-03-16T09:29:30Z</time>
      </trkpt>
      <trkpt lat="44.49887" lon="4.54924">
        <ele>477</ele>
        <time>2022-03-16T09:29:37Z</time>
      </trkpt>
      <trkpt lat="44.49881" lon="4.54925">
        <ele>478</ele>
        <time>2022-03-16T09:29:43Z</time>
      </trkpt>
      <trkpt lat="44.49872" lon="4.54929">
        <ele>478</ele>
        <time>2022-03-16T09:29:53Z</time>
      </trkpt>
      <trkpt lat="44.4987" lon="4.5493">
        <ele>479</ele>
        <time>2022-03-16T09:29:55Z</time>
      </trkpt>
      <trkpt lat="44.49867" lon="4.5493">
        <ele>478</ele>
        <time>2022-03-16T09:29:58Z</time>
      </trkpt>
      <trkpt lat="44.49861" lon="4.54931">
        <ele>477</ele>
        <time>2022-03-16T09:30:04Z</time>
      </trkpt>
      <trkpt lat="44.49859" lon="4.54931">
        <ele>477</ele>
        <time>2022-03-16T09:30:07Z</time>
      </trkpt>
      <trkpt lat="44.49846" lon="4.54936">
        <ele>478</ele>
        <time>2022-03-16T09:30:19Z</time>
      </trkpt>
      <trkpt lat="44.49837" lon="4.54942">
        <ele>475</ele>
        <time>2022-03-16T09:30:28Z</time>
      </trkpt>
      <trkpt lat="44.49807" lon="4.5495">
        <ele>474</ele>
        <time>2022-03-16T09:30:53Z</time>
      </trkpt>
      <trkpt lat="44.49772" lon="4.54964">
        <ele>472</ele>
        <time>2022-03-16T09:31:23Z</time>
      </trkpt>
      <trkpt lat="44.49758" lon="4.54966">
        <ele>472</ele>
        <time>2022-03-16T09:31:35Z</time>
      </trkpt>
      <trkpt lat="44.49756" lon="4.54967">
        <ele>472</ele>
        <time>2022-03-16T09:31:37Z</time>
      </trkpt>
      <trkpt lat="44.49736" lon="4.54975">
        <ele>474</ele>
        <time>2022-03-16T09:31:54Z</time>
      </trkpt>
      <trkpt lat="44.49728" lon="4.54984">
        <ele>473</ele>
        <time>2022-03-16T09:32:03Z</time>
      </trkpt>
      <trkpt lat="44.49717" lon="4.54988">
        <ele>476</ele>
        <time>2022-03-16T09:32:12Z</time>
      </trkpt>
      <trkpt lat="44.49714" lon="4.54988">
        <ele>476</ele>
        <time>2022-03-16T09:32:15Z</time>
      </trkpt>
      <trkpt lat="44.49704" lon="4.54987">
        <ele>478</ele>
        <time>2022-03-16T09:32:25Z</time>
      </trkpt>
      <trkpt lat="44.49701" lon="4.54987">
        <ele>477</ele>
        <time>2022-03-16T09:32:28Z</time>
      </trkpt>
      <trkpt lat="44.49698" lon="4.54987">
        <ele>477</ele>
        <time>2022-03-16T09:32:31Z</time>
      </trkpt>
      <trkpt lat="44.49695" lon="4.54985">
        <ele>477</ele>
        <time>2022-03-16T09:32:33Z</time>
      </trkpt>
      <trkpt lat="44.49691" lon="4.54985">
        <ele>478</ele>
        <time>2022-03-16T09:32:36Z</time>
      </trkpt>
      <trkpt lat="44.49681" lon="4.54984">
        <ele>478</ele>
        <time>2022-03-16T09:32:45Z</time>
      </trkpt>
      <trkpt lat="44.49678" lon="4.54985">
        <ele>478</ele>
        <time>2022-03-16T09:32:50Z</time>
      </trkpt>
      <trkpt lat="44.49674" lon="4.54985">
        <ele>477</ele>
        <time>2022-03-16T09:32:53Z</time>
      </trkpt>
      <trkpt lat="44.49671" lon="4.54986">
        <ele>477</ele>
        <time>2022-03-16T09:32:57Z</time>
      </trkpt>
      <trkpt lat="44.49667" lon="4.54987">
        <ele>476</ele>
        <time>2022-03-16T09:33:00Z</time>
      </trkpt>
      <trkpt lat="44.49659" lon="4.54987">
        <ele>476</ele>
        <time>2022-03-16T09:33:08Z</time>
      </trkpt>
      <trkpt lat="44.49637" lon="4.54975">
        <ele>476</ele>
        <time>2022-03-16T09:33:29Z</time>
      </trkpt>
      <trkpt lat="44.49634" lon="4.54976">
        <ele>476</ele>
        <time>2022-03-16T09:33:32Z</time>
      </trkpt>
      <trkpt lat="44.4963" lon="4.54974">
        <ele>477</ele>
        <time>2022-03-16T09:33:35Z</time>
      </trkpt>
      <trkpt lat="44.49613" lon="4.54975">
        <ele>478</ele>
        <time>2022-03-16T09:33:49Z</time>
      </trkpt>
      <trkpt lat="44.49611" lon="4.54977">
        <ele>478</ele>
        <time>2022-03-16T09:33:51Z</time>
      </trkpt>
      <trkpt lat="44.49607" lon="4.54976">
        <ele>478</ele>
        <time>2022-03-16T09:33:54Z</time>
      </trkpt>
      <trkpt lat="44.49604" lon="4.54977">
        <ele>477</ele>
        <time>2022-03-16T09:33:57Z</time>
      </trkpt>
      <trkpt lat="44.49599" lon="4.54976">
        <ele>475</ele>
        <time>2022-03-16T09:34:01Z</time>
      </trkpt>
      <trkpt lat="44.49596" lon="4.54977">
        <ele>475</ele>
        <time>2022-03-16T09:34:04Z</time>
      </trkpt>
      <trkpt lat="44.49583" lon="4.54982">
        <ele>472</ele>
        <time>2022-03-16T09:34:17Z</time>
      </trkpt>
      <trkpt lat="44.4958" lon="4.54982">
        <ele>471</ele>
        <time>2022-03-16T09:34:20Z</time>
      </trkpt>
      <trkpt lat="44.49566" lon="4.54984">
        <ele>472</ele>
        <time>2022-03-16T09:34:32Z</time>
      </trkpt>
      <trkpt lat="44.49564" lon="4.54986">
        <ele>472</ele>
        <time>2022-03-16T09:34:35Z</time>
      </trkpt>
      <trkpt lat="44.49552" lon="4.54988">
        <ele>472</ele>
        <time>2022-03-16T09:34:48Z</time>
      </trkpt>
      <trkpt lat="44.4955" lon="4.5499">
        <ele>473</ele>
        <time>2022-03-16T09:34:52Z</time>
      </trkpt>
      <trkpt lat="44.49547" lon="4.5499">
        <ele>473</ele>
        <time>2022-03-16T09:35:02Z</time>
      </trkpt>
      <trkpt lat="44.49536" lon="4.55002">
        <ele>472</ele>
        <time>2022-03-16T09:35:18Z</time>
      </trkpt>
      <trkpt lat="44.49532" lon="4.55005">
        <ele>472</ele>
        <time>2022-03-16T09:35:26Z</time>
      </trkpt>
      <trkpt lat="44.49528" lon="4.55008">
        <ele>470</ele>
        <time>2022-03-16T09:35:32Z</time>
      </trkpt>
      <trkpt lat="44.49521" lon="4.55011">
        <ele>469</ele>
        <time>2022-03-16T09:35:40Z</time>
      </trkpt>
      <trkpt lat="44.49517" lon="4.55016">
        <ele>468</ele>
        <time>2022-03-16T09:35:46Z</time>
      </trkpt>
      <trkpt lat="44.49513" lon="4.5502">
        <ele>468</ele>
        <time>2022-03-16T09:35:54Z</time>
      </trkpt>
      <trkpt lat="44.49507" lon="4.55027">
        <ele>466</ele>
        <time>2022-03-16T09:36:04Z</time>
      </trkpt>
      <trkpt lat="44.49504" lon="4.55031">
        <ele>466</ele>
        <time>2022-03-16T09:36:08Z</time>
      </trkpt>
      <trkpt lat="44.49506" lon="4.55037">
        <ele>465</ele>
        <time>2022-03-16T09:36:14Z</time>
      </trkpt>
      <trkpt lat="44.49504" lon="4.55041">
        <ele>463</ele>
        <time>2022-03-16T09:36:24Z</time>
      </trkpt>
      <trkpt lat="44.49502" lon="4.5504">
        <ele>465</ele>
        <time>2022-03-16T09:37:14Z</time>
      </trkpt>
      <trkpt lat="44.49502" lon="4.55041">
        <ele>464</ele>
        <time>2022-03-16T09:38:21Z</time>
      </trkpt>
      <trkpt lat="44.495" lon="4.55039">
        <ele>462</ele>
        <time>2022-03-16T09:40:33Z</time>
      </trkpt>
      <trkpt lat="44.495" lon="4.55032">
        <ele>462</ele>
        <time>2022-03-16T09:41:09Z</time>
      </trkpt>
      <trkpt lat="44.495" lon="4.55028">
        <ele>460</ele>
        <time>2022-03-16T09:41:14Z</time>
      </trkpt>
      <trkpt lat="44.49504" lon="4.55029">
        <ele>463</ele>
        <time>2022-03-16T09:42:03Z</time>
      </trkpt>
      <trkpt lat="44.49505" lon="4.55034">
        <ele>463</ele>
        <time>2022-03-16T09:42:08Z</time>
      </trkpt>
      <trkpt lat="44.49501" lon="4.55031">
        <ele>462</ele>
        <time>2022-03-16T09:42:19Z</time>
      </trkpt>
      <trkpt lat="44.49499" lon="4.55027">
        <ele>461</ele>
        <time>2022-03-16T09:42:23Z</time>
      </trkpt>
      <trkpt lat="44.49496" lon="4.55022">
        <ele>461</ele>
        <time>2022-03-16T09:42:41Z</time>
      </trkpt>
      <trkpt lat="44.49492" lon="4.55024">
        <ele>461</ele>
        <time>2022-03-16T09:42:48Z</time>
      </trkpt>
      <trkpt lat="44.49488" lon="4.55025">
        <ele>461</ele>
        <time>2022-03-16T09:42:56Z</time>
      </trkpt>
      <trkpt lat="44.49483" lon="4.55029">
        <ele>461</ele>
        <time>2022-03-16T09:43:05Z</time>
      </trkpt>
      <trkpt lat="44.49487" lon="4.55035">
        <ele>462</ele>
        <time>2022-03-16T09:43:18Z</time>
      </trkpt>
      <trkpt lat="44.49485" lon="4.55041">
        <ele>461</ele>
        <time>2022-03-16T09:43:28Z</time>
      </trkpt>
      <trkpt lat="44.49481" lon="4.55043">
        <ele>459</ele>
        <time>2022-03-16T09:43:35Z</time>
      </trkpt>
      <trkpt lat="44.49477" lon="4.55037">
        <ele>459</ele>
        <time>2022-03-16T09:43:42Z</time>
      </trkpt>
      <trkpt lat="44.49472" lon="4.55035">
        <ele>459</ele>
        <time>2022-03-16T09:43:48Z</time>
      </trkpt>
      <trkpt lat="44.49464" lon="4.55025">
        <ele>460</ele>
        <time>2022-03-16T09:44:03Z</time>
      </trkpt>
      <trkpt lat="44.4946" lon="4.55021">
        <ele>459</ele>
        <time>2022-03-16T09:44:10Z</time>
      </trkpt>
      <trkpt lat="44.49455" lon="4.55021">
        <ele>457</ele>
        <time>2022-03-16T09:44:17Z</time>
      </trkpt>
      <trkpt lat="44.49444" lon="4.55024">
        <ele>453</ele>
        <time>2022-03-16T09:44:30Z</time>
      </trkpt>
      <trkpt lat="44.49428" lon="4.55019">
        <ele>448</ele>
        <time>2022-03-16T09:44:53Z</time>
      </trkpt>
      <trkpt lat="44.49424" lon="4.55015">
        <ele>447</ele>
        <time>2022-03-16T09:45:02Z</time>
      </trkpt>
      <trkpt lat="44.49415" lon="4.55011">
        <ele>444</ele>
        <time>2022-03-16T09:45:10Z</time>
      </trkpt>
      <trkpt lat="44.49411" lon="4.55008">
        <ele>443</ele>
        <time>2022-03-16T09:45:13Z</time>
      </trkpt>
      <trkpt lat="44.49406" lon="4.55005">
        <ele>442</ele>
        <time>2022-03-16T09:45:16Z</time>
      </trkpt>
      <trkpt lat="44.49402" lon="4.55001">
        <ele>441</ele>
        <time>2022-03-16T09:45:19Z</time>
      </trkpt>
      <trkpt lat="44.49399" lon="4.54999">
        <ele>441</ele>
        <time>2022-03-16T09:45:22Z</time>
      </trkpt>
      <trkpt lat="44.49395" lon="4.54996">
        <ele>440</ele>
        <time>2022-03-16T09:45:25Z</time>
      </trkpt>
      <trkpt lat="44.49392" lon="4.54992">
        <ele>440</ele>
        <time>2022-03-16T09:45:29Z</time>
      </trkpt>
      <trkpt lat="44.49389" lon="4.54989">
        <ele>440</ele>
        <time>2022-03-16T09:45:32Z</time>
      </trkpt>
      <trkpt lat="44.49386" lon="4.54986">
        <ele>440</ele>
        <time>2022-03-16T09:45:35Z</time>
      </trkpt>
      <trkpt lat="44.49379" lon="4.54982">
        <ele>440</ele>
        <time>2022-03-16T09:45:41Z</time>
      </trkpt>
      <trkpt lat="44.49376" lon="4.54979">
        <ele>441</ele>
        <time>2022-03-16T09:45:44Z</time>
      </trkpt>
      <trkpt lat="44.49372" lon="4.54975">
        <ele>441</ele>
        <time>2022-03-16T09:45:47Z</time>
      </trkpt>
      <trkpt lat="44.4937" lon="4.54974">
        <ele>441</ele>
        <time>2022-03-16T09:45:49Z</time>
      </trkpt>
      <trkpt lat="44.49366" lon="4.54973">
        <ele>441</ele>
        <time>2022-03-16T09:45:52Z</time>
      </trkpt>
      <trkpt lat="44.49363" lon="4.54975">
        <ele>441</ele>
        <time>2022-03-16T09:45:55Z</time>
      </trkpt>
      <trkpt lat="44.49359" lon="4.54973">
        <ele>441</ele>
        <time>2022-03-16T09:45:58Z</time>
      </trkpt>
      <trkpt lat="44.49353" lon="4.54974">
        <ele>443</ele>
        <time>2022-03-16T09:46:03Z</time>
      </trkpt>
      <trkpt lat="44.4935" lon="4.54972">
        <ele>443</ele>
        <time>2022-03-16T09:46:07Z</time>
      </trkpt>
      <trkpt lat="44.49347" lon="4.54971">
        <ele>444</ele>
        <time>2022-03-16T09:46:12Z</time>
      </trkpt>
      <trkpt lat="44.49344" lon="4.54968">
        <ele>444</ele>
        <time>2022-03-16T09:46:18Z</time>
      </trkpt>
      <trkpt lat="44.49341" lon="4.54966">
        <ele>444</ele>
        <time>2022-03-16T09:46:22Z</time>
      </trkpt>
      <trkpt lat="44.49329" lon="4.54959">
        <ele>447</ele>
        <time>2022-03-16T09:46:34Z</time>
      </trkpt>
      <trkpt lat="44.49327" lon="4.54956">
        <ele>448</ele>
        <time>2022-03-16T09:46:38Z</time>
      </trkpt>
      <trkpt lat="44.49323" lon="4.54955">
        <ele>447</ele>
        <time>2022-03-16T09:46:42Z</time>
      </trkpt>
      <trkpt lat="44.49321" lon="4.54954">
        <ele>447</ele>
        <time>2022-03-16T09:46:47Z</time>
      </trkpt>
      <trkpt lat="44.49318" lon="4.5495">
        <ele>447</ele>
        <time>2022-03-16T09:46:57Z</time>
      </trkpt>
      <trkpt lat="44.49314" lon="4.54951">
        <ele>448</ele>
        <time>2022-03-16T09:47:03Z</time>
      </trkpt>
      <trkpt lat="44.49311" lon="4.54951">
        <ele>449</ele>
        <time>2022-03-16T09:47:07Z</time>
      </trkpt>
      <trkpt lat="44.49303" lon="4.54945">
        <ele>454</ele>
        <time>2022-03-16T09:47:21Z</time>
      </trkpt>
      <trkpt lat="44.49297" lon="4.54938">
        <ele>455</ele>
        <time>2022-03-16T09:47:29Z</time>
      </trkpt>
      <trkpt lat="44.49293" lon="4.54936">
        <ele>457</ele>
        <time>2022-03-16T09:47:34Z</time>
      </trkpt>
      <trkpt lat="44.49289" lon="4.54936">
        <ele>458</ele>
        <time>2022-03-16T09:47:38Z</time>
      </trkpt>
      <trkpt lat="44.49286" lon="4.54934">
        <ele>459</ele>
        <time>2022-03-16T09:47:43Z</time>
      </trkpt>
      <trkpt lat="44.49284" lon="4.5493">
        <ele>458</ele>
        <time>2022-03-16T09:47:48Z</time>
      </trkpt>
      <trkpt lat="44.49281" lon="4.54928">
        <ele>458</ele>
        <time>2022-03-16T09:47:51Z</time>
      </trkpt>
      <trkpt lat="44.49274" lon="4.54923">
        <ele>459</ele>
        <time>2022-03-16T09:47:58Z</time>
      </trkpt>
      <trkpt lat="44.49269" lon="4.54918">
        <ele>460</ele>
        <time>2022-03-16T09:48:05Z</time>
      </trkpt>
      <trkpt lat="44.49264" lon="4.54912">
        <ele>460</ele>
        <time>2022-03-16T09:48:13Z</time>
      </trkpt>
      <trkpt lat="44.49261" lon="4.5491">
        <ele>460</ele>
        <time>2022-03-16T09:48:15Z</time>
      </trkpt>
      <trkpt lat="44.4926" lon="4.54908">
        <ele>459</ele>
        <time>2022-03-16T09:48:18Z</time>
      </trkpt>
      <trkpt lat="44.49253" lon="4.54904">
        <ele>461</ele>
        <time>2022-03-16T09:48:25Z</time>
      </trkpt>
      <trkpt lat="44.49248" lon="4.54898">
        <ele>463</ele>
        <time>2022-03-16T09:48:46Z</time>
      </trkpt>
      <trkpt lat="44.49246" lon="4.54897">
        <ele>464</ele>
        <time>2022-03-16T09:48:48Z</time>
      </trkpt>
      <trkpt lat="44.49242" lon="4.54897">
        <ele>465</ele>
        <time>2022-03-16T09:48:51Z</time>
      </trkpt>
      <trkpt lat="44.49239" lon="4.54896">
        <ele>464</ele>
        <time>2022-03-16T09:48:55Z</time>
      </trkpt>
      <trkpt lat="44.49231" lon="4.54889">
        <ele>465</ele>
        <time>2022-03-16T09:49:04Z</time>
      </trkpt>
      <trkpt lat="44.49226" lon="4.54887">
        <ele>466</ele>
        <time>2022-03-16T09:49:08Z</time>
      </trkpt>
      <trkpt lat="44.49222" lon="4.5489">
        <ele>465</ele>
        <time>2022-03-16T09:49:13Z</time>
      </trkpt>
      <trkpt lat="44.49212" lon="4.5489">
        <ele>463</ele>
        <time>2022-03-16T09:49:22Z</time>
      </trkpt>
      <trkpt lat="44.49208" lon="4.54888">
        <ele>463</ele>
        <time>2022-03-16T09:49:26Z</time>
      </trkpt>
      <trkpt lat="44.49199" lon="4.54878">
        <ele>463</ele>
        <time>2022-03-16T09:49:36Z</time>
      </trkpt>
      <trkpt lat="44.49187" lon="4.54882">
        <ele>463</ele>
        <time>2022-03-16T09:49:46Z</time>
      </trkpt>
      <trkpt lat="44.49176" lon="4.54876">
        <ele>461</ele>
        <time>2022-03-16T09:49:56Z</time>
      </trkpt>
      <trkpt lat="44.49175" lon="4.54878">
        <ele>458</ele>
        <time>2022-03-16T09:51:27Z</time>
      </trkpt>
      <trkpt lat="44.49172" lon="4.54875">
        <ele>459</ele>
        <time>2022-03-16T09:52:31Z</time>
      </trkpt>
      <trkpt lat="44.49169" lon="4.54873">
        <ele>459</ele>
        <time>2022-03-16T09:52:34Z</time>
      </trkpt>
      <trkpt lat="44.49167" lon="4.54871">
        <ele>458</ele>
        <time>2022-03-16T09:52:38Z</time>
      </trkpt>
      <trkpt lat="44.49164" lon="4.54874">
        <ele>457</ele>
        <time>2022-03-16T09:52:42Z</time>
      </trkpt>
      <trkpt lat="44.49161" lon="4.5487">
        <ele>457</ele>
        <time>2022-03-16T09:52:46Z</time>
      </trkpt>
      <trkpt lat="44.49159" lon="4.54865">
        <ele>457</ele>
        <time>2022-03-16T09:52:49Z</time>
      </trkpt>
      <trkpt lat="44.49155" lon="4.54861">
        <ele>458</ele>
        <time>2022-03-16T09:52:53Z</time>
      </trkpt>
      <trkpt lat="44.49152" lon="4.54861">
        <ele>457</ele>
        <time>2022-03-16T09:52:57Z</time>
      </trkpt>
      <trkpt lat="44.49146" lon="4.54852">
        <ele>455</ele>
        <time>2022-03-16T09:53:05Z</time>
      </trkpt>
      <trkpt lat="44.49142" lon="4.54851">
        <ele>454</ele>
        <time>2022-03-16T09:53:08Z</time>
      </trkpt>
      <trkpt lat="44.49139" lon="4.5485">
        <ele>453</ele>
        <time>2022-03-16T09:53:11Z</time>
      </trkpt>
      <trkpt lat="44.49136" lon="4.54847">
        <ele>453</ele>
        <time>2022-03-16T09:53:15Z</time>
      </trkpt>
      <trkpt lat="44.49131" lon="4.5484">
        <ele>454</ele>
        <time>2022-03-16T09:53:21Z</time>
      </trkpt>
      <trkpt lat="44.49128" lon="4.54837">
        <ele>453</ele>
        <time>2022-03-16T09:53:24Z</time>
      </trkpt>
      <trkpt lat="44.49126" lon="4.54836">
        <ele>452</ele>
        <time>2022-03-16T09:53:27Z</time>
      </trkpt>
      <trkpt lat="44.49123" lon="4.54832">
        <ele>451</ele>
        <time>2022-03-16T09:53:30Z</time>
      </trkpt>
      <trkpt lat="44.49121" lon="4.54829">
        <ele>449</ele>
        <time>2022-03-16T09:53:33Z</time>
      </trkpt>
      <trkpt lat="44.49118" lon="4.54828">
        <ele>449</ele>
        <time>2022-03-16T09:53:36Z</time>
      </trkpt>
      <trkpt lat="44.49115" lon="4.54825">
        <ele>451</ele>
        <time>2022-03-16T09:53:39Z</time>
      </trkpt>
      <trkpt lat="44.49112" lon="4.54823">
        <ele>451</ele>
        <time>2022-03-16T09:53:42Z</time>
      </trkpt>
      <trkpt lat="44.49087" lon="4.54803">
        <ele>448</ele>
        <time>2022-03-16T09:54:10Z</time>
      </trkpt>
      <trkpt lat="44.49083" lon="4.54801">
        <ele>448</ele>
        <time>2022-03-16T09:54:14Z</time>
      </trkpt>
      <trkpt lat="44.49079" lon="4.54801">
        <ele>446</ele>
        <time>2022-03-16T09:54:17Z</time>
      </trkpt>
      <trkpt lat="44.49076" lon="4.54799">
        <ele>445</ele>
        <time>2022-03-16T09:54:19Z</time>
      </trkpt>
      <trkpt lat="44.49075" lon="4.54797">
        <ele>445</ele>
        <time>2022-03-16T09:54:21Z</time>
      </trkpt>
      <trkpt lat="44.49071" lon="4.54795">
        <ele>446</ele>
        <time>2022-03-16T09:54:24Z</time>
      </trkpt>
      <trkpt lat="44.49069" lon="4.54791">
        <ele>447</ele>
        <time>2022-03-16T09:54:27Z</time>
      </trkpt>
      <trkpt lat="44.49051" lon="4.54778">
        <ele>445</ele>
        <time>2022-03-16T09:54:42Z</time>
      </trkpt>
      <trkpt lat="44.49048" lon="4.54776">
        <ele>445</ele>
        <time>2022-03-16T09:54:45Z</time>
      </trkpt>
      <trkpt lat="44.49045" lon="4.54774">
        <ele>445</ele>
        <time>2022-03-16T09:54:48Z</time>
      </trkpt>
      <trkpt lat="44.49042" lon="4.5477">
        <ele>445</ele>
        <time>2022-03-16T09:54:51Z</time>
      </trkpt>
      <trkpt lat="44.49033" lon="4.5476">
        <ele>444</ele>
        <time>2022-03-16T09:55:02Z</time>
      </trkpt>
      <trkpt lat="44.49036" lon="4.54767">
        <ele>446</ele>
        <time>2022-03-16T09:55:22Z</time>
      </trkpt>
      <trkpt lat="44.49041" lon="4.54771">
        <ele>445</ele>
        <time>2022-03-16T09:55:27Z</time>
      </trkpt>
      <trkpt lat="44.49053" lon="4.54783">
        <ele>443</ele>
        <time>2022-03-16T09:55:48Z</time>
      </trkpt>
      <trkpt lat="44.49058" lon="4.54787">
        <ele>442</ele>
        <time>2022-03-16T09:55:53Z</time>
      </trkpt>
      <trkpt lat="44.49061" lon="4.54791">
        <ele>442</ele>
        <time>2022-03-16T09:55:57Z</time>
      </trkpt>
      <trkpt lat="44.49073" lon="4.54803">
        <ele>443</ele>
        <time>2022-03-16T09:56:23Z</time>
      </trkpt>
      <trkpt lat="44.49081" lon="4.54808">
        <ele>442</ele>
        <time>2022-03-16T09:56:31Z</time>
      </trkpt>
      <trkpt lat="44.491" lon="4.54822">
        <ele>443</ele>
        <time>2022-03-16T09:56:50Z</time>
      </trkpt>
      <trkpt lat="44.49102" lon="4.54825">
        <ele>447</ele>
        <time>2022-03-16T09:56:58Z</time>
      </trkpt>
      <trkpt lat="44.49101" lon="4.54819">
        <ele>448</ele>
        <time>2022-03-16T09:57:19Z</time>
      </trkpt>
      <trkpt lat="44.49097" lon="4.54817">
        <ele>447</ele>
        <time>2022-03-16T09:57:27Z</time>
      </trkpt>
      <trkpt lat="44.49089" lon="4.54812">
        <ele>443</ele>
        <time>2022-03-16T09:57:39Z</time>
      </trkpt>
      <trkpt lat="44.49086" lon="4.54808">
        <ele>443</ele>
        <time>2022-03-16T09:57:43Z</time>
      </trkpt>
      <trkpt lat="44.49069" lon="4.54796">
        <ele>445</ele>
        <time>2022-03-16T09:58:08Z</time>
      </trkpt>
      <trkpt lat="44.49066" lon="4.54792">
        <ele>443</ele>
        <time>2022-03-16T09:58:11Z</time>
      </trkpt>
      <trkpt lat="44.49063" lon="4.54792">
        <ele>443</ele>
        <time>2022-03-16T09:58:14Z</time>
      </trkpt>
      <trkpt lat="44.49056" lon="4.54789">
        <ele>441</ele>
        <time>2022-03-16T09:58:21Z</time>
      </trkpt>
      <trkpt lat="44.49053" lon="4.54788">
        <ele>442</ele>
        <time>2022-03-16T09:58:34Z</time>
      </trkpt>
      <trkpt lat="44.49056" lon="4.54783">
        <ele>445</ele>
        <time>2022-03-16T09:58:56Z</time>
      </trkpt>
      <trkpt lat="44.4906" lon="4.54786">
        <ele>445</ele>
        <time>2022-03-16T09:59:04Z</time>
      </trkpt>
      <trkpt lat="44.49064" lon="4.54786">
        <ele>445</ele>
        <time>2022-03-16T09:59:09Z</time>
      </trkpt>
      <trkpt lat="44.49067" lon="4.5479">
        <ele>445</ele>
        <time>2022-03-16T09:59:13Z</time>
      </trkpt>
      <trkpt lat="44.49067" lon="4.54794">
        <ele>447</ele>
        <time>2022-03-16T09:59:16Z</time>
      </trkpt>
      <trkpt lat="44.49065" lon="4.54798">
        <ele>447</ele>
        <time>2022-03-16T09:59:20Z</time>
      </trkpt>
      <trkpt lat="44.49059" lon="4.54801">
        <ele>445</ele>
        <time>2022-03-16T09:59:34Z</time>
      </trkpt>
      <trkpt lat="44.49055" lon="4.548">
        <ele>445</ele>
        <time>2022-03-16T09:59:41Z</time>
      </trkpt>
      <trkpt lat="44.49055" lon="4.54794">
        <ele>444</ele>
        <time>2022-03-16T09:59:48Z</time>
      </trkpt>
      <trkpt lat="44.49051" lon="4.54797">
        <ele>444</ele>
        <time>2022-03-16T09:59:54Z</time>
      </trkpt>
      <trkpt lat="44.49047" lon="4.54797">
        <ele>443</ele>
        <time>2022-03-16T10:00:15Z</time>
      </trkpt>
      <trkpt lat="44.49043" lon="4.54795">
        <ele>442</ele>
        <time>2022-03-16T10:00:28Z</time>
      </trkpt>
      <trkpt lat="44.49037" lon="4.54793">
        <ele>441</ele>
        <time>2022-03-16T10:00:40Z</time>
      </trkpt>
      <trkpt lat="44.49031" lon="4.54791">
        <ele>439</ele>
        <time>2022-03-16T10:00:52Z</time>
      </trkpt>
      <trkpt lat="44.49024" lon="4.54793">
        <ele>438</ele>
        <time>2022-03-16T10:01:21Z</time>
      </trkpt>
      <trkpt lat="44.49017" lon="4.54791">
        <ele>438</ele>
        <time>2022-03-16T10:01:33Z</time>
      </trkpt>
      <trkpt lat="44.4901" lon="4.54795">
        <ele>438</ele>
        <time>2022-03-16T10:01:45Z</time>
      </trkpt>
      <trkpt lat="44.49006" lon="4.548">
        <ele>438</ele>
        <time>2022-03-16T10:02:00Z</time>
      </trkpt>
      <trkpt lat="44.49" lon="4.54799">
        <ele>438</ele>
        <time>2022-03-16T10:02:14Z</time>
      </trkpt>
      <trkpt lat="44.48996" lon="4.54802">
        <ele>431</ele>
        <time>2022-03-16T10:03:03Z</time>
      </trkpt>
      <trkpt lat="44.48992" lon="4.548">
        <ele>429</ele>
        <time>2022-03-16T10:03:12Z</time>
      </trkpt>
      <trkpt lat="44.48986" lon="4.54801">
        <ele>428</ele>
        <time>2022-03-16T10:03:20Z</time>
      </trkpt>
      <trkpt lat="44.48977" lon="4.54809">
        <ele>429</ele>
        <time>2022-03-16T10:03:32Z</time>
      </trkpt>
      <trkpt lat="44.48973" lon="4.54811">
        <ele>429</ele>
        <time>2022-03-16T10:03:43Z</time>
      </trkpt>
      <trkpt lat="44.48969" lon="4.54819">
        <ele>432</ele>
        <time>2022-03-16T10:04:03Z</time>
      </trkpt>
      <trkpt lat="44.48964" lon="4.54816">
        <ele>432</ele>
        <time>2022-03-16T10:04:32Z</time>
      </trkpt>
      <trkpt lat="44.48952" lon="4.54813">
        <ele>431</ele>
        <time>2022-03-16T10:05:03Z</time>
      </trkpt>
      <trkpt lat="44.48944" lon="4.54819">
        <ele>431</ele>
        <time>2022-03-16T10:05:11Z</time>
      </trkpt>
      <trkpt lat="44.48938" lon="4.54818">
        <ele>429</ele>
        <time>2022-03-16T10:05:18Z</time>
      </trkpt>
      <trkpt lat="44.48932" lon="4.54818">
        <ele>428</ele>
        <time>2022-03-16T10:05:24Z</time>
      </trkpt>
      <trkpt lat="44.48925" lon="4.54818">
        <ele>427</ele>
        <time>2022-03-16T10:05:30Z</time>
      </trkpt>
      <trkpt lat="44.4892" lon="4.54814">
        <ele>425</ele>
        <time>2022-03-16T10:05:45Z</time>
      </trkpt>
      <trkpt lat="44.48917" lon="4.54822">
        <ele>424</ele>
        <time>2022-03-16T10:05:56Z</time>
      </trkpt>
      <trkpt lat="44.48912" lon="4.54827">
        <ele>419</ele>
        <time>2022-03-16T10:06:23Z</time>
      </trkpt>
      <trkpt lat="44.48913" lon="4.54835">
        <ele>414</ele>
        <time>2022-03-16T10:06:40Z</time>
      </trkpt>
      <trkpt lat="44.48899" lon="4.54849">
        <ele>415</ele>
        <time>2022-03-16T10:06:48Z</time>
      </trkpt>
      <trkpt lat="44.48901" lon="4.54854">
        <ele>413</ele>
        <time>2022-03-16T10:07:14Z</time>
      </trkpt>
      <trkpt lat="44.48896" lon="4.54859">
        <ele>412</ele>
        <time>2022-03-16T10:07:31Z</time>
      </trkpt>
      <trkpt lat="44.48891" lon="4.54858">
        <ele>411</ele>
        <time>2022-03-16T10:07:41Z</time>
      </trkpt>
      <trkpt lat="44.48884" lon="4.54858">
        <ele>408</ele>
        <time>2022-03-16T10:07:54Z</time>
      </trkpt>
      <trkpt lat="44.4888" lon="4.54864">
        <ele>405</ele>
        <time>2022-03-16T10:08:03Z</time>
      </trkpt>
      <trkpt lat="44.48877" lon="4.54868">
        <ele>402</ele>
        <time>2022-03-16T10:08:14Z</time>
      </trkpt>
      <trkpt lat="44.48872" lon="4.54871">
        <ele>402</ele>
        <time>2022-03-16T10:08:36Z</time>
      </trkpt>
      <trkpt lat="44.48872" lon="4.54879">
        <ele>402</ele>
        <time>2022-03-16T10:08:41Z</time>
      </trkpt>
      <trkpt lat="44.48868" lon="4.54884">
        <ele>401</ele>
        <time>2022-03-16T10:08:49Z</time>
      </trkpt>
      <trkpt lat="44.48869" lon="4.54891">
        <ele>401</ele>
        <time>2022-03-16T10:08:55Z</time>
      </trkpt>
      <trkpt lat="44.48863" lon="4.54906">
        <ele>399</ele>
        <time>2022-03-16T10:09:11Z</time>
      </trkpt>
      <trkpt lat="44.4886" lon="4.54911">
        <ele>398</ele>
        <time>2022-03-16T10:09:30Z</time>
      </trkpt>
      <trkpt lat="44.48856" lon="4.54914">
        <ele>397</ele>
        <time>2022-03-16T10:09:37Z</time>
      </trkpt>
      <trkpt lat="44.48853" lon="4.54911">
        <ele>394</ele>
        <time>2022-03-16T10:09:45Z</time>
      </trkpt>
      <trkpt lat="44.48849" lon="4.54907">
        <ele>394</ele>
        <time>2022-03-16T10:09:59Z</time>
      </trkpt>
      <trkpt lat="44.48846" lon="4.54903">
        <ele>394</ele>
        <time>2022-03-16T10:10:06Z</time>
      </trkpt>
      <trkpt lat="44.48842" lon="4.54899">
        <ele>394</ele>
        <time>2022-03-16T10:10:13Z</time>
      </trkpt>
      <trkpt lat="44.48838" lon="4.54894">
        <ele>394</ele>
        <time>2022-03-16T10:10:21Z</time>
      </trkpt>
      <trkpt lat="44.48833" lon="4.54892">
        <ele>393</ele>
        <time>2022-03-16T10:10:57Z</time>
      </trkpt>
      <trkpt lat="44.48832" lon="4.54892">
        <ele>392</ele>
        <time>2022-03-16T10:11:30Z</time>
      </trkpt>
      <trkpt lat="44.48828" lon="4.54893">
        <ele>391</ele>
        <time>2022-03-16T10:11:47Z</time>
      </trkpt>
      <trkpt lat="44.48822" lon="4.54894">
        <ele>385</ele>
        <time>2022-03-16T10:11:53Z</time>
      </trkpt>
      <trkpt lat="44.48819" lon="4.54896">
        <ele>383</ele>
        <time>2022-03-16T10:11:58Z</time>
      </trkpt>
      <trkpt lat="44.48816" lon="4.54891">
        <ele>381</ele>
        <time>2022-03-16T10:12:03Z</time>
      </trkpt>
      <trkpt lat="44.48814" lon="4.54885">
        <ele>380</ele>
        <time>2022-03-16T10:12:15Z</time>
      </trkpt>
      <trkpt lat="44.48811" lon="4.54881">
        <ele>380</ele>
        <time>2022-03-16T10:12:22Z</time>
      </trkpt>
      <trkpt lat="44.4881" lon="4.54874">
        <ele>380</ele>
        <time>2022-03-16T10:12:32Z</time>
      </trkpt>
      <trkpt lat="44.48812" lon="4.54869">
        <ele>379</ele>
        <time>2022-03-16T10:12:43Z</time>
      </trkpt>
      <trkpt lat="44.48811" lon="4.54861">
        <ele>378</ele>
        <time>2022-03-16T10:12:50Z</time>
      </trkpt>
      <trkpt lat="44.48812" lon="4.54854">
        <ele>376</ele>
        <time>2022-03-16T10:12:54Z</time>
      </trkpt>
      <trkpt lat="44.48812" lon="4.54846">
        <ele>374</ele>
        <time>2022-03-16T10:12:59Z</time>
      </trkpt>
      <trkpt lat="44.48809" lon="4.5484">
        <ele>371</ele>
        <time>2022-03-16T10:13:06Z</time>
      </trkpt>
      <trkpt lat="44.48808" lon="4.54833">
        <ele>371</ele>
        <time>2022-03-16T10:13:11Z</time>
      </trkpt>
      <trkpt lat="44.48808" lon="4.54824">
        <ele>371</ele>
        <time>2022-03-16T10:13:24Z</time>
      </trkpt>
      <trkpt lat="44.48804" lon="4.54817">
        <ele>371</ele>
        <time>2022-03-16T10:13:33Z</time>
      </trkpt>
      <trkpt lat="44.48803" lon="4.54807">
        <ele>371</ele>
        <time>2022-03-16T10:13:43Z</time>
      </trkpt>
      <trkpt lat="44.48795" lon="4.54805">
        <ele>370</ele>
        <time>2022-03-16T10:14:16Z</time>
      </trkpt>
      <trkpt lat="44.4879" lon="4.54798">
        <ele>368</ele>
        <time>2022-03-16T10:14:41Z</time>
      </trkpt>
      <trkpt lat="44.48783" lon="4.54797">
        <ele>368</ele>
        <time>2022-03-16T10:14:53Z</time>
      </trkpt>
      <trkpt lat="44.48777" lon="4.54797">
        <ele>370</ele>
        <time>2022-03-16T10:15:02Z</time>
      </trkpt>
      <trkpt lat="44.48773" lon="4.54798">
        <ele>369</ele>
        <time>2022-03-16T10:15:10Z</time>
      </trkpt>
      <trkpt lat="44.48771" lon="4.54804">
        <ele>368</ele>
        <time>2022-03-16T10:15:27Z</time>
      </trkpt>
      <trkpt lat="44.48766" lon="4.54802">
        <ele>368</ele>
        <time>2022-03-16T10:15:44Z</time>
      </trkpt>
      <trkpt lat="44.48762" lon="4.54804">
        <ele>365</ele>
        <time>2022-03-16T10:15:56Z</time>
      </trkpt>
      <trkpt lat="44.48758" lon="4.54805">
        <ele>363</ele>
        <time>2022-03-16T10:16:09Z</time>
      </trkpt>
      <trkpt lat="44.48754" lon="4.54809">
        <ele>363</ele>
        <time>2022-03-16T10:16:19Z</time>
      </trkpt>
      <trkpt lat="44.4875" lon="4.54808">
        <ele>361</ele>
        <time>2022-03-16T10:16:24Z</time>
      </trkpt>
      <trkpt lat="44.48746" lon="4.54807">
        <ele>361</ele>
        <time>2022-03-16T10:16:29Z</time>
      </trkpt>
      <trkpt lat="44.48737" lon="4.54808">
        <ele>359</ele>
        <time>2022-03-16T10:16:37Z</time>
      </trkpt>
      <trkpt lat="44.4873" lon="4.54811">
        <ele>358</ele>
        <time>2022-03-16T10:16:47Z</time>
      </trkpt>
      <trkpt lat="44.48722" lon="4.54808">
        <ele>358</ele>
        <time>2022-03-16T10:16:54Z</time>
      </trkpt>
      <trkpt lat="44.48721" lon="4.54813">
        <ele>356</ele>
        <time>2022-03-16T10:17:15Z</time>
      </trkpt>
      <trkpt lat="44.48717" lon="4.54814">
        <ele>356</ele>
        <time>2022-03-16T10:17:20Z</time>
      </trkpt>
      <trkpt lat="44.48713" lon="4.54816">
        <ele>355</ele>
        <time>2022-03-16T10:17:25Z</time>
      </trkpt>
      <trkpt lat="44.4871" lon="4.54818">
        <ele>354</ele>
        <time>2022-03-16T10:17:30Z</time>
      </trkpt>
      <trkpt lat="44.48707" lon="4.54818">
        <ele>353</ele>
        <time>2022-03-16T10:17:34Z</time>
      </trkpt>
      <trkpt lat="44.48704" lon="4.5482">
        <ele>352</ele>
        <time>2022-03-16T10:17:38Z</time>
      </trkpt>
      <trkpt lat="44.487" lon="4.54824">
        <ele>350</ele>
        <time>2022-03-16T10:17:51Z</time>
      </trkpt>
      <trkpt lat="44.48698" lon="4.54827">
        <ele>350</ele>
        <time>2022-03-16T10:17:55Z</time>
      </trkpt>
      <trkpt lat="44.48697" lon="4.54831">
        <ele>350</ele>
        <time>2022-03-16T10:18:00Z</time>
      </trkpt>
      <trkpt lat="44.48694" lon="4.54834">
        <ele>349</ele>
        <time>2022-03-16T10:18:05Z</time>
      </trkpt>
      <trkpt lat="44.4869" lon="4.54833">
        <ele>349</ele>
        <time>2022-03-16T10:18:09Z</time>
      </trkpt>
      <trkpt lat="44.48683" lon="4.54839">
        <ele>346</ele>
        <time>2022-03-16T10:18:21Z</time>
      </trkpt>
      <trkpt lat="44.48682" lon="4.54844">
        <ele>347</ele>
        <time>2022-03-16T10:18:26Z</time>
      </trkpt>
      <trkpt lat="44.48679" lon="4.54847">
        <ele>347</ele>
        <time>2022-03-16T10:18:39Z</time>
      </trkpt>
      <trkpt lat="44.48678" lon="4.54852">
        <ele>347</ele>
        <time>2022-03-16T10:18:45Z</time>
      </trkpt>
      <trkpt lat="44.48678" lon="4.54856">
        <ele>342</ele>
        <time>2022-03-16T10:18:51Z</time>
      </trkpt>
      <trkpt lat="44.48677" lon="4.54859">
        <ele>341</ele>
        <time>2022-03-16T10:18:56Z</time>
      </trkpt>
      <trkpt lat="44.48677" lon="4.54865">
        <ele>340</ele>
        <time>2022-03-16T10:19:03Z</time>
      </trkpt>
      <trkpt lat="44.48677" lon="4.54872">
        <ele>341</ele>
        <time>2022-03-16T10:19:19Z</time>
      </trkpt>
      <trkpt lat="44.48674" lon="4.54879">
        <ele>339</ele>
        <time>2022-03-16T10:19:26Z</time>
      </trkpt>
      <trkpt lat="44.48667" lon="4.54884">
        <ele>339</ele>
        <time>2022-03-16T10:19:38Z</time>
      </trkpt>
      <trkpt lat="44.48667" lon="4.54892">
        <ele>337</ele>
        <time>2022-03-16T10:20:02Z</time>
      </trkpt>
      <trkpt lat="44.48664" lon="4.549">
        <ele>335</ele>
        <time>2022-03-16T10:20:13Z</time>
      </trkpt>
      <trkpt lat="44.48659" lon="4.54906">
        <ele>332</ele>
        <time>2022-03-16T10:20:23Z</time>
      </trkpt>
      <trkpt lat="44.48654" lon="4.54906">
        <ele>331</ele>
        <time>2022-03-16T10:20:44Z</time>
      </trkpt>
      <trkpt lat="44.4865" lon="4.54909">
        <ele>332</ele>
        <time>2022-03-16T10:20:48Z</time>
      </trkpt>
      <trkpt lat="44.48646" lon="4.5491">
        <ele>332</ele>
        <time>2022-03-16T10:20:54Z</time>
      </trkpt>
      <trkpt lat="44.48643" lon="4.54913">
        <ele>330</ele>
        <time>2022-03-16T10:20:59Z</time>
      </trkpt>
      <trkpt lat="44.48639" lon="4.54917">
        <ele>330</ele>
        <time>2022-03-16T10:21:03Z</time>
      </trkpt>
      <trkpt lat="44.48637" lon="4.54921">
        <ele>331</ele>
        <time>2022-03-16T10:21:07Z</time>
      </trkpt>
      <trkpt lat="44.48636" lon="4.54926">
        <ele>331</ele>
        <time>2022-03-16T10:21:14Z</time>
      </trkpt>
      <trkpt lat="44.48632" lon="4.54928">
        <ele>331</ele>
        <time>2022-03-16T10:21:19Z</time>
      </trkpt>
      <trkpt lat="44.48629" lon="4.54927">
        <ele>330</ele>
        <time>2022-03-16T10:21:23Z</time>
      </trkpt>
      <trkpt lat="44.48627" lon="4.5493">
        <ele>329</ele>
        <time>2022-03-16T10:21:28Z</time>
      </trkpt>
      <trkpt lat="44.48626" lon="4.54935">
        <ele>327</ele>
        <time>2022-03-16T10:21:33Z</time>
      </trkpt>
      <trkpt lat="44.48632" lon="4.54933">
        <ele>325</ele>
        <time>2022-03-16T10:21:55Z</time>
      </trkpt>
      <trkpt lat="44.48638" lon="4.54931">
        <ele>323</ele>
        <time>2022-03-16T10:22:01Z</time>
      </trkpt>
      <trkpt lat="44.48648" lon="4.54925">
        <ele>323</ele>
        <time>2022-03-16T10:22:15Z</time>
      </trkpt>
      <trkpt lat="44.48653" lon="4.54922">
        <ele>323</ele>
        <time>2022-03-16T10:22:20Z</time>
      </trkpt>
      <trkpt lat="44.4866" lon="4.54914">
        <ele>323</ele>
        <time>2022-03-16T10:22:27Z</time>
      </trkpt>
      <trkpt lat="44.48669" lon="4.54908">
        <ele>322</ele>
        <time>2022-03-16T10:22:35Z</time>
      </trkpt>
      <trkpt lat="44.48672" lon="4.54906">
        <ele>323</ele>
        <time>2022-03-16T10:22:40Z</time>
      </trkpt>
      <trkpt lat="44.48675" lon="4.54901">
        <ele>323</ele>
        <time>2022-03-16T10:22:44Z</time>
      </trkpt>
      <trkpt lat="44.48678" lon="4.54899">
        <ele>322</ele>
        <time>2022-03-16T10:22:47Z</time>
      </trkpt>
      <trkpt lat="44.48682" lon="4.54901">
        <ele>322</ele>
        <time>2022-03-16T10:22:51Z</time>
      </trkpt>
      <trkpt lat="44.48697" lon="4.54894">
        <ele>323</ele>
        <time>2022-03-16T10:23:03Z</time>
      </trkpt>
      <trkpt lat="44.48702" lon="4.54894">
        <ele>324</ele>
        <time>2022-03-16T10:23:07Z</time>
      </trkpt>
      <trkpt lat="44.48706" lon="4.54894">
        <ele>324</ele>
        <time>2022-03-16T10:23:11Z</time>
      </trkpt>
      <trkpt lat="44.48709" lon="4.54892">
        <ele>325</ele>
        <time>2022-03-16T10:23:15Z</time>
      </trkpt>
      <trkpt lat="44.48713" lon="4.54892">
        <ele>325</ele>
        <time>2022-03-16T10:23:20Z</time>
      </trkpt>
      <trkpt lat="44.48716" lon="4.54897">
        <ele>325</ele>
        <time>2022-03-16T10:23:24Z</time>
      </trkpt>
      <trkpt lat="44.48714" lon="4.54904">
        <ele>326</ele>
        <time>2022-03-16T10:23:29Z</time>
      </trkpt>
      <trkpt lat="44.48715" lon="4.54939">
        <ele>330</ele>
        <time>2022-03-16T10:23:52Z</time>
      </trkpt>
      <trkpt lat="44.48718" lon="4.54948">
        <ele>329</ele>
        <time>2022-03-16T10:23:58Z</time>
      </trkpt>
      <trkpt lat="44.48718" lon="4.54952">
        <ele>329</ele>
        <time>2022-03-16T10:24:01Z</time>
      </trkpt>
      <trkpt lat="44.48717" lon="4.54965">
        <ele>330</ele>
        <time>2022-03-16T10:24:08Z</time>
      </trkpt>
      <trkpt lat="44.48711" lon="4.5498">
        <ele>332</ele>
        <time>2022-03-16T10:24:23Z</time>
      </trkpt>
      <trkpt lat="44.48712" lon="4.54984">
        <ele>331</ele>
        <time>2022-03-16T10:24:26Z</time>
      </trkpt>
      <trkpt lat="44.48712" lon="4.54989">
        <ele>331</ele>
        <time>2022-03-16T10:24:28Z</time>
      </trkpt>
      <trkpt lat="44.48711" lon="4.54995">
        <ele>330</ele>
        <time>2022-03-16T10:24:31Z</time>
      </trkpt>
      <trkpt lat="44.4871" lon="4.55">
        <ele>330</ele>
        <time>2022-03-16T10:24:34Z</time>
      </trkpt>
      <trkpt lat="44.48713" lon="4.55015">
        <ele>330</ele>
        <time>2022-03-16T10:24:43Z</time>
      </trkpt>
      <trkpt lat="44.48715" lon="4.55019">
        <ele>330</ele>
        <time>2022-03-16T10:24:45Z</time>
      </trkpt>
      <trkpt lat="44.48716" lon="4.55024">
        <ele>330</ele>
        <time>2022-03-16T10:24:47Z</time>
      </trkpt>
      <trkpt lat="44.48723" lon="4.55034">
        <ele>330</ele>
        <time>2022-03-16T10:24:56Z</time>
      </trkpt>
      <trkpt lat="44.48724" lon="4.55037">
        <ele>330</ele>
        <time>2022-03-16T10:25:01Z</time>
      </trkpt>
      <trkpt lat="44.48727" lon="4.55038">
        <ele>330</ele>
        <time>2022-03-16T10:25:09Z</time>
      </trkpt>
      <trkpt lat="44.48734" lon="4.55051">
        <ele>328</ele>
        <time>2022-03-16T10:25:18Z</time>
      </trkpt>
      <trkpt lat="44.48737" lon="4.55054">
        <ele>328</ele>
        <time>2022-03-16T10:25:21Z</time>
      </trkpt>
      <trkpt lat="44.48746" lon="4.55064">
        <ele>328</ele>
        <time>2022-03-16T10:25:30Z</time>
      </trkpt>
      <trkpt lat="44.48746" lon="4.55067">
        <ele>329</ele>
        <time>2022-03-16T10:25:35Z</time>
      </trkpt>
      <trkpt lat="44.48748" lon="4.55071">
        <ele>329</ele>
        <time>2022-03-16T10:25:39Z</time>
      </trkpt>
      <trkpt lat="44.48751" lon="4.55072">
        <ele>328</ele>
        <time>2022-03-16T10:25:43Z</time>
      </trkpt>
      <trkpt lat="44.48754" lon="4.55072">
        <ele>329</ele>
        <time>2022-03-16T10:26:17Z</time>
      </trkpt>
      <trkpt lat="44.48755" lon="4.55077">
        <ele>331</ele>
        <time>2022-03-16T10:27:14Z</time>
      </trkpt>
      <trkpt lat="44.48759" lon="4.55082">
        <ele>332</ele>
        <time>2022-03-16T10:27:42Z</time>
      </trkpt>
      <trkpt lat="44.48768" lon="4.55089">
        <ele>330</ele>
        <time>2022-03-16T10:27:51Z</time>
      </trkpt>
      <trkpt lat="44.48765" lon="4.55088">
        <ele>329</ele>
        <time>2022-03-16T10:27:59Z</time>
      </trkpt>
      <trkpt lat="44.48756" lon="4.55092">
        <ele>327</ele>
        <time>2022-03-16T10:28:09Z</time>
      </trkpt>
      <trkpt lat="44.48746" lon="4.55091">
        <ele>325</ele>
        <time>2022-03-16T10:28:22Z</time>
      </trkpt>
      <trkpt lat="44.48738" lon="4.55088">
        <ele>323</ele>
        <time>2022-03-16T10:28:29Z</time>
      </trkpt>
      <trkpt lat="44.48734" lon="4.5509">
        <ele>322</ele>
        <time>2022-03-16T10:28:33Z</time>
      </trkpt>
      <trkpt lat="44.48727" lon="4.55089">
        <ele>321</ele>
        <time>2022-03-16T10:28:41Z</time>
      </trkpt>
      <trkpt lat="44.48715" lon="4.55082">
        <ele>317</ele>
        <time>2022-03-16T10:28:52Z</time>
      </trkpt>
      <trkpt lat="44.48711" lon="4.55079">
        <ele>317</ele>
        <time>2022-03-16T10:29:10Z</time>
      </trkpt>
      <trkpt lat="44.48701" lon="4.55079">
        <ele>315</ele>
        <time>2022-03-16T10:29:20Z</time>
      </trkpt>
      <trkpt lat="44.48696" lon="4.55081">
        <ele>313</ele>
        <time>2022-03-16T10:29:26Z</time>
      </trkpt>
      <trkpt lat="44.48692" lon="4.5508">
        <ele>312</ele>
        <time>2022-03-16T10:29:31Z</time>
      </trkpt>
      <trkpt lat="44.48688" lon="4.55078">
        <ele>309</ele>
        <time>2022-03-16T10:29:35Z</time>
      </trkpt>
      <trkpt lat="44.48682" lon="4.55077">
        <ele>308</ele>
        <time>2022-03-16T10:29:39Z</time>
      </trkpt>
      <trkpt lat="44.48678" lon="4.55077">
        <ele>306</ele>
        <time>2022-03-16T10:29:44Z</time>
      </trkpt>
      <trkpt lat="44.48674" lon="4.55074">
        <ele>307</ele>
        <time>2022-03-16T10:29:48Z</time>
      </trkpt>
      <trkpt lat="44.48666" lon="4.5507">
        <ele>306</ele>
        <time>2022-03-16T10:29:55Z</time>
      </trkpt>
      <trkpt lat="44.48663" lon="4.55069">
        <ele>306</ele>
        <time>2022-03-16T10:29:58Z</time>
      </trkpt>
      <trkpt lat="44.4866" lon="4.55073">
        <ele>306</ele>
        <time>2022-03-16T10:30:02Z</time>
      </trkpt>
      <trkpt lat="44.48652" lon="4.55093">
        <ele>302</ele>
        <time>2022-03-16T10:30:20Z</time>
      </trkpt>
      <trkpt lat="44.4865" lon="4.55099">
        <ele>302</ele>
        <time>2022-03-16T10:30:24Z</time>
      </trkpt>
      <trkpt lat="44.48643" lon="4.55114">
        <ele>298</ele>
        <time>2022-03-16T10:30:36Z</time>
      </trkpt>
      <trkpt lat="44.48641" lon="4.55117">
        <ele>298</ele>
        <time>2022-03-16T10:30:39Z</time>
      </trkpt>
      <trkpt lat="44.48627" lon="4.55144">
        <ele>293</ele>
        <time>2022-03-16T10:31:05Z</time>
      </trkpt>
      <trkpt lat="44.48615" lon="4.55152">
        <ele>290</ele>
        <time>2022-03-16T10:31:21Z</time>
      </trkpt>
      <trkpt lat="44.48613" lon="4.55156">
        <ele>290</ele>
        <time>2022-03-16T10:31:24Z</time>
      </trkpt>
      <trkpt lat="44.48612" lon="4.5516">
        <ele>289</ele>
        <time>2022-03-16T10:31:27Z</time>
      </trkpt>
      <trkpt lat="44.48612" lon="4.55164">
        <ele>289</ele>
        <time>2022-03-16T10:31:30Z</time>
      </trkpt>
      <trkpt lat="44.48616" lon="4.55176">
        <ele>285</ele>
        <time>2022-03-16T10:31:42Z</time>
      </trkpt>
      <trkpt lat="44.48619" lon="4.55189">
        <ele>281</ele>
        <time>2022-03-16T10:31:51Z</time>
      </trkpt>
      <trkpt lat="44.48621" lon="4.55192">
        <ele>279</ele>
        <time>2022-03-16T10:31:54Z</time>
      </trkpt>
      <trkpt lat="44.48623" lon="4.552">
        <ele>278</ele>
        <time>2022-03-16T10:32:00Z</time>
      </trkpt>
      <trkpt lat="44.48624" lon="4.55204">
        <ele>277</ele>
        <time>2022-03-16T10:32:04Z</time>
      </trkpt>
      <trkpt lat="44.48623" lon="4.55207">
        <ele>276</ele>
        <time>2022-03-16T10:32:07Z</time>
      </trkpt>
      <trkpt lat="44.48621" lon="4.55209">
        <ele>276</ele>
        <time>2022-03-16T10:32:10Z</time>
      </trkpt>
      <trkpt lat="44.48614" lon="4.55213">
        <ele>274</ele>
        <time>2022-03-16T10:32:26Z</time>
      </trkpt>
      <trkpt lat="44.4861" lon="4.55212">
        <ele>273</ele>
        <time>2022-03-16T10:32:30Z</time>
      </trkpt>
      <trkpt lat="44.48607" lon="4.55212">
        <ele>272</ele>
        <time>2022-03-16T10:32:34Z</time>
      </trkpt>
      <trkpt lat="44.48601" lon="4.55207">
        <ele>270</ele>
        <time>2022-03-16T10:32:44Z</time>
      </trkpt>
      <trkpt lat="44.48599" lon="4.55204">
        <ele>270</ele>
        <time>2022-03-16T10:32:48Z</time>
      </trkpt>
      <trkpt lat="44.48591" lon="4.55195">
        <ele>272</ele>
        <time>2022-03-16T10:33:00Z</time>
      </trkpt>
      <trkpt lat="44.4859" lon="4.55193">
        <ele>272</ele>
        <time>2022-03-16T10:33:04Z</time>
      </trkpt>
      <trkpt lat="44.48588" lon="4.55189">
        <ele>272</ele>
        <time>2022-03-16T10:33:07Z</time>
      </trkpt>
      <trkpt lat="44.48579" lon="4.5516">
        <ele>270</ele>
        <time>2022-03-16T10:33:26Z</time>
      </trkpt>
      <trkpt lat="44.48578" lon="4.55154">
        <ele>269</ele>
        <time>2022-03-16T10:33:29Z</time>
      </trkpt>
      <trkpt lat="44.48576" lon="4.5515">
        <ele>269</ele>
        <time>2022-03-16T10:33:32Z</time>
      </trkpt>
      <trkpt lat="44.48573" lon="4.55146">
        <ele>269</ele>
        <time>2022-03-16T10:33:35Z</time>
      </trkpt>
      <trkpt lat="44.48567" lon="4.55143">
        <ele>270</ele>
        <time>2022-03-16T10:33:39Z</time>
      </trkpt>
      <trkpt lat="44.4856" lon="4.5514">
        <ele>270</ele>
        <time>2022-03-16T10:33:45Z</time>
      </trkpt>
      <trkpt lat="44.48552" lon="4.55142">
        <ele>269</ele>
        <time>2022-03-16T10:33:52Z</time>
      </trkpt>
      <trkpt lat="44.48545" lon="4.55144">
        <ele>268</ele>
        <time>2022-03-16T10:33:56Z</time>
      </trkpt>
      <trkpt lat="44.48538" lon="4.55148">
        <ele>268</ele>
        <time>2022-03-16T10:34:01Z</time>
      </trkpt>
      <trkpt lat="44.4852" lon="4.5515">
        <ele>268</ele>
        <time>2022-03-16T10:34:14Z</time>
      </trkpt>
      <trkpt lat="44.48517" lon="4.55147">
        <ele>268</ele>
        <time>2022-03-16T10:34:17Z</time>
      </trkpt>
      <trkpt lat="44.48504" lon="4.55138">
        <ele>271</ele>
        <time>2022-03-16T10:34:26Z</time>
      </trkpt>
      <trkpt lat="44.485" lon="4.55134">
        <ele>272</ele>
        <time>2022-03-16T10:34:30Z</time>
      </trkpt>
      <trkpt lat="44.48487" lon="4.55122">
        <ele>270</ele>
        <time>2022-03-16T10:34:41Z</time>
      </trkpt>
      <trkpt lat="44.48484" lon="4.55119">
        <ele>270</ele>
        <time>2022-03-16T10:34:44Z</time>
      </trkpt>
      <trkpt lat="44.48479" lon="4.55113">
        <ele>270</ele>
        <time>2022-03-16T10:34:49Z</time>
      </trkpt>
      <trkpt lat="44.48474" lon="4.55107">
        <ele>271</ele>
        <time>2022-03-16T10:34:54Z</time>
      </trkpt>
      <trkpt lat="44.48472" lon="4.55104">
        <ele>272</ele>
        <time>2022-03-16T10:34:56Z</time>
      </trkpt>
      <trkpt lat="44.48468" lon="4.55102">
        <ele>273</ele>
        <time>2022-03-16T10:34:58Z</time>
      </trkpt>
      <trkpt lat="44.48442" lon="4.55074">
        <ele>273</ele>
        <time>2022-03-16T10:35:24Z</time>
      </trkpt>
      <trkpt lat="44.48436" lon="4.5507">
        <ele>272</ele>
        <time>2022-03-16T10:35:29Z</time>
      </trkpt>
      <trkpt lat="44.48402" lon="4.55043">
        <ele>273</ele>
        <time>2022-03-16T10:35:59Z</time>
      </trkpt>
      <trkpt lat="44.48394" lon="4.55031">
        <ele>273</ele>
        <time>2022-03-16T10:36:09Z</time>
      </trkpt>
      <trkpt lat="44.48392" lon="4.55028">
        <ele>273</ele>
        <time>2022-03-16T10:36:11Z</time>
      </trkpt>
      <trkpt lat="44.48392" lon="4.55024">
        <ele>274</ele>
        <time>2022-03-16T10:36:13Z</time>
      </trkpt>
      <trkpt lat="44.4839" lon="4.55017">
        <ele>274</ele>
        <time>2022-03-16T10:36:17Z</time>
      </trkpt>
      <trkpt lat="44.4839" lon="4.55013">
        <ele>274</ele>
        <time>2022-03-16T10:36:19Z</time>
      </trkpt>
      <trkpt lat="44.48387" lon="4.55001">
        <ele>273</ele>
        <time>2022-03-16T10:36:26Z</time>
      </trkpt>
      <trkpt lat="44.48384" lon="4.54991">
        <ele>273</ele>
        <time>2022-03-16T10:36:32Z</time>
      </trkpt>
      <trkpt lat="44.48382" lon="4.54985">
        <ele>273</ele>
        <time>2022-03-16T10:36:36Z</time>
      </trkpt>
      <trkpt lat="44.48383" lon="4.54976">
        <ele>271</ele>
        <time>2022-03-16T10:36:46Z</time>
      </trkpt>
      <trkpt lat="44.48383" lon="4.54972">
        <ele>271</ele>
        <time>2022-03-16T10:36:48Z</time>
      </trkpt>
      <trkpt lat="44.48381" lon="4.54969">
        <ele>272</ele>
        <time>2022-03-16T10:36:50Z</time>
      </trkpt>
      <trkpt lat="44.4838" lon="4.54966">
        <ele>272</ele>
        <time>2022-03-16T10:36:52Z</time>
      </trkpt>
      <trkpt lat="44.48377" lon="4.54963">
        <ele>274</ele>
        <time>2022-03-16T10:36:55Z</time>
      </trkpt>
      <trkpt lat="44.48373" lon="4.54962">
        <ele>274</ele>
        <time>2022-03-16T10:36:58Z</time>
      </trkpt>
      <trkpt lat="44.48371" lon="4.54963">
        <ele>274</ele>
        <time>2022-03-16T10:37:00Z</time>
      </trkpt>
      <trkpt lat="44.48356" lon="4.54974">
        <ele>276</ele>
        <time>2022-03-16T10:37:10Z</time>
      </trkpt>
      <trkpt lat="44.48354" lon="4.54974">
        <ele>276</ele>
        <time>2022-03-16T10:37:12Z</time>
      </trkpt>
      <trkpt lat="44.48349" lon="4.54973">
        <ele>278</ele>
        <time>2022-03-16T10:37:16Z</time>
      </trkpt>
      <trkpt lat="44.48344" lon="4.54971">
        <ele>279</ele>
        <time>2022-03-16T10:37:20Z</time>
      </trkpt>
      <trkpt lat="44.48333" lon="4.54957">
        <ele>280</ele>
        <time>2022-03-16T10:37:34Z</time>
      </trkpt>
      <trkpt lat="44.48333" lon="4.54953">
        <ele>280</ele>
        <time>2022-03-16T10:37:37Z</time>
      </trkpt>
      <trkpt lat="44.48335" lon="4.5495">
        <ele>281</ele>
        <time>2022-03-16T10:37:40Z</time>
      </trkpt>
      <trkpt lat="44.48337" lon="4.54947">
        <ele>279</ele>
        <time>2022-03-16T10:37:43Z</time>
      </trkpt>
      <trkpt lat="44.48328" lon="4.54976">
        <ele>278</ele>
        <time>2022-03-16T10:38:45Z</time>
      </trkpt>
      <trkpt lat="44.48344" lon="4.54979">
        <ele>278</ele>
        <time>2022-03-16T10:39:05Z</time>
      </trkpt>
      <trkpt lat="44.48356" lon="4.54955">
        <ele>298</ele>
        <time>2022-03-16T10:43:43Z</time>
      </trkpt>
      <trkpt lat="44.48345" lon="4.54976">
        <ele>297</ele>
        <time>2022-03-16T10:45:09Z</time>
      </trkpt>
      <trkpt lat="44.48351" lon="4.54965">
        <ele>292</ele>
        <time>2022-03-16T10:45:41Z</time>
      </trkpt>
      <trkpt lat="44.4836" lon="4.54947">
        <ele>291</ele>
        <time>2022-03-16T10:46:01Z</time>
      </trkpt>
      <trkpt lat="44.48361" lon="4.54929">
        <ele>280</ele>
        <time>2022-03-16T10:46:34Z</time>
      </trkpt>
      <trkpt lat="44.48346" lon="4.54942">
        <ele>280</ele>
        <time>2022-03-16T10:47:41Z</time>
      </trkpt>
      <trkpt lat="44.48345" lon="4.54943">
        <ele>270</ele>
        <time>2022-03-16T10:49:10Z</time>
      </trkpt>
      <trkpt lat="44.48352" lon="4.54939">
        <ele>268</ele>
        <time>2022-03-16T10:51:12Z</time>
      </trkpt>
      <trkpt lat="44.48362" lon="4.54945">
        <ele>267</ele>
        <time>2022-03-16T10:51:25Z</time>
      </trkpt>
      <trkpt lat="44.48357" lon="4.54957">
        <ele>267</ele>
        <time>2022-03-16T10:51:40Z</time>
      </trkpt>
      <trkpt lat="44.4835" lon="4.54969">
        <ele>267</ele>
        <time>2022-03-16T10:51:49Z</time>
      </trkpt>
      <trkpt lat="44.48341" lon="4.54992">
        <ele>267</ele>
        <time>2022-03-16T10:52:03Z</time>
      </trkpt>
      <trkpt lat="44.48336" lon="4.55019">
        <ele>264</ele>
        <time>2022-03-16T10:52:08Z</time>
      </trkpt>
      <trkpt lat="44.48323" lon="4.55041">
        <ele>262</ele>
        <time>2022-03-16T10:52:30Z</time>
      </trkpt>
      <trkpt lat="44.48322" lon="4.54988">
        <ele>261</ele>
        <time>2022-03-16T10:53:10Z</time>
      </trkpt>
      <trkpt lat="44.48321" lon="4.54962">
        <ele>266</ele>
        <time>2022-03-16T10:54:24Z</time>
      </trkpt>
      <trkpt lat="44.4833" lon="4.54949">
        <ele>285</ele>
        <time>2022-03-16T10:54:31Z</time>
      </trkpt>
      <trkpt lat="44.48331" lon="4.54955">
        <ele>283</ele>
        <time>2022-03-16T10:54:39Z</time>
      </trkpt>
      <trkpt lat="44.48337" lon="4.54962">
        <ele>279</ele>
        <time>2022-03-16T10:54:45Z</time>
      </trkpt>
      <trkpt lat="44.4834" lon="4.54969">
        <ele>277</ele>
        <time>2022-03-16T10:54:55Z</time>
      </trkpt>
      <trkpt lat="44.48341" lon="4.54976">
        <ele>277</ele>
        <time>2022-03-16T10:54:59Z</time>
      </trkpt>
      <trkpt lat="44.4834" lon="4.54982">
        <ele>278</ele>
        <time>2022-03-16T10:55:08Z</time>
      </trkpt>
      <trkpt lat="44.48338" lon="4.54986">
        <ele>278</ele>
        <time>2022-03-16T10:55:11Z</time>
      </trkpt>
      <trkpt lat="44.48332" lon="4.54995">
        <ele>279</ele>
        <time>2022-03-16T10:55:20Z</time>
      </trkpt>
      <trkpt lat="44.48325" lon="4.55003">
        <ele>279</ele>
        <time>2022-03-16T10:55:31Z</time>
      </trkpt>
      <trkpt lat="44.4832" lon="4.55003">
        <ele>278</ele>
        <time>2022-03-16T10:55:36Z</time>
      </trkpt>
      <trkpt lat="44.48317" lon="4.55006">
        <ele>278</ele>
        <time>2022-03-16T10:55:39Z</time>
      </trkpt>
      <trkpt lat="44.48316" lon="4.55012">
        <ele>277</ele>
        <time>2022-03-16T10:55:41Z</time>
      </trkpt>
      <trkpt lat="44.48314" lon="4.55017">
        <ele>273</ele>
        <time>2022-03-16T10:55:44Z</time>
      </trkpt>
      <trkpt lat="44.48313" lon="4.55023">
        <ele>274</ele>
        <time>2022-03-16T10:55:48Z</time>
      </trkpt>
      <trkpt lat="44.48312" lon="4.55029">
        <ele>273</ele>
        <time>2022-03-16T10:55:52Z</time>
      </trkpt>
      <trkpt lat="44.48311" lon="4.55035">
        <ele>271</ele>
        <time>2022-03-16T10:55:56Z</time>
      </trkpt>
      <trkpt lat="44.48302" lon="4.55047">
        <ele>270</ele>
        <time>2022-03-16T10:56:08Z</time>
      </trkpt>
      <trkpt lat="44.48298" lon="4.55056">
        <ele>270</ele>
        <time>2022-03-16T10:56:14Z</time>
      </trkpt>
      <trkpt lat="44.48295" lon="4.55061">
        <ele>270</ele>
        <time>2022-03-16T10:56:17Z</time>
      </trkpt>
      <trkpt lat="44.48291" lon="4.55062">
        <ele>270</ele>
        <time>2022-03-16T10:56:19Z</time>
      </trkpt>
      <trkpt lat="44.48289" lon="4.55064">
        <ele>269</ele>
        <time>2022-03-16T10:56:22Z</time>
      </trkpt>
      <trkpt lat="44.48287" lon="4.55069">
        <ele>268</ele>
        <time>2022-03-16T10:56:26Z</time>
      </trkpt>
      <trkpt lat="44.48261" lon="4.55075">
        <ele>266</ele>
        <time>2022-03-16T10:56:46Z</time>
      </trkpt>
      <trkpt lat="44.48254" lon="4.5508">
        <ele>264</ele>
        <time>2022-03-16T10:56:53Z</time>
      </trkpt>
      <trkpt lat="44.4823" lon="4.55116">
        <ele>262</ele>
        <time>2022-03-16T10:57:25Z</time>
      </trkpt>
      <trkpt lat="44.48219" lon="4.55138">
        <ele>262</ele>
        <time>2022-03-16T10:57:40Z</time>
      </trkpt>
      <trkpt lat="44.48208" lon="4.55155">
        <ele>260</ele>
        <time>2022-03-16T10:57:55Z</time>
      </trkpt>
      <trkpt lat="44.48206" lon="4.55158">
        <ele>259</ele>
        <time>2022-03-16T10:57:58Z</time>
      </trkpt>
      <trkpt lat="44.48201" lon="4.55167">
        <ele>258</ele>
        <time>2022-03-16T10:58:04Z</time>
      </trkpt>
      <trkpt lat="44.48199" lon="4.55168">
        <ele>258</ele>
        <time>2022-03-16T10:58:07Z</time>
      </trkpt>
      <trkpt lat="44.48196" lon="4.55175">
        <ele>258</ele>
        <time>2022-03-16T10:58:12Z</time>
      </trkpt>
      <trkpt lat="44.48195" lon="4.55176">
        <ele>257</ele>
        <time>2022-03-16T10:58:15Z</time>
      </trkpt>
      <trkpt lat="44.48194" lon="4.5518">
        <ele>257</ele>
        <time>2022-03-16T10:58:18Z</time>
      </trkpt>
      <trkpt lat="44.48189" lon="4.5519">
        <ele>256</ele>
        <time>2022-03-16T10:58:27Z</time>
      </trkpt>
      <trkpt lat="44.48188" lon="4.55194">
        <ele>254</ele>
        <time>2022-03-16T10:58:41Z</time>
      </trkpt>
      <trkpt lat="44.48182" lon="4.55206">
        <ele>254</ele>
        <time>2022-03-16T10:59:03Z</time>
      </trkpt>
      <trkpt lat="44.48171" lon="4.55218">
        <ele>254</ele>
        <time>2022-03-16T10:59:17Z</time>
      </trkpt>
      <trkpt lat="44.4817" lon="4.55222">
        <ele>254</ele>
        <time>2022-03-16T10:59:20Z</time>
      </trkpt>
      <trkpt lat="44.48168" lon="4.55226">
        <ele>253</ele>
        <time>2022-03-16T10:59:23Z</time>
      </trkpt>
      <trkpt lat="44.48161" lon="4.55237">
        <ele>251</ele>
        <time>2022-03-16T10:59:32Z</time>
      </trkpt>
      <trkpt lat="44.48158" lon="4.55239">
        <ele>251</ele>
        <time>2022-03-16T10:59:34Z</time>
      </trkpt>
      <trkpt lat="44.48155" lon="4.55242">
        <ele>251</ele>
        <time>2022-03-16T10:59:37Z</time>
      </trkpt>
      <trkpt lat="44.48154" lon="4.55245">
        <ele>251</ele>
        <time>2022-03-16T10:59:40Z</time>
      </trkpt>
      <trkpt lat="44.48151" lon="4.55246">
        <ele>251</ele>
        <time>2022-03-16T10:59:43Z</time>
      </trkpt>
      <trkpt lat="44.4815" lon="4.55252">
        <ele>251</ele>
        <time>2022-03-16T10:59:46Z</time>
      </trkpt>
      <trkpt lat="44.48139" lon="4.55269">
        <ele>248</ele>
        <time>2022-03-16T10:59:59Z</time>
      </trkpt>
      <trkpt lat="44.4813" lon="4.55288">
        <ele>245</ele>
        <time>2022-03-16T11:00:14Z</time>
      </trkpt>
      <trkpt lat="44.48125" lon="4.55295">
        <ele>244</ele>
        <time>2022-03-16T11:00:21Z</time>
      </trkpt>
      <trkpt lat="44.48122" lon="4.55296">
        <ele>245</ele>
        <time>2022-03-16T11:00:23Z</time>
      </trkpt>
      <trkpt lat="44.48121" lon="4.55299">
        <ele>244</ele>
        <time>2022-03-16T11:00:26Z</time>
      </trkpt>
      <trkpt lat="44.4812" lon="4.55303">
        <ele>243</ele>
        <time>2022-03-16T11:00:28Z</time>
      </trkpt>
      <trkpt lat="44.48112" lon="4.5532">
        <ele>240</ele>
        <time>2022-03-16T11:00:39Z</time>
      </trkpt>
      <trkpt lat="44.48099" lon="4.55348">
        <ele>239</ele>
        <time>2022-03-16T11:00:58Z</time>
      </trkpt>
      <trkpt lat="44.48082" lon="4.5537">
        <ele>238</ele>
        <time>2022-03-16T11:01:16Z</time>
      </trkpt>
      <trkpt lat="44.48076" lon="4.55375">
        <ele>238</ele>
        <time>2022-03-16T11:01:21Z</time>
      </trkpt>
      <trkpt lat="44.48072" lon="4.5538">
        <ele>237</ele>
        <time>2022-03-16T11:01:25Z</time>
      </trkpt>
      <trkpt lat="44.48071" lon="4.55383">
        <ele>237</ele>
        <time>2022-03-16T11:01:27Z</time>
      </trkpt>
      <trkpt lat="44.48069" lon="4.55387">
        <ele>236</ele>
        <time>2022-03-16T11:01:29Z</time>
      </trkpt>
      <trkpt lat="44.48063" lon="4.55395">
        <ele>236</ele>
        <time>2022-03-16T11:01:35Z</time>
      </trkpt>
      <trkpt lat="44.4806" lon="4.554">
        <ele>237</ele>
        <time>2022-03-16T11:01:39Z</time>
      </trkpt>
      <trkpt lat="44.48057" lon="4.55405">
        <ele>237</ele>
        <time>2022-03-16T11:01:43Z</time>
      </trkpt>
      <trkpt lat="44.48053" lon="4.55413">
        <ele>238</ele>
        <time>2022-03-16T11:01:49Z</time>
      </trkpt>
      <trkpt lat="44.48051" lon="4.55416">
        <ele>238</ele>
        <time>2022-03-16T11:01:51Z</time>
      </trkpt>
      <trkpt lat="44.48044" lon="4.55431">
        <ele>237</ele>
        <time>2022-03-16T11:02:01Z</time>
      </trkpt>
      <trkpt lat="44.48042" lon="4.55433">
        <ele>238</ele>
        <time>2022-03-16T11:02:14Z</time>
      </trkpt>
      <trkpt lat="44.4804" lon="4.55435">
        <ele>238</ele>
        <time>2022-03-16T11:02:20Z</time>
      </trkpt>
      <trkpt lat="44.48033" lon="4.55447">
        <ele>233</ele>
        <time>2022-03-16T11:02:30Z</time>
      </trkpt>
      <trkpt lat="44.48029" lon="4.55451">
        <ele>232</ele>
        <time>2022-03-16T11:03:00Z</time>
      </trkpt>
      <trkpt lat="44.48013" lon="4.55473">
        <ele>233</ele>
        <time>2022-03-16T11:03:24Z</time>
      </trkpt>
      <trkpt lat="44.4801" lon="4.55478">
        <ele>233</ele>
        <time>2022-03-16T11:03:34Z</time>
      </trkpt>
      <trkpt lat="44.47999" lon="4.55494">
        <ele>233</ele>
        <time>2022-03-16T11:03:44Z</time>
      </trkpt>
      <trkpt lat="44.47994" lon="4.55501">
        <ele>233</ele>
        <time>2022-03-16T11:03:50Z</time>
      </trkpt>
      <trkpt lat="44.47989" lon="4.55508">
        <ele>234</ele>
        <time>2022-03-16T11:03:56Z</time>
      </trkpt>
      <trkpt lat="44.47987" lon="4.55512">
        <ele>234</ele>
        <time>2022-03-16T11:04:05Z</time>
      </trkpt>
      <trkpt lat="44.47977" lon="4.55532">
        <ele>231</ele>
        <time>2022-03-16T11:04:20Z</time>
      </trkpt>
      <trkpt lat="44.47966" lon="4.55548">
        <ele>232</ele>
        <time>2022-03-16T11:04:31Z</time>
      </trkpt>
      <trkpt lat="44.47958" lon="4.55563">
        <ele>232</ele>
        <time>2022-03-16T11:04:43Z</time>
      </trkpt>
      <trkpt lat="44.47953" lon="4.55569">
        <ele>230</ele>
        <time>2022-03-16T11:04:49Z</time>
      </trkpt>
      <trkpt lat="44.47949" lon="4.55579">
        <ele>231</ele>
        <time>2022-03-16T11:04:56Z</time>
      </trkpt>
      <trkpt lat="44.47945" lon="4.55587">
        <ele>231</ele>
        <time>2022-03-16T11:05:03Z</time>
      </trkpt>
      <trkpt lat="44.47937" lon="4.55599">
        <ele>229</ele>
        <time>2022-03-16T11:05:12Z</time>
      </trkpt>
      <trkpt lat="44.47922" lon="4.55619">
        <ele>226</ele>
        <time>2022-03-16T11:05:29Z</time>
      </trkpt>
      <trkpt lat="44.47915" lon="4.5563">
        <ele>226</ele>
        <time>2022-03-16T11:05:36Z</time>
      </trkpt>
      <trkpt lat="44.47905" lon="4.55656">
        <ele>223</ele>
        <time>2022-03-16T11:05:54Z</time>
      </trkpt>
      <trkpt lat="44.47903" lon="4.55658">
        <ele>222</ele>
        <time>2022-03-16T11:05:57Z</time>
      </trkpt>
      <trkpt lat="44.47901" lon="4.55664">
        <ele>222</ele>
        <time>2022-03-16T11:06:01Z</time>
      </trkpt>
      <trkpt lat="44.47898" lon="4.55669">
        <ele>221</ele>
        <time>2022-03-16T11:06:05Z</time>
      </trkpt>
      <trkpt lat="44.47883" lon="4.55678">
        <ele>220</ele>
        <time>2022-03-16T11:06:16Z</time>
      </trkpt>
      <trkpt lat="44.47876" lon="4.55681">
        <ele>219</ele>
        <time>2022-03-16T11:06:22Z</time>
      </trkpt>
      <trkpt lat="44.47866" lon="4.55685">
        <ele>220</ele>
        <time>2022-03-16T11:06:31Z</time>
      </trkpt>
      <trkpt lat="44.47859" lon="4.55684">
        <ele>218</ele>
        <time>2022-03-16T11:06:37Z</time>
      </trkpt>
      <trkpt lat="44.47855" lon="4.55686">
        <ele>218</ele>
        <time>2022-03-16T11:06:40Z</time>
      </trkpt>
      <trkpt lat="44.47852" lon="4.55694">
        <ele>218</ele>
        <time>2022-03-16T11:06:46Z</time>
      </trkpt>
      <trkpt lat="44.4785" lon="4.55698">
        <ele>219</ele>
        <time>2022-03-16T11:06:49Z</time>
      </trkpt>
      <trkpt lat="44.47846" lon="4.55701">
        <ele>219</ele>
        <time>2022-03-16T11:06:52Z</time>
      </trkpt>
      <trkpt lat="44.47843" lon="4.55703">
        <ele>219</ele>
        <time>2022-03-16T11:06:55Z</time>
      </trkpt>
      <trkpt lat="44.47841" lon="4.557">
        <ele>219</ele>
        <time>2022-03-16T11:07:02Z</time>
      </trkpt>
      <trkpt lat="44.47831" lon="4.55705">
        <ele>218</ele>
        <time>2022-03-16T11:07:16Z</time>
      </trkpt>
      <trkpt lat="44.47826" lon="4.55706">
        <ele>216</ele>
        <time>2022-03-16T11:07:19Z</time>
      </trkpt>
      <trkpt lat="44.47823" lon="4.55705">
        <ele>215</ele>
        <time>2022-03-16T11:07:22Z</time>
      </trkpt>
      <trkpt lat="44.4782" lon="4.55704">
        <ele>213</ele>
        <time>2022-03-16T11:07:26Z</time>
      </trkpt>
      <trkpt lat="44.47811" lon="4.55703">
        <ele>212</ele>
        <time>2022-03-16T11:07:32Z</time>
      </trkpt>
      <trkpt lat="44.47802" lon="4.55701">
        <ele>211</ele>
        <time>2022-03-16T11:07:40Z</time>
      </trkpt>
      <trkpt lat="44.47799" lon="4.55703">
        <ele>211</ele>
        <time>2022-03-16T11:07:43Z</time>
      </trkpt>
      <trkpt lat="44.47796" lon="4.55708">
        <ele>209</ele>
        <time>2022-03-16T11:07:46Z</time>
      </trkpt>
      <trkpt lat="44.47794" lon="4.55711">
        <ele>209</ele>
        <time>2022-03-16T11:07:48Z</time>
      </trkpt>
      <trkpt lat="44.47794" lon="4.55715">
        <ele>209</ele>
        <time>2022-03-16T11:07:50Z</time>
      </trkpt>
      <trkpt lat="44.47794" lon="4.5572">
        <ele>209</ele>
        <time>2022-03-16T11:07:53Z</time>
      </trkpt>
      <trkpt lat="44.47799" lon="4.55727">
        <ele>210</ele>
        <time>2022-03-16T11:08:01Z</time>
      </trkpt>
      <trkpt lat="44.47802" lon="4.5573">
        <ele>212</ele>
        <time>2022-03-16T11:08:05Z</time>
      </trkpt>
      <trkpt lat="44.47803" lon="4.55734">
        <ele>212</ele>
        <time>2022-03-16T11:08:08Z</time>
      </trkpt>
      <trkpt lat="44.47802" lon="4.55739">
        <ele>211</ele>
        <time>2022-03-16T11:08:11Z</time>
      </trkpt>
      <trkpt lat="44.47805" lon="4.55746">
        <ele>211</ele>
        <time>2022-03-16T11:08:16Z</time>
      </trkpt>
      <trkpt lat="44.47807" lon="4.55749">
        <ele>211</ele>
        <time>2022-03-16T11:08:18Z</time>
      </trkpt>
      <trkpt lat="44.4781" lon="4.55751">
        <ele>210</ele>
        <time>2022-03-16T11:08:21Z</time>
      </trkpt>
      <trkpt lat="44.47814" lon="4.55754">
        <ele>210</ele>
        <time>2022-03-16T11:08:24Z</time>
      </trkpt>
      <trkpt lat="44.47817" lon="4.55755">
        <ele>211</ele>
        <time>2022-03-16T11:08:27Z</time>
      </trkpt>
      <trkpt lat="44.4782" lon="4.55754">
        <ele>211</ele>
        <time>2022-03-16T11:08:30Z</time>
      </trkpt>
      <trkpt lat="44.47827" lon="4.55752">
        <ele>209</ele>
        <time>2022-03-16T11:08:37Z</time>
      </trkpt>
      <trkpt lat="44.47838" lon="4.55749">
        <ele>205</ele>
        <time>2022-03-16T11:08:46Z</time>
      </trkpt>
      <trkpt lat="44.47847" lon="4.55746">
        <ele>205</ele>
        <time>2022-03-16T11:08:53Z</time>
      </trkpt>
      <trkpt lat="44.47854" lon="4.55748">
        <ele>207</ele>
        <time>2022-03-16T11:08:59Z</time>
      </trkpt>
      <trkpt lat="44.47867" lon="4.55742">
        <ele>207</ele>
        <time>2022-03-16T11:09:08Z</time>
      </trkpt>
      <trkpt lat="44.4787" lon="4.55742">
        <ele>207</ele>
        <time>2022-03-16T11:09:11Z</time>
      </trkpt>
      <trkpt lat="44.47877" lon="4.55745">
        <ele>207</ele>
        <time>2022-03-16T11:09:16Z</time>
      </trkpt>
      <trkpt lat="44.47889" lon="4.55749">
        <ele>205</ele>
        <time>2022-03-16T11:09:25Z</time>
      </trkpt>
      <trkpt lat="44.47892" lon="4.5575">
        <ele>205</ele>
        <time>2022-03-16T11:09:28Z</time>
      </trkpt>
      <trkpt lat="44.47905" lon="4.55756">
        <ele>202</ele>
        <time>2022-03-16T11:09:39Z</time>
      </trkpt>
      <trkpt lat="44.47907" lon="4.5576">
        <ele>201</ele>
        <time>2022-03-16T11:09:42Z</time>
      </trkpt>
      <trkpt lat="44.4791" lon="4.5576">
        <ele>201</ele>
        <time>2022-03-16T11:09:45Z</time>
      </trkpt>
      <trkpt lat="44.4791" lon="4.55764">
        <ele>201</ele>
        <time>2022-03-16T11:09:50Z</time>
      </trkpt>
      <trkpt lat="44.47911" lon="4.55766">
        <ele>200</ele>
        <time>2022-03-16T11:09:54Z</time>
      </trkpt>
      <trkpt lat="44.4791" lon="4.55768">
        <ele>200</ele>
        <time>2022-03-16T11:10:00Z</time>
      </trkpt>
      <trkpt lat="44.47911" lon="4.5577">
        <ele>200</ele>
        <time>2022-03-16T11:10:10Z</time>
      </trkpt>
      <trkpt lat="44.47912" lon="4.55766">
        <ele>199</ele>
        <time>2022-03-16T11:10:18Z</time>
      </trkpt>
      <trkpt lat="44.47914" lon="4.55762">
        <ele>199</ele>
        <time>2022-03-16T11:10:22Z</time>
      </trkpt>
      <trkpt lat="44.47917" lon="4.55762">
        <ele>199</ele>
        <time>2022-03-16T11:10:25Z</time>
      </trkpt>
      <trkpt lat="44.47919" lon="4.55763">
        <ele>198</ele>
        <time>2022-03-16T11:10:29Z</time>
      </trkpt>
      <trkpt lat="44.47921" lon="4.55766">
        <ele>197</ele>
        <time>2022-03-16T11:10:32Z</time>
      </trkpt>
      <trkpt lat="44.47921" lon="4.55769">
        <ele>197</ele>
        <time>2022-03-16T11:10:36Z</time>
      </trkpt>
      <trkpt lat="44.47924" lon="4.55772">
        <ele>197</ele>
        <time>2022-03-16T11:10:41Z</time>
      </trkpt>
      <trkpt lat="44.47922" lon="4.55781">
        <ele>196</ele>
        <time>2022-03-16T11:10:48Z</time>
      </trkpt>
      <trkpt lat="44.47921" lon="4.55785">
        <ele>196</ele>
        <time>2022-03-16T11:10:51Z</time>
      </trkpt>
      <trkpt lat="44.47922" lon="4.55784">
        <ele>200</ele>
        <time>2022-03-16T11:11:25Z</time>
      </trkpt>
      <trkpt lat="44.47922" lon="4.55782">
        <ele>200</ele>
        <time>2022-03-16T11:11:27Z</time>
      </trkpt>
      <trkpt lat="44.47922" lon="4.55779">
        <ele>200</ele>
        <time>2022-03-16T11:11:29Z</time>
      </trkpt>
      <trkpt lat="44.47923" lon="4.55776">
        <ele>199</ele>
        <time>2022-03-16T11:11:32Z</time>
      </trkpt>
      <trkpt lat="44.47922" lon="4.55773">
        <ele>198</ele>
        <time>2022-03-16T11:11:39Z</time>
      </trkpt>
      <trkpt lat="44.47923" lon="4.55771">
        <ele>198</ele>
        <time>2022-03-16T11:11:45Z</time>
      </trkpt>
      <trkpt lat="44.47923" lon="4.55767">
        <ele>198</ele>
        <time>2022-03-16T11:11:47Z</time>
      </trkpt>
      <trkpt lat="44.47922" lon="4.55765">
        <ele>198</ele>
        <time>2022-03-16T11:11:49Z</time>
      </trkpt>
      <trkpt lat="44.4792" lon="4.55762">
        <ele>197</ele>
        <time>2022-03-16T11:11:51Z</time>
      </trkpt>
      <trkpt lat="44.47918" lon="4.55761">
        <ele>197</ele>
        <time>2022-03-16T11:11:54Z</time>
      </trkpt>
      <trkpt lat="44.47914" lon="4.55759">
        <ele>197</ele>
        <time>2022-03-16T11:11:58Z</time>
      </trkpt>
      <trkpt lat="44.47912" lon="4.5576">
        <ele>197</ele>
        <time>2022-03-16T11:12:00Z</time>
      </trkpt>
      <trkpt lat="44.47911" lon="4.55763">
        <ele>197</ele>
        <time>2022-03-16T11:12:02Z</time>
      </trkpt>
      <trkpt lat="44.4791" lon="4.55767">
        <ele>198</ele>
        <time>2022-03-16T11:12:04Z</time>
      </trkpt>
      <trkpt lat="44.4791" lon="4.5577">
        <ele>198</ele>
        <time>2022-03-16T11:12:06Z</time>
      </trkpt>
      <trkpt lat="44.4791" lon="4.55769">
        <ele>200</ele>
        <time>2022-03-16T11:12:19Z</time>
      </trkpt>
      <trkpt lat="44.47909" lon="4.55767">
        <ele>200</ele>
        <time>2022-03-16T11:12:25Z</time>
      </trkpt>
      <trkpt lat="44.47907" lon="4.55756">
        <ele>198</ele>
        <time>2022-03-16T11:12:31Z</time>
      </trkpt>
      <trkpt lat="44.47907" lon="4.55755">
        <ele>198</ele>
        <time>2022-03-16T11:12:32Z</time>
      </trkpt>
      <trkpt lat="44.47905" lon="4.55752">
        <ele>197</ele>
        <time>2022-03-16T11:12:34Z</time>
      </trkpt>
      <trkpt lat="44.47901" lon="4.5575">
        <ele>197</ele>
        <time>2022-03-16T11:12:38Z</time>
      </trkpt>
      <trkpt lat="44.47893" lon="4.55747">
        <ele>198</ele>
        <time>2022-03-16T11:12:46Z</time>
      </trkpt>
      <trkpt lat="44.47891" lon="4.55749">
        <ele>198</ele>
        <time>2022-03-16T11:12:48Z</time>
      </trkpt>
      <trkpt lat="44.47889" lon="4.5575">
        <ele>198</ele>
        <time>2022-03-16T11:12:50Z</time>
      </trkpt>
      <trkpt lat="44.47888" lon="4.55753">
        <ele>199</ele>
        <time>2022-03-16T11:12:57Z</time>
      </trkpt>
      <trkpt lat="44.47888" lon="4.55755">
        <ele>199</ele>
        <time>2022-03-16T11:12:59Z</time>
      </trkpt>
      <trkpt lat="44.47887" lon="4.55756">
        <ele>199</ele>
        <time>2022-03-16T11:13:03Z</time>
      </trkpt>
      <trkpt lat="44.47881" lon="4.55766">
        <ele>196</ele>
        <time>2022-03-16T11:13:14Z</time>
      </trkpt>
      <trkpt lat="44.4788" lon="4.55769">
        <ele>196</ele>
        <time>2022-03-16T11:13:16Z</time>
      </trkpt>
      <trkpt lat="44.47879" lon="4.55771">
        <ele>196</ele>
        <time>2022-03-16T11:13:18Z</time>
      </trkpt>
      <trkpt lat="44.47877" lon="4.55773">
        <ele>198</ele>
        <time>2022-03-16T11:13:20Z</time>
      </trkpt>
      <trkpt lat="44.47877" lon="4.55776">
        <ele>199</ele>
        <time>2022-03-16T11:13:22Z</time>
      </trkpt>
      <trkpt lat="44.47878" lon="4.55778">
        <ele>199</ele>
        <time>2022-03-16T11:13:24Z</time>
      </trkpt>
      <trkpt lat="44.47878" lon="4.55782">
        <ele>199</ele>
        <time>2022-03-16T11:13:27Z</time>
      </trkpt>
      <trkpt lat="44.47876" lon="4.55783">
        <ele>199</ele>
        <time>2022-03-16T11:13:29Z</time>
      </trkpt>
      <trkpt lat="44.47874" lon="4.55783">
        <ele>200</ele>
        <time>2022-03-16T11:13:31Z</time>
      </trkpt>
      <trkpt lat="44.47869" lon="4.55787">
        <ele>200</ele>
        <time>2022-03-16T11:13:35Z</time>
      </trkpt>
      <trkpt lat="44.47867" lon="4.55789">
        <ele>199</ele>
        <time>2022-03-16T11:13:38Z</time>
      </trkpt>
      <trkpt lat="44.47865" lon="4.55791">
        <ele>198</ele>
        <time>2022-03-16T11:13:40Z</time>
      </trkpt>
      <trkpt lat="44.47864" lon="4.55794">
        <ele>201</ele>
        <time>2022-03-16T11:14:08Z</time>
      </trkpt>
      <trkpt lat="44.47857" lon="4.558">
        <ele>202</ele>
        <time>2022-03-16T11:14:14Z</time>
      </trkpt>
      <trkpt lat="44.4785" lon="4.55806">
        <ele>202</ele>
        <time>2022-03-16T11:14:21Z</time>
      </trkpt>
      <trkpt lat="44.47848" lon="4.55809">
        <ele>202</ele>
        <time>2022-03-16T11:14:23Z</time>
      </trkpt>
      <trkpt lat="44.47841" lon="4.5582">
        <ele>204</ele>
        <time>2022-03-16T11:14:31Z</time>
      </trkpt>
      <trkpt lat="44.47838" lon="4.55826">
        <ele>205</ele>
        <time>2022-03-16T11:14:35Z</time>
      </trkpt>
      <trkpt lat="44.47837" lon="4.5583">
        <ele>205</ele>
        <time>2022-03-16T11:14:37Z</time>
      </trkpt>
      <trkpt lat="44.47834" lon="4.55836">
        <ele>204</ele>
        <time>2022-03-16T11:14:41Z</time>
      </trkpt>
      <trkpt lat="44.47833" lon="4.55839">
        <ele>204</ele>
        <time>2022-03-16T11:14:43Z</time>
      </trkpt>
      <trkpt lat="44.47829" lon="4.55843">
        <ele>204</ele>
        <time>2022-03-16T11:14:47Z</time>
      </trkpt>
      <trkpt lat="44.47829" lon="4.55847">
        <ele>204</ele>
        <time>2022-03-16T11:14:49Z</time>
      </trkpt>
      <trkpt lat="44.47832" lon="4.55853">
        <ele>203</ele>
        <time>2022-03-16T11:14:53Z</time>
      </trkpt>
      <trkpt lat="44.47835" lon="4.55854">
        <ele>203</ele>
        <time>2022-03-16T11:14:56Z</time>
      </trkpt>
      <trkpt lat="44.47838" lon="4.55853">
        <ele>204</ele>
        <time>2022-03-16T11:14:59Z</time>
      </trkpt>
      <trkpt lat="44.4784" lon="4.5585">
        <ele>204</ele>
        <time>2022-03-16T11:15:02Z</time>
      </trkpt>
      <trkpt lat="44.47842" lon="4.55847">
        <ele>205</ele>
        <time>2022-03-16T11:15:04Z</time>
      </trkpt>
      <trkpt lat="44.47843" lon="4.55844">
        <ele>206</ele>
        <time>2022-03-16T11:15:06Z</time>
      </trkpt>
      <trkpt lat="44.47846" lon="4.55838">
        <ele>206</ele>
        <time>2022-03-16T11:15:10Z</time>
      </trkpt>
      <trkpt lat="44.47847" lon="4.55834">
        <ele>207</ele>
        <time>2022-03-16T11:15:12Z</time>
      </trkpt>
      <trkpt lat="44.47849" lon="4.5583">
        <ele>207</ele>
        <time>2022-03-16T11:15:15Z</time>
      </trkpt>
      <trkpt lat="44.47853" lon="4.55823">
        <ele>207</ele>
        <time>2022-03-16T11:15:21Z</time>
      </trkpt>
      <trkpt lat="44.47855" lon="4.55821">
        <ele>208</ele>
        <time>2022-03-16T11:15:24Z</time>
      </trkpt>
      <trkpt lat="44.47857" lon="4.5582">
        <ele>208</ele>
        <time>2022-03-16T11:15:45Z</time>
      </trkpt>
      <trkpt lat="44.47864" lon="4.55818">
        <ele>209</ele>
        <time>2022-03-16T11:15:51Z</time>
      </trkpt>
      <trkpt lat="44.47873" lon="4.5582">
        <ele>210</ele>
        <time>2022-03-16T11:16:00Z</time>
      </trkpt>
      <trkpt lat="44.47875" lon="4.55822">
        <ele>209</ele>
        <time>2022-03-16T11:16:02Z</time>
      </trkpt>
      <trkpt lat="44.47876" lon="4.55824">
        <ele>210</ele>
        <time>2022-03-16T11:16:04Z</time>
      </trkpt>
      <trkpt lat="44.47878" lon="4.55826">
        <ele>211</ele>
        <time>2022-03-16T11:16:07Z</time>
      </trkpt>
      <trkpt lat="44.4788" lon="4.55828">
        <ele>211</ele>
        <time>2022-03-16T11:16:10Z</time>
      </trkpt>
      <trkpt lat="44.4788" lon="4.55831">
        <ele>211</ele>
        <time>2022-03-16T11:16:12Z</time>
      </trkpt>
      <trkpt lat="44.47881" lon="4.55845">
        <ele>213</ele>
        <time>2022-03-16T11:16:21Z</time>
      </trkpt>
      <trkpt lat="44.47877" lon="4.55858">
        <ele>214</ele>
        <time>2022-03-16T11:16:29Z</time>
      </trkpt>
      <trkpt lat="44.47873" lon="4.55864">
        <ele>216</ele>
        <time>2022-03-16T11:16:36Z</time>
      </trkpt>
      <trkpt lat="44.47871" lon="4.55872">
        <ele>220</ele>
        <time>2022-03-16T11:16:42Z</time>
      </trkpt>
      <trkpt lat="44.47868" lon="4.55877">
        <ele>219</ele>
        <time>2022-03-16T11:16:45Z</time>
      </trkpt>
      <trkpt lat="44.47868" lon="4.55877">
        <ele>218</ele>
        <time>2022-03-16T11:16:54Z</time>
      </trkpt>
      <trkpt lat="44.47863" lon="4.55887">
        <ele>217</ele>
        <time>2022-03-16T11:17:05Z</time>
      </trkpt>
      <trkpt lat="44.47861" lon="4.5589">
        <ele>217</ele>
        <time>2022-03-16T11:17:08Z</time>
      </trkpt>
      <trkpt lat="44.4786" lon="4.55893">
        <ele>217</ele>
        <time>2022-03-16T11:17:10Z</time>
      </trkpt>
      <trkpt lat="44.47858" lon="4.55895">
        <ele>217</ele>
        <time>2022-03-16T11:17:12Z</time>
      </trkpt>
      <trkpt lat="44.47848" lon="4.55908">
        <ele>219</ele>
        <time>2022-03-16T11:17:23Z</time>
      </trkpt>
      <trkpt lat="44.47845" lon="4.5591">
        <ele>219</ele>
        <time>2022-03-16T11:17:25Z</time>
      </trkpt>
      <trkpt lat="44.47844" lon="4.55913">
        <ele>220</ele>
        <time>2022-03-16T11:17:27Z</time>
      </trkpt>
      <trkpt lat="44.4784" lon="4.55918">
        <ele>220</ele>
        <time>2022-03-16T11:17:32Z</time>
      </trkpt>
      <trkpt lat="44.47836" lon="4.55925">
        <ele>219</ele>
        <time>2022-03-16T11:17:38Z</time>
      </trkpt>
      <trkpt lat="44.47819" lon="4.55938">
        <ele>221</ele>
        <time>2022-03-16T11:17:53Z</time>
      </trkpt>
      <trkpt lat="44.47818" lon="4.5594">
        <ele>222</ele>
        <time>2022-03-16T11:17:55Z</time>
      </trkpt>
      <trkpt lat="44.47816" lon="4.55946">
        <ele>222</ele>
        <time>2022-03-16T11:18:00Z</time>
      </trkpt>
      <trkpt lat="44.47815" lon="4.55942">
        <ele>221</ele>
        <time>2022-03-16T11:19:08Z</time>
      </trkpt>
      <trkpt lat="44.47809" lon="4.55945">
        <ele>222</ele>
        <time>2022-03-16T11:19:14Z</time>
      </trkpt>
      <trkpt lat="44.47805" lon="4.55942">
        <ele>222</ele>
        <time>2022-03-16T11:19:23Z</time>
      </trkpt>
      <trkpt lat="44.47802" lon="4.55938">
        <ele>221</ele>
        <time>2022-03-16T11:19:28Z</time>
      </trkpt>
      <trkpt lat="44.47797" lon="4.55936">
        <ele>221</ele>
        <time>2022-03-16T11:19:53Z</time>
      </trkpt>
      <trkpt lat="44.47793" lon="4.55935">
        <ele>223</ele>
        <time>2022-03-16T11:19:57Z</time>
      </trkpt>
      <trkpt lat="44.47782" lon="4.55935">
        <ele>223</ele>
        <time>2022-03-16T11:20:04Z</time>
      </trkpt>
      <trkpt lat="44.47778" lon="4.55939">
        <ele>224</ele>
        <time>2022-03-16T11:20:07Z</time>
      </trkpt>
      <trkpt lat="44.47766" lon="4.55944">
        <ele>224</ele>
        <time>2022-03-16T11:20:18Z</time>
      </trkpt>
      <trkpt lat="44.47757" lon="4.55941">
        <ele>224</ele>
        <time>2022-03-16T11:20:25Z</time>
      </trkpt>
      <trkpt lat="44.47753" lon="4.55942">
        <ele>224</ele>
        <time>2022-03-16T11:20:29Z</time>
      </trkpt>
      <trkpt lat="44.47735" lon="4.55943">
        <ele>225</ele>
        <time>2022-03-16T11:20:43Z</time>
      </trkpt>
      <trkpt lat="44.47732" lon="4.55944">
        <ele>225</ele>
        <time>2022-03-16T11:20:46Z</time>
      </trkpt>
      <trkpt lat="44.47727" lon="4.55944">
        <ele>224</ele>
        <time>2022-03-16T11:20:49Z</time>
      </trkpt>
      <trkpt lat="44.47721" lon="4.55946">
        <ele>224</ele>
        <time>2022-03-16T11:20:58Z</time>
      </trkpt>
      <trkpt lat="44.47718" lon="4.55949">
        <ele>225</ele>
        <time>2022-03-16T11:21:05Z</time>
      </trkpt>
      <trkpt lat="44.47715" lon="4.55948">
        <ele>226</ele>
        <time>2022-03-16T11:21:10Z</time>
      </trkpt>
      <trkpt lat="44.47712" lon="4.55944">
        <ele>226</ele>
        <time>2022-03-16T11:21:14Z</time>
      </trkpt>
      <trkpt lat="44.47711" lon="4.55938">
        <ele>226</ele>
        <time>2022-03-16T11:21:18Z</time>
      </trkpt>
      <trkpt lat="44.47712" lon="4.55926">
        <ele>228</ele>
        <time>2022-03-16T11:21:25Z</time>
      </trkpt>
      <trkpt lat="44.47714" lon="4.55911">
        <ele>230</ele>
        <time>2022-03-16T11:21:33Z</time>
      </trkpt>
      <trkpt lat="44.47713" lon="4.55905">
        <ele>230</ele>
        <time>2022-03-16T11:21:37Z</time>
      </trkpt>
      <trkpt lat="44.47704" lon="4.55888">
        <ele>230</ele>
        <time>2022-03-16T11:21:49Z</time>
      </trkpt>
      <trkpt lat="44.47695" lon="4.55873">
        <ele>232</ele>
        <time>2022-03-16T11:22:08Z</time>
      </trkpt>
      <trkpt lat="44.47683" lon="4.55868">
        <ele>232</ele>
        <time>2022-03-16T11:22:21Z</time>
      </trkpt>
      <trkpt lat="44.47679" lon="4.55867">
        <ele>233</ele>
        <time>2022-03-16T11:22:25Z</time>
      </trkpt>
      <trkpt lat="44.47674" lon="4.55864">
        <ele>233</ele>
        <time>2022-03-16T11:22:29Z</time>
      </trkpt>
      <trkpt lat="44.47669" lon="4.5586">
        <ele>233</ele>
        <time>2022-03-16T11:22:33Z</time>
      </trkpt>
      <trkpt lat="44.47666" lon="4.5586">
        <ele>233</ele>
        <time>2022-03-16T11:22:36Z</time>
      </trkpt>
      <trkpt lat="44.4766" lon="4.55856">
        <ele>233</ele>
        <time>2022-03-16T11:22:41Z</time>
      </trkpt>
      <trkpt lat="44.47657" lon="4.55853">
        <ele>233</ele>
        <time>2022-03-16T11:22:44Z</time>
      </trkpt>
      <trkpt lat="44.47654" lon="4.55852">
        <ele>232</ele>
        <time>2022-03-16T11:22:47Z</time>
      </trkpt>
      <trkpt lat="44.47653" lon="4.5585">
        <ele>233</ele>
        <time>2022-03-16T11:22:52Z</time>
      </trkpt>
      <trkpt lat="44.47651" lon="4.55849">
        <ele>233</ele>
        <time>2022-03-16T11:23:11Z</time>
      </trkpt>
      <trkpt lat="44.47642" lon="4.55843">
        <ele>235</ele>
        <time>2022-03-16T11:23:19Z</time>
      </trkpt>
      <trkpt lat="44.4764" lon="4.5584">
        <ele>235</ele>
        <time>2022-03-16T11:23:21Z</time>
      </trkpt>
      <trkpt lat="44.47637" lon="4.55838">
        <ele>235</ele>
        <time>2022-03-16T11:23:23Z</time>
      </trkpt>
      <trkpt lat="44.47634" lon="4.55839">
        <ele>235</ele>
        <time>2022-03-16T11:23:26Z</time>
      </trkpt>
      <trkpt lat="44.47622" lon="4.55837">
        <ele>238</ele>
        <time>2022-03-16T11:23:39Z</time>
      </trkpt>
      <trkpt lat="44.4762" lon="4.55836">
        <ele>238</ele>
        <time>2022-03-16T11:23:42Z</time>
      </trkpt>
      <trkpt lat="44.47618" lon="4.55839">
        <ele>239</ele>
        <time>2022-03-16T11:23:50Z</time>
      </trkpt>
      <trkpt lat="44.47611" lon="4.5584">
        <ele>241</ele>
        <time>2022-03-16T11:24:07Z</time>
      </trkpt>
      <trkpt lat="44.476" lon="4.55839">
        <ele>242</ele>
        <time>2022-03-16T11:24:17Z</time>
      </trkpt>
      <trkpt lat="44.47601" lon="4.55839">
        <ele>242</ele>
        <time>2022-03-16T11:24:28Z</time>
      </trkpt>
      <trkpt lat="44.47613" lon="4.55838">
        <ele>242</ele>
        <time>2022-03-16T11:24:39Z</time>
      </trkpt>
      <trkpt lat="44.47612" lon="4.55841">
        <ele>244</ele>
        <time>2022-03-16T11:26:38Z</time>
      </trkpt>
      <trkpt lat="44.47615" lon="4.55841">
        <ele>242</ele>
        <time>2022-03-16T11:27:37Z</time>
      </trkpt>
      <trkpt lat="44.47614" lon="4.5584">
        <ele>243</ele>
        <time>2022-03-16T11:33:23Z</time>
      </trkpt>
      <trkpt lat="44.47614" lon="4.55841">
        <ele>244</ele>
        <time>2022-03-16T11:34:52Z</time>
      </trkpt>
      <trkpt lat="44.47613" lon="4.55842">
        <ele>243</ele>
        <time>2022-03-16T11:36:17Z</time>
      </trkpt>
      <trkpt lat="44.47612" lon="4.55841">
        <ele>245</ele>
        <time>2022-03-16T11:40:45Z</time>
      </trkpt>
      <trkpt lat="44.47612" lon="4.55838">
        <ele>245</ele>
        <time>2022-03-16T11:41:42Z</time>
      </trkpt>
      <trkpt lat="44.47611" lon="4.55837">
        <ele>242</ele>
        <time>2022-03-16T11:44:09Z</time>
      </trkpt>
      <trkpt lat="44.47611" lon="4.55838">
        <ele>242</ele>
        <time>2022-03-16T11:44:25Z</time>
      </trkpt>
      <trkpt lat="44.47614" lon="4.5584">
        <ele>242</ele>
        <time>2022-03-16T11:44:32Z</time>
      </trkpt>
      <trkpt lat="44.47614" lon="4.55836">
        <ele>233</ele>
        <time>2022-03-16T11:45:23Z</time>
      </trkpt>
      <trkpt lat="44.47612" lon="4.55838">
        <ele>236</ele>
        <time>2022-03-16T11:49:07Z</time>
      </trkpt>
      <trkpt lat="44.47613" lon="4.55837">
        <ele>233</ele>
        <time>2022-03-16T11:56:35Z</time>
      </trkpt>
      <trkpt lat="44.47616" lon="4.5584">
        <ele>233</ele>
        <time>2022-03-16T11:56:38Z</time>
      </trkpt>
      <trkpt lat="44.47618" lon="4.55843">
        <ele>235</ele>
        <time>2022-03-16T11:56:43Z</time>
      </trkpt>
      <trkpt lat="44.47618" lon="4.55847">
        <ele>236</ele>
        <time>2022-03-16T11:56:47Z</time>
      </trkpt>
      <trkpt lat="44.47619" lon="4.55849">
        <ele>237</ele>
        <time>2022-03-16T11:56:49Z</time>
      </trkpt>
      <trkpt lat="44.4762" lon="4.55852">
        <ele>236</ele>
        <time>2022-03-16T11:56:52Z</time>
      </trkpt>
      <trkpt lat="44.47623" lon="4.55856">
        <ele>236</ele>
        <time>2022-03-16T11:56:56Z</time>
      </trkpt>
      <trkpt lat="44.47623" lon="4.5586">
        <ele>236</ele>
        <time>2022-03-16T11:56:59Z</time>
      </trkpt>
      <trkpt lat="44.47624" lon="4.55862">
        <ele>236</ele>
        <time>2022-03-16T11:57:02Z</time>
      </trkpt>
      <trkpt lat="44.47625" lon="4.55872">
        <ele>236</ele>
        <time>2022-03-16T11:57:11Z</time>
      </trkpt>
      <trkpt lat="44.47625" lon="4.55876">
        <ele>237</ele>
        <time>2022-03-16T11:57:18Z</time>
      </trkpt>
      <trkpt lat="44.47625" lon="4.55881">
        <ele>238</ele>
        <time>2022-03-16T11:57:22Z</time>
      </trkpt>
      <trkpt lat="44.47627" lon="4.55885">
        <ele>238</ele>
        <time>2022-03-16T11:57:26Z</time>
      </trkpt>
      <trkpt lat="44.47628" lon="4.55889">
        <ele>238</ele>
        <time>2022-03-16T11:57:30Z</time>
      </trkpt>
      <trkpt lat="44.47631" lon="4.55897">
        <ele>240</ele>
        <time>2022-03-16T11:57:58Z</time>
      </trkpt>
      <trkpt lat="44.47633" lon="4.559">
        <ele>240</ele>
        <time>2022-03-16T11:58:01Z</time>
      </trkpt>
      <trkpt lat="44.47633" lon="4.55905">
        <ele>240</ele>
        <time>2022-03-16T11:58:06Z</time>
      </trkpt>
      <trkpt lat="44.47634" lon="4.55908">
        <ele>240</ele>
        <time>2022-03-16T11:58:09Z</time>
      </trkpt>
      <trkpt lat="44.47635" lon="4.55911">
        <ele>241</ele>
        <time>2022-03-16T11:58:14Z</time>
      </trkpt>
      <trkpt lat="44.47636" lon="4.5592">
        <ele>240</ele>
        <time>2022-03-16T11:58:23Z</time>
      </trkpt>
      <trkpt lat="44.47634" lon="4.55923">
        <ele>240</ele>
        <time>2022-03-16T11:58:36Z</time>
      </trkpt>
      <trkpt lat="44.47633" lon="4.5593">
        <ele>243</ele>
        <time>2022-03-16T11:58:45Z</time>
      </trkpt>
      <trkpt lat="44.47633" lon="4.55936">
        <ele>244</ele>
        <time>2022-03-16T11:58:49Z</time>
      </trkpt>
      <trkpt lat="44.47632" lon="4.55939">
        <ele>244</ele>
        <time>2022-03-16T11:58:56Z</time>
      </trkpt>
      <trkpt lat="44.4763" lon="4.55953">
        <ele>245</ele>
        <time>2022-03-16T11:59:09Z</time>
      </trkpt>
      <trkpt lat="44.4763" lon="4.55957">
        <ele>246</ele>
        <time>2022-03-16T11:59:13Z</time>
      </trkpt>
      <trkpt lat="44.47628" lon="4.5596">
        <ele>247</ele>
        <time>2022-03-16T11:59:18Z</time>
      </trkpt>
      <trkpt lat="44.47626" lon="4.55963">
        <ele>247</ele>
        <time>2022-03-16T11:59:24Z</time>
      </trkpt>
      <trkpt lat="44.47623" lon="4.55965">
        <ele>247</ele>
        <time>2022-03-16T11:59:29Z</time>
      </trkpt>
      <trkpt lat="44.47616" lon="4.55972">
        <ele>250</ele>
        <time>2022-03-16T11:59:43Z</time>
      </trkpt>
      <trkpt lat="44.47614" lon="4.55972">
        <ele>251</ele>
        <time>2022-03-16T11:59:46Z</time>
      </trkpt>
      <trkpt lat="44.47612" lon="4.55975">
        <ele>252</ele>
        <time>2022-03-16T11:59:49Z</time>
      </trkpt>
      <trkpt lat="44.47608" lon="4.55976">
        <ele>253</ele>
        <time>2022-03-16T11:59:55Z</time>
      </trkpt>
      <trkpt lat="44.47603" lon="4.55979">
        <ele>255</ele>
        <time>2022-03-16T12:00:03Z</time>
      </trkpt>
      <trkpt lat="44.47601" lon="4.55982">
        <ele>258</ele>
        <time>2022-03-16T12:00:09Z</time>
      </trkpt>
      <trkpt lat="44.47598" lon="4.55987">
        <ele>260</ele>
        <time>2022-03-16T12:00:16Z</time>
      </trkpt>
      <trkpt lat="44.47595" lon="4.55988">
        <ele>260</ele>
        <time>2022-03-16T12:00:20Z</time>
      </trkpt>
      <trkpt lat="44.47593" lon="4.5599">
        <ele>259</ele>
        <time>2022-03-16T12:00:23Z</time>
      </trkpt>
      <trkpt lat="44.47589" lon="4.55994">
        <ele>259</ele>
        <time>2022-03-16T12:00:29Z</time>
      </trkpt>
      <trkpt lat="44.47585" lon="4.55997">
        <ele>259</ele>
        <time>2022-03-16T12:00:36Z</time>
      </trkpt>
      <trkpt lat="44.4758" lon="4.56008">
        <ele>261</ele>
        <time>2022-03-16T12:00:49Z</time>
      </trkpt>
      <trkpt lat="44.47575" lon="4.56015">
        <ele>261</ele>
        <time>2022-03-16T12:00:57Z</time>
      </trkpt>
      <trkpt lat="44.47575" lon="4.56018">
        <ele>261</ele>
        <time>2022-03-16T12:01:00Z</time>
      </trkpt>
      <trkpt lat="44.47573" lon="4.56027">
        <ele>263</ele>
        <time>2022-03-16T12:01:09Z</time>
      </trkpt>
      <trkpt lat="44.47567" lon="4.56036">
        <ele>263</ele>
        <time>2022-03-16T12:01:22Z</time>
      </trkpt>
      <trkpt lat="44.47561" lon="4.56041">
        <ele>264</ele>
        <time>2022-03-16T12:01:31Z</time>
      </trkpt>
      <trkpt lat="44.47557" lon="4.56048">
        <ele>265</ele>
        <time>2022-03-16T12:01:41Z</time>
      </trkpt>
      <trkpt lat="44.47556" lon="4.56051">
        <ele>267</ele>
        <time>2022-03-16T12:01:45Z</time>
      </trkpt>
      <trkpt lat="44.47554" lon="4.56053">
        <ele>268</ele>
        <time>2022-03-16T12:01:49Z</time>
      </trkpt>
      <trkpt lat="44.47552" lon="4.56056">
        <ele>268</ele>
        <time>2022-03-16T12:01:55Z</time>
      </trkpt>
      <trkpt lat="44.47547" lon="4.56062">
        <ele>270</ele>
        <time>2022-03-16T12:02:05Z</time>
      </trkpt>
      <trkpt lat="44.47546" lon="4.56064">
        <ele>270</ele>
        <time>2022-03-16T12:02:07Z</time>
      </trkpt>
      <trkpt lat="44.4754" lon="4.56069">
        <ele>270</ele>
        <time>2022-03-16T12:02:17Z</time>
      </trkpt>
      <trkpt lat="44.47539" lon="4.56071">
        <ele>271</ele>
        <time>2022-03-16T12:02:20Z</time>
      </trkpt>
      <trkpt lat="44.47537" lon="4.56073">
        <ele>272</ele>
        <time>2022-03-16T12:02:24Z</time>
      </trkpt>
      <trkpt lat="44.4753" lon="4.5608">
        <ele>273</ele>
        <time>2022-03-16T12:02:36Z</time>
      </trkpt>
      <trkpt lat="44.47531" lon="4.5608">
        <ele>275</ele>
        <time>2022-03-16T12:03:35Z</time>
      </trkpt>
      <trkpt lat="44.4753" lon="4.56083">
        <ele>275</ele>
        <time>2022-03-16T12:03:38Z</time>
      </trkpt>
      <trkpt lat="44.47528" lon="4.56085">
        <ele>275</ele>
        <time>2022-03-16T12:03:41Z</time>
      </trkpt>
      <trkpt lat="44.47526" lon="4.56087">
        <ele>279</ele>
        <time>2022-03-16T12:03:44Z</time>
      </trkpt>
      <trkpt lat="44.47522" lon="4.56096">
        <ele>279</ele>
        <time>2022-03-16T12:03:52Z</time>
      </trkpt>
      <trkpt lat="44.4752" lon="4.56097">
        <ele>280</ele>
        <time>2022-03-16T12:03:56Z</time>
      </trkpt>
      <trkpt lat="44.47518" lon="4.56099">
        <ele>281</ele>
        <time>2022-03-16T12:04:01Z</time>
      </trkpt>
      <trkpt lat="44.47517" lon="4.56101">
        <ele>283</ele>
        <time>2022-03-16T12:04:04Z</time>
      </trkpt>
      <trkpt lat="44.47515" lon="4.56102">
        <ele>283</ele>
        <time>2022-03-16T12:04:09Z</time>
      </trkpt>
      <trkpt lat="44.47513" lon="4.56104">
        <ele>281</ele>
        <time>2022-03-16T12:04:12Z</time>
      </trkpt>
      <trkpt lat="44.47508" lon="4.56106">
        <ele>283</ele>
        <time>2022-03-16T12:04:21Z</time>
      </trkpt>
      <trkpt lat="44.47506" lon="4.56108">
        <ele>283</ele>
        <time>2022-03-16T12:04:24Z</time>
      </trkpt>
      <trkpt lat="44.47505" lon="4.56111">
        <ele>284</ele>
        <time>2022-03-16T12:04:28Z</time>
      </trkpt>
      <trkpt lat="44.47503" lon="4.56119">
        <ele>283</ele>
        <time>2022-03-16T12:04:38Z</time>
      </trkpt>
      <trkpt lat="44.47502" lon="4.56121">
        <ele>283</ele>
        <time>2022-03-16T12:04:41Z</time>
      </trkpt>
      <trkpt lat="44.475" lon="4.56125">
        <ele>284</ele>
        <time>2022-03-16T12:04:47Z</time>
      </trkpt>
      <trkpt lat="44.47495" lon="4.56136">
        <ele>285</ele>
        <time>2022-03-16T12:05:03Z</time>
      </trkpt>
      <trkpt lat="44.47491" lon="4.5614">
        <ele>286</ele>
        <time>2022-03-16T12:05:15Z</time>
      </trkpt>
      <trkpt lat="44.47489" lon="4.56143">
        <ele>288</ele>
        <time>2022-03-16T12:05:19Z</time>
      </trkpt>
      <trkpt lat="44.47487" lon="4.56143">
        <ele>288</ele>
        <time>2022-03-16T12:05:24Z</time>
      </trkpt>
      <trkpt lat="44.47485" lon="4.56145">
        <ele>290</ele>
        <time>2022-03-16T12:05:28Z</time>
      </trkpt>
      <trkpt lat="44.47484" lon="4.56147">
        <ele>291</ele>
        <time>2022-03-16T12:05:35Z</time>
      </trkpt>
      <trkpt lat="44.47482" lon="4.56149">
        <ele>291</ele>
        <time>2022-03-16T12:05:38Z</time>
      </trkpt>
      <trkpt lat="44.47482" lon="4.56151">
        <ele>292</ele>
        <time>2022-03-16T12:05:41Z</time>
      </trkpt>
      <trkpt lat="44.4748" lon="4.56158">
        <ele>292</ele>
        <time>2022-03-16T12:05:50Z</time>
      </trkpt>
      <trkpt lat="44.47479" lon="4.5616">
        <ele>293</ele>
        <time>2022-03-16T12:05:56Z</time>
      </trkpt>
      <trkpt lat="44.47475" lon="4.56162">
        <ele>293</ele>
        <time>2022-03-16T12:06:05Z</time>
      </trkpt>
      <trkpt lat="44.47473" lon="4.56164">
        <ele>293</ele>
        <time>2022-03-16T12:06:08Z</time>
      </trkpt>
      <trkpt lat="44.47472" lon="4.56165">
        <ele>294</ele>
        <time>2022-03-16T12:06:14Z</time>
      </trkpt>
      <trkpt lat="44.4747" lon="4.56165">
        <ele>294</ele>
        <time>2022-03-16T12:06:17Z</time>
      </trkpt>
      <trkpt lat="44.47468" lon="4.56167">
        <ele>295</ele>
        <time>2022-03-16T12:06:20Z</time>
      </trkpt>
      <trkpt lat="44.47466" lon="4.56168">
        <ele>295</ele>
        <time>2022-03-16T12:06:23Z</time>
      </trkpt>
      <trkpt lat="44.47465" lon="4.5617">
        <ele>297</ele>
        <time>2022-03-16T12:06:30Z</time>
      </trkpt>
      <trkpt lat="44.47463" lon="4.56171">
        <ele>298</ele>
        <time>2022-03-16T12:06:33Z</time>
      </trkpt>
      <trkpt lat="44.47465" lon="4.56173">
        <ele>299</ele>
        <time>2022-03-16T12:06:47Z</time>
      </trkpt>
      <trkpt lat="44.47464" lon="4.56175">
        <ele>304</ele>
        <time>2022-03-16T12:08:14Z</time>
      </trkpt>
      <trkpt lat="44.4746" lon="4.56178">
        <ele>303</ele>
        <time>2022-03-16T12:08:19Z</time>
      </trkpt>
      <trkpt lat="44.47456" lon="4.56188">
        <ele>303</ele>
        <time>2022-03-16T12:08:35Z</time>
      </trkpt>
      <trkpt lat="44.47456" lon="4.56191">
        <ele>303</ele>
        <time>2022-03-16T12:08:38Z</time>
      </trkpt>
      <trkpt lat="44.47458" lon="4.56193">
        <ele>303</ele>
        <time>2022-03-16T12:08:46Z</time>
      </trkpt>
      <trkpt lat="44.47458" lon="4.56201">
        <ele>305</ele>
        <time>2022-03-16T12:08:59Z</time>
      </trkpt>
      <trkpt lat="44.47459" lon="4.56203">
        <ele>306</ele>
        <time>2022-03-16T12:09:03Z</time>
      </trkpt>
      <trkpt lat="44.47455" lon="4.56209">
        <ele>307</ele>
        <time>2022-03-16T12:09:11Z</time>
      </trkpt>
      <trkpt lat="44.47452" lon="4.56215">
        <ele>308</ele>
        <time>2022-03-16T12:09:18Z</time>
      </trkpt>
      <trkpt lat="44.47451" lon="4.56222">
        <ele>308</ele>
        <time>2022-03-16T12:09:24Z</time>
      </trkpt>
      <trkpt lat="44.47451" lon="4.56225">
        <ele>308</ele>
        <time>2022-03-16T12:09:27Z</time>
      </trkpt>
      <trkpt lat="44.47453" lon="4.56227">
        <ele>308</ele>
        <time>2022-03-16T12:09:29Z</time>
      </trkpt>
      <trkpt lat="44.47456" lon="4.56231">
        <ele>309</ele>
        <time>2022-03-16T12:09:34Z</time>
      </trkpt>
      <trkpt lat="44.47459" lon="4.56232">
        <ele>309</ele>
        <time>2022-03-16T12:09:37Z</time>
      </trkpt>
      <trkpt lat="44.47462" lon="4.56234">
        <ele>309</ele>
        <time>2022-03-16T12:09:40Z</time>
      </trkpt>
      <trkpt lat="44.47463" lon="4.56235">
        <ele>310</ele>
        <time>2022-03-16T12:09:43Z</time>
      </trkpt>
      <trkpt lat="44.4747" lon="4.56241">
        <ele>311</ele>
        <time>2022-03-16T12:09:54Z</time>
      </trkpt>
      <trkpt lat="44.47473" lon="4.56243">
        <ele>311</ele>
        <time>2022-03-16T12:09:57Z</time>
      </trkpt>
      <trkpt lat="44.4748" lon="4.56247">
        <ele>313</ele>
        <time>2022-03-16T12:10:07Z</time>
      </trkpt>
      <trkpt lat="44.47483" lon="4.56248">
        <ele>314</ele>
        <time>2022-03-16T12:10:11Z</time>
      </trkpt>
      <trkpt lat="44.47498" lon="4.56257">
        <ele>315</ele>
        <time>2022-03-16T12:10:33Z</time>
      </trkpt>
      <trkpt lat="44.47502" lon="4.56262">
        <ele>316</ele>
        <time>2022-03-16T12:10:39Z</time>
      </trkpt>
      <trkpt lat="44.47505" lon="4.56262">
        <ele>316</ele>
        <time>2022-03-16T12:10:42Z</time>
      </trkpt>
      <trkpt lat="44.4751" lon="4.56264">
        <ele>316</ele>
        <time>2022-03-16T12:10:47Z</time>
      </trkpt>
      <trkpt lat="44.47512" lon="4.56266">
        <ele>315</ele>
        <time>2022-03-16T12:10:50Z</time>
      </trkpt>
      <trkpt lat="44.47518" lon="4.56273">
        <ele>317</ele>
        <time>2022-03-16T12:10:59Z</time>
      </trkpt>
      <trkpt lat="44.47527" lon="4.5628">
        <ele>317</ele>
        <time>2022-03-16T12:11:09Z</time>
      </trkpt>
      <trkpt lat="44.47531" lon="4.56281">
        <ele>318</ele>
        <time>2022-03-16T12:11:12Z</time>
      </trkpt>
      <trkpt lat="44.47533" lon="4.56283">
        <ele>318</ele>
        <time>2022-03-16T12:11:16Z</time>
      </trkpt>
      <trkpt lat="44.47535" lon="4.56287">
        <ele>320</ele>
        <time>2022-03-16T12:11:20Z</time>
      </trkpt>
      <trkpt lat="44.47532" lon="4.56287">
        <ele>318</ele>
        <time>2022-03-16T12:12:48Z</time>
      </trkpt>
      <trkpt lat="44.47529" lon="4.5629">
        <ele>316</ele>
        <time>2022-03-16T12:12:52Z</time>
      </trkpt>
      <trkpt lat="44.47526" lon="4.56293">
        <ele>317</ele>
        <time>2022-03-16T12:12:57Z</time>
      </trkpt>
      <trkpt lat="44.47526" lon="4.56297">
        <ele>319</ele>
        <time>2022-03-16T12:13:05Z</time>
      </trkpt>
      <trkpt lat="44.47523" lon="4.56301">
        <ele>319</ele>
        <time>2022-03-16T12:13:08Z</time>
      </trkpt>
      <trkpt lat="44.4752" lon="4.56304">
        <ele>320</ele>
        <time>2022-03-16T12:13:16Z</time>
      </trkpt>
      <trkpt lat="44.47519" lon="4.5631">
        <ele>320</ele>
        <time>2022-03-16T12:13:33Z</time>
      </trkpt>
      <trkpt lat="44.47517" lon="4.56314">
        <ele>320</ele>
        <time>2022-03-16T12:13:36Z</time>
      </trkpt>
      <trkpt lat="44.47514" lon="4.56318">
        <ele>320</ele>
        <time>2022-03-16T12:13:40Z</time>
      </trkpt>
      <trkpt lat="44.47512" lon="4.56329">
        <ele>321</ele>
        <time>2022-03-16T12:13:48Z</time>
      </trkpt>
      <trkpt lat="44.47511" lon="4.56341">
        <ele>320</ele>
        <time>2022-03-16T12:13:57Z</time>
      </trkpt>
      <trkpt lat="44.47509" lon="4.56347">
        <ele>321</ele>
        <time>2022-03-16T12:14:02Z</time>
      </trkpt>
      <trkpt lat="44.47508" lon="4.56357">
        <ele>321</ele>
        <time>2022-03-16T12:14:09Z</time>
      </trkpt>
      <trkpt lat="44.47505" lon="4.56368">
        <ele>322</ele>
        <time>2022-03-16T12:14:17Z</time>
      </trkpt>
      <trkpt lat="44.47496" lon="4.56388">
        <ele>324</ele>
        <time>2022-03-16T12:14:34Z</time>
      </trkpt>
      <trkpt lat="44.47494" lon="4.56392">
        <ele>323</ele>
        <time>2022-03-16T12:14:38Z</time>
      </trkpt>
      <trkpt lat="44.47492" lon="4.56394">
        <ele>323</ele>
        <time>2022-03-16T12:14:41Z</time>
      </trkpt>
      <trkpt lat="44.4749" lon="4.56397">
        <ele>323</ele>
        <time>2022-03-16T12:14:44Z</time>
      </trkpt>
      <trkpt lat="44.47487" lon="4.56399">
        <ele>323</ele>
        <time>2022-03-16T12:14:53Z</time>
      </trkpt>
      <trkpt lat="44.47485" lon="4.56407">
        <ele>324</ele>
        <time>2022-03-16T12:14:59Z</time>
      </trkpt>
      <trkpt lat="44.47484" lon="4.56411">
        <ele>325</ele>
        <time>2022-03-16T12:15:02Z</time>
      </trkpt>
      <trkpt lat="44.47469" lon="4.56426">
        <ele>328</ele>
        <time>2022-03-16T12:15:24Z</time>
      </trkpt>
      <trkpt lat="44.47465" lon="4.56429">
        <ele>328</ele>
        <time>2022-03-16T12:15:28Z</time>
      </trkpt>
      <trkpt lat="44.47462" lon="4.56431">
        <ele>329</ele>
        <time>2022-03-16T12:15:31Z</time>
      </trkpt>
      <trkpt lat="44.4746" lon="4.56433">
        <ele>330</ele>
        <time>2022-03-16T12:15:34Z</time>
      </trkpt>
      <trkpt lat="44.47458" lon="4.56434">
        <ele>330</ele>
        <time>2022-03-16T12:15:37Z</time>
      </trkpt>
      <trkpt lat="44.47454" lon="4.5644">
        <ele>333</ele>
        <time>2022-03-16T12:15:44Z</time>
      </trkpt>
      <trkpt lat="44.47452" lon="4.56442">
        <ele>333</ele>
        <time>2022-03-16T12:15:47Z</time>
      </trkpt>
      <trkpt lat="44.47449" lon="4.56444">
        <ele>333</ele>
        <time>2022-03-16T12:15:50Z</time>
      </trkpt>
      <trkpt lat="44.47446" lon="4.56446">
        <ele>333</ele>
        <time>2022-03-16T12:15:53Z</time>
      </trkpt>
      <trkpt lat="44.47443" lon="4.56447">
        <ele>333</ele>
        <time>2022-03-16T12:15:56Z</time>
      </trkpt>
      <trkpt lat="44.47437" lon="4.56452">
        <ele>335</ele>
        <time>2022-03-16T12:16:06Z</time>
      </trkpt>
      <trkpt lat="44.47434" lon="4.56455">
        <ele>335</ele>
        <time>2022-03-16T12:16:09Z</time>
      </trkpt>
      <trkpt lat="44.47431" lon="4.56457">
        <ele>336</ele>
        <time>2022-03-16T12:16:13Z</time>
      </trkpt>
      <trkpt lat="44.47429" lon="4.56459">
        <ele>336</ele>
        <time>2022-03-16T12:16:17Z</time>
      </trkpt>
      <trkpt lat="44.47428" lon="4.56463">
        <ele>337</ele>
        <time>2022-03-16T12:17:19Z</time>
      </trkpt>
      <trkpt lat="44.47426" lon="4.56461">
        <ele>338</ele>
        <time>2022-03-16T12:17:24Z</time>
      </trkpt>
      <trkpt lat="44.47423" lon="4.56463">
        <ele>338</ele>
        <time>2022-03-16T12:17:28Z</time>
      </trkpt>
      <trkpt lat="44.47418" lon="4.56467">
        <ele>340</ele>
        <time>2022-03-16T12:17:36Z</time>
      </trkpt>
      <trkpt lat="44.47414" lon="4.56469">
        <ele>339</ele>
        <time>2022-03-16T12:17:40Z</time>
      </trkpt>
      <trkpt lat="44.47411" lon="4.56471">
        <ele>338</ele>
        <time>2022-03-16T12:17:46Z</time>
      </trkpt>
      <trkpt lat="44.47408" lon="4.56473">
        <ele>338</ele>
        <time>2022-03-16T12:17:50Z</time>
      </trkpt>
      <trkpt lat="44.47401" lon="4.56477">
        <ele>338</ele>
        <time>2022-03-16T12:17:59Z</time>
      </trkpt>
      <trkpt lat="44.47398" lon="4.56478">
        <ele>338</ele>
        <time>2022-03-16T12:18:03Z</time>
      </trkpt>
      <trkpt lat="44.47395" lon="4.5648">
        <ele>339</ele>
        <time>2022-03-16T12:18:08Z</time>
      </trkpt>
      <trkpt lat="44.47393" lon="4.56482">
        <ele>339</ele>
        <time>2022-03-16T12:18:12Z</time>
      </trkpt>
      <trkpt lat="44.4739" lon="4.56484">
        <ele>339</ele>
        <time>2022-03-16T12:18:16Z</time>
      </trkpt>
      <trkpt lat="44.47387" lon="4.56483">
        <ele>339</ele>
        <time>2022-03-16T12:18:20Z</time>
      </trkpt>
      <trkpt lat="44.47377" lon="4.5649">
        <ele>340</ele>
        <time>2022-03-16T12:18:34Z</time>
      </trkpt>
      <trkpt lat="44.47371" lon="4.56493">
        <ele>341</ele>
        <time>2022-03-16T12:18:44Z</time>
      </trkpt>
      <trkpt lat="44.47353" lon="4.56505">
        <ele>346</ele>
        <time>2022-03-16T12:19:17Z</time>
      </trkpt>
      <trkpt lat="44.47351" lon="4.56506">
        <ele>347</ele>
        <time>2022-03-16T12:19:20Z</time>
      </trkpt>
      <trkpt lat="44.47349" lon="4.56505">
        <ele>348</ele>
        <time>2022-03-16T12:19:23Z</time>
      </trkpt>
      <trkpt lat="44.47346" lon="4.56504">
        <ele>348</ele>
        <time>2022-03-16T12:19:27Z</time>
      </trkpt>
      <trkpt lat="44.47344" lon="4.56502">
        <ele>349</ele>
        <time>2022-03-16T12:19:31Z</time>
      </trkpt>
      <trkpt lat="44.47339" lon="4.56501">
        <ele>351</ele>
        <time>2022-03-16T12:19:39Z</time>
      </trkpt>
      <trkpt lat="44.47335" lon="4.56502">
        <ele>353</ele>
        <time>2022-03-16T12:19:45Z</time>
      </trkpt>
      <trkpt lat="44.47329" lon="4.56515">
        <ele>352</ele>
        <time>2022-03-16T12:19:57Z</time>
      </trkpt>
      <trkpt lat="44.47329" lon="4.56519">
        <ele>352</ele>
        <time>2022-03-16T12:20:00Z</time>
      </trkpt>
      <trkpt lat="44.47326" lon="4.56522">
        <ele>352</ele>
        <time>2022-03-16T12:20:05Z</time>
      </trkpt>
      <trkpt lat="44.47324" lon="4.56527">
        <ele>353</ele>
        <time>2022-03-16T12:20:09Z</time>
      </trkpt>
      <trkpt lat="44.47322" lon="4.5653">
        <ele>353</ele>
        <time>2022-03-16T12:20:12Z</time>
      </trkpt>
      <trkpt lat="44.47319" lon="4.56539">
        <ele>352</ele>
        <time>2022-03-16T12:20:20Z</time>
      </trkpt>
      <trkpt lat="44.47318" lon="4.56546">
        <ele>353</ele>
        <time>2022-03-16T12:20:27Z</time>
      </trkpt>
      <trkpt lat="44.47317" lon="4.56549">
        <ele>354</ele>
        <time>2022-03-16T12:20:30Z</time>
      </trkpt>
      <trkpt lat="44.47318" lon="4.56548">
        <ele>354</ele>
        <time>2022-03-16T12:20:51Z</time>
      </trkpt>
      <trkpt lat="44.4732" lon="4.56554">
        <ele>355</ele>
        <time>2022-03-16T12:21:13Z</time>
      </trkpt>
      <trkpt lat="44.47321" lon="4.56559">
        <ele>357</ele>
        <time>2022-03-16T12:21:16Z</time>
      </trkpt>
      <trkpt lat="44.47322" lon="4.56563">
        <ele>358</ele>
        <time>2022-03-16T12:21:20Z</time>
      </trkpt>
      <trkpt lat="44.47326" lon="4.56567">
        <ele>359</ele>
        <time>2022-03-16T12:21:29Z</time>
      </trkpt>
      <trkpt lat="44.47333" lon="4.5658">
        <ele>358</ele>
        <time>2022-03-16T12:21:38Z</time>
      </trkpt>
      <trkpt lat="44.47334" lon="4.56591">
        <ele>357</ele>
        <time>2022-03-16T12:21:44Z</time>
      </trkpt>
      <trkpt lat="44.47338" lon="4.566">
        <ele>358</ele>
        <time>2022-03-16T12:21:51Z</time>
      </trkpt>
      <trkpt lat="44.4734" lon="4.56605">
        <ele>359</ele>
        <time>2022-03-16T12:21:54Z</time>
      </trkpt>
      <trkpt lat="44.47341" lon="4.5661">
        <ele>361</ele>
        <time>2022-03-16T12:21:57Z</time>
      </trkpt>
      <trkpt lat="44.47341" lon="4.56615">
        <ele>361</ele>
        <time>2022-03-16T12:22:00Z</time>
      </trkpt>
      <trkpt lat="44.47344" lon="4.56626">
        <ele>361</ele>
        <time>2022-03-16T12:22:07Z</time>
      </trkpt>
      <trkpt lat="44.47345" lon="4.56631">
        <ele>361</ele>
        <time>2022-03-16T12:22:10Z</time>
      </trkpt>
      <trkpt lat="44.47347" lon="4.56633">
        <ele>363</ele>
        <time>2022-03-16T12:22:13Z</time>
      </trkpt>
      <trkpt lat="44.47351" lon="4.56636">
        <ele>363</ele>
        <time>2022-03-16T12:22:17Z</time>
      </trkpt>
      <trkpt lat="44.47348" lon="4.5664">
        <ele>362</ele>
        <time>2022-03-16T12:22:28Z</time>
      </trkpt>
      <trkpt lat="44.47357" lon="4.56647">
        <ele>362</ele>
        <time>2022-03-16T12:22:59Z</time>
      </trkpt>
      <trkpt lat="44.47367" lon="4.56651">
        <ele>362</ele>
        <time>2022-03-16T12:23:08Z</time>
      </trkpt>
      <trkpt lat="44.47384" lon="4.56654">
        <ele>362</ele>
        <time>2022-03-16T12:23:22Z</time>
      </trkpt>
      <trkpt lat="44.47401" lon="4.56657">
        <ele>365</ele>
        <time>2022-03-16T12:23:37Z</time>
      </trkpt>
      <trkpt lat="44.47413" lon="4.56659">
        <ele>364</ele>
        <time>2022-03-16T12:23:46Z</time>
      </trkpt>
      <trkpt lat="44.47418" lon="4.56662">
        <ele>367</ele>
        <time>2022-03-16T12:24:16Z</time>
      </trkpt>
      <trkpt lat="44.47434" lon="4.56664">
        <ele>368</ele>
        <time>2022-03-16T12:24:27Z</time>
      </trkpt>
      <trkpt lat="44.47438" lon="4.56669">
        <ele>368</ele>
        <time>2022-03-16T12:24:31Z</time>
      </trkpt>
      <trkpt lat="44.47453" lon="4.56673">
        <ele>368</ele>
        <time>2022-03-16T12:24:43Z</time>
      </trkpt>
      <trkpt lat="44.47458" lon="4.56672">
        <ele>368</ele>
        <time>2022-03-16T12:24:47Z</time>
      </trkpt>
      <trkpt lat="44.47461" lon="4.56675">
        <ele>367</ele>
        <time>2022-03-16T12:24:51Z</time>
      </trkpt>
      <trkpt lat="44.47472" lon="4.5668">
        <ele>368</ele>
        <time>2022-03-16T12:25:03Z</time>
      </trkpt>
      <trkpt lat="44.47477" lon="4.56683">
        <ele>368</ele>
        <time>2022-03-16T12:25:07Z</time>
      </trkpt>
      <trkpt lat="44.47493" lon="4.56693">
        <ele>369</ele>
        <time>2022-03-16T12:25:22Z</time>
      </trkpt>
      <trkpt lat="44.47497" lon="4.56695">
        <ele>369</ele>
        <time>2022-03-16T12:25:27Z</time>
      </trkpt>
      <trkpt lat="44.475" lon="4.56698">
        <ele>367</ele>
        <time>2022-03-16T12:25:35Z</time>
      </trkpt>
      <trkpt lat="44.47503" lon="4.56698">
        <ele>366</ele>
        <time>2022-03-16T12:25:40Z</time>
      </trkpt>
      <trkpt lat="44.47506" lon="4.56699">
        <ele>366</ele>
        <time>2022-03-16T12:25:44Z</time>
      </trkpt>
      <trkpt lat="44.47508" lon="4.56702">
        <ele>365</ele>
        <time>2022-03-16T12:25:47Z</time>
      </trkpt>
      <trkpt lat="44.47517" lon="4.56707">
        <ele>366</ele>
        <time>2022-03-16T12:25:55Z</time>
      </trkpt>
      <trkpt lat="44.47526" lon="4.56715">
        <ele>367</ele>
        <time>2022-03-16T12:26:08Z</time>
      </trkpt>
      <trkpt lat="44.47534" lon="4.56725">
        <ele>368</ele>
        <time>2022-03-16T12:26:18Z</time>
      </trkpt>
      <trkpt lat="44.47542" lon="4.56734">
        <ele>369</ele>
        <time>2022-03-16T12:26:25Z</time>
      </trkpt>
      <trkpt lat="44.4755" lon="4.56734">
        <ele>370</ele>
        <time>2022-03-16T12:26:32Z</time>
      </trkpt>
      <trkpt lat="44.47553" lon="4.56735">
        <ele>370</ele>
        <time>2022-03-16T12:26:35Z</time>
      </trkpt>
      <trkpt lat="44.47563" lon="4.56736">
        <ele>370</ele>
        <time>2022-03-16T12:26:42Z</time>
      </trkpt>
      <trkpt lat="44.47566" lon="4.56737">
        <ele>370</ele>
        <time>2022-03-16T12:26:44Z</time>
      </trkpt>
      <trkpt lat="44.47585" lon="4.56735">
        <ele>371</ele>
        <time>2022-03-16T12:27:00Z</time>
      </trkpt>
      <trkpt lat="44.47588" lon="4.56733">
        <ele>371</ele>
        <time>2022-03-16T12:27:03Z</time>
      </trkpt>
      <trkpt lat="44.47598" lon="4.56729">
        <ele>370</ele>
        <time>2022-03-16T12:27:12Z</time>
      </trkpt>
      <trkpt lat="44.47605" lon="4.56735">
        <ele>372</ele>
        <time>2022-03-16T12:27:22Z</time>
      </trkpt>
      <trkpt lat="44.47609" lon="4.56737">
        <ele>372</ele>
        <time>2022-03-16T12:27:25Z</time>
      </trkpt>
      <trkpt lat="44.47612" lon="4.56739">
        <ele>373</ele>
        <time>2022-03-16T12:27:28Z</time>
      </trkpt>
      <trkpt lat="44.47626" lon="4.5674">
        <ele>373</ele>
        <time>2022-03-16T12:27:40Z</time>
      </trkpt>
      <trkpt lat="44.47628" lon="4.56742">
        <ele>374</ele>
        <time>2022-03-16T12:27:44Z</time>
      </trkpt>
      <trkpt lat="44.47628" lon="4.56746">
        <ele>375</ele>
        <time>2022-03-16T12:27:46Z</time>
      </trkpt>
      <trkpt lat="44.47635" lon="4.56755">
        <ele>374</ele>
        <time>2022-03-16T12:27:55Z</time>
      </trkpt>
      <trkpt lat="44.47642" lon="4.56759">
        <ele>374</ele>
        <time>2022-03-16T12:28:01Z</time>
      </trkpt>
      <trkpt lat="44.47646" lon="4.5676">
        <ele>374</ele>
        <time>2022-03-16T12:28:04Z</time>
      </trkpt>
      <trkpt lat="44.4765" lon="4.56763">
        <ele>374</ele>
        <time>2022-03-16T12:28:08Z</time>
      </trkpt>
      <trkpt lat="44.47654" lon="4.56765">
        <ele>373</ele>
        <time>2022-03-16T12:28:11Z</time>
      </trkpt>
      <trkpt lat="44.47666" lon="4.56768">
        <ele>371</ele>
        <time>2022-03-16T12:28:21Z</time>
      </trkpt>
      <trkpt lat="44.47669" lon="4.56771">
        <ele>370</ele>
        <time>2022-03-16T12:28:26Z</time>
      </trkpt>
      <trkpt lat="44.4768" lon="4.56774">
        <ele>369</ele>
        <time>2022-03-16T12:28:37Z</time>
      </trkpt>
      <trkpt lat="44.47683" lon="4.56776">
        <ele>369</ele>
        <time>2022-03-16T12:28:41Z</time>
      </trkpt>
      <trkpt lat="44.47686" lon="4.56777">
        <ele>369</ele>
        <time>2022-03-16T12:28:44Z</time>
      </trkpt>
      <trkpt lat="44.47694" lon="4.5678">
        <ele>368</ele>
        <time>2022-03-16T12:28:50Z</time>
      </trkpt>
      <trkpt lat="44.47696" lon="4.56779">
        <ele>366</ele>
        <time>2022-03-16T12:29:00Z</time>
      </trkpt>
      <trkpt lat="44.47699" lon="4.56781">
        <ele>367</ele>
        <time>2022-03-16T12:29:03Z</time>
      </trkpt>
      <trkpt lat="44.47704" lon="4.56788">
        <ele>367</ele>
        <time>2022-03-16T12:29:09Z</time>
      </trkpt>
      <trkpt lat="44.47707" lon="4.5679">
        <ele>365</ele>
        <time>2022-03-16T12:29:12Z</time>
      </trkpt>
      <trkpt lat="44.4771" lon="4.56793">
        <ele>365</ele>
        <time>2022-03-16T12:29:15Z</time>
      </trkpt>
      <trkpt lat="44.47716" lon="4.56799">
        <ele>362</ele>
        <time>2022-03-16T12:29:22Z</time>
      </trkpt>
      <trkpt lat="44.4772" lon="4.56801">
        <ele>362</ele>
        <time>2022-03-16T12:29:25Z</time>
      </trkpt>
      <trkpt lat="44.47723" lon="4.56801">
        <ele>359</ele>
        <time>2022-03-16T12:29:28Z</time>
      </trkpt>
      <trkpt lat="44.47728" lon="4.568">
        <ele>359</ele>
        <time>2022-03-16T12:29:31Z</time>
      </trkpt>
      <trkpt lat="44.47731" lon="4.56802">
        <ele>359</ele>
        <time>2022-03-16T12:29:33Z</time>
      </trkpt>
      <trkpt lat="44.47737" lon="4.56809">
        <ele>356</ele>
        <time>2022-03-16T12:29:41Z</time>
      </trkpt>
      <trkpt lat="44.47739" lon="4.56813">
        <ele>356</ele>
        <time>2022-03-16T12:29:44Z</time>
      </trkpt>
      <trkpt lat="44.47745" lon="4.56816">
        <ele>356</ele>
        <time>2022-03-16T12:29:51Z</time>
      </trkpt>
      <trkpt lat="44.47748" lon="4.56819">
        <ele>357</ele>
        <time>2022-03-16T12:29:55Z</time>
      </trkpt>
      <trkpt lat="44.4776" lon="4.56825">
        <ele>358</ele>
        <time>2022-03-16T12:30:07Z</time>
      </trkpt>
      <trkpt lat="44.47764" lon="4.56827">
        <ele>358</ele>
        <time>2022-03-16T12:30:10Z</time>
      </trkpt>
      <trkpt lat="44.47767" lon="4.56833">
        <ele>359</ele>
        <time>2022-03-16T12:30:14Z</time>
      </trkpt>
      <trkpt lat="44.47772" lon="4.56847">
        <ele>357</ele>
        <time>2022-03-16T12:30:25Z</time>
      </trkpt>
      <trkpt lat="44.47774" lon="4.56851">
        <ele>358</ele>
        <time>2022-03-16T12:30:28Z</time>
      </trkpt>
      <trkpt lat="44.47776" lon="4.56855">
        <ele>358</ele>
        <time>2022-03-16T12:30:32Z</time>
      </trkpt>
      <trkpt lat="44.47781" lon="4.56863">
        <ele>357</ele>
        <time>2022-03-16T12:30:39Z</time>
      </trkpt>
      <trkpt lat="44.47781" lon="4.56868">
        <ele>356</ele>
        <time>2022-03-16T12:30:43Z</time>
      </trkpt>
      <trkpt lat="44.47784" lon="4.56873">
        <ele>358</ele>
        <time>2022-03-16T12:30:47Z</time>
      </trkpt>
      <trkpt lat="44.47786" lon="4.56877">
        <ele>359</ele>
        <time>2022-03-16T12:30:51Z</time>
      </trkpt>
      <trkpt lat="44.47804" lon="4.5688">
        <ele>357</ele>
        <time>2022-03-16T12:31:07Z</time>
      </trkpt>
      <trkpt lat="44.47807" lon="4.56879">
        <ele>357</ele>
        <time>2022-03-16T12:31:10Z</time>
      </trkpt>
      <trkpt lat="44.4781" lon="4.56879">
        <ele>356</ele>
        <time>2022-03-16T12:31:13Z</time>
      </trkpt>
      <trkpt lat="44.47813" lon="4.56881">
        <ele>357</ele>
        <time>2022-03-16T12:31:16Z</time>
      </trkpt>
      <trkpt lat="44.47816" lon="4.56882">
        <ele>357</ele>
        <time>2022-03-16T12:31:20Z</time>
      </trkpt>
      <trkpt lat="44.47824" lon="4.56886">
        <ele>358</ele>
        <time>2022-03-16T12:31:27Z</time>
      </trkpt>
      <trkpt lat="44.4784" lon="4.56886">
        <ele>357</ele>
        <time>2022-03-16T12:31:43Z</time>
      </trkpt>
      <trkpt lat="44.47843" lon="4.56886">
        <ele>357</ele>
        <time>2022-03-16T12:31:46Z</time>
      </trkpt>
      <trkpt lat="44.47846" lon="4.56885">
        <ele>359</ele>
        <time>2022-03-16T12:31:50Z</time>
      </trkpt>
      <trkpt lat="44.47849" lon="4.56887">
        <ele>360</ele>
        <time>2022-03-16T12:31:58Z</time>
      </trkpt>
      <trkpt lat="44.47851" lon="4.56886">
        <ele>360</ele>
        <time>2022-03-16T12:32:01Z</time>
      </trkpt>
      <trkpt lat="44.47854" lon="4.56884">
        <ele>359</ele>
        <time>2022-03-16T12:32:10Z</time>
      </trkpt>
      <trkpt lat="44.47867" lon="4.56889">
        <ele>359</ele>
        <time>2022-03-16T12:32:24Z</time>
      </trkpt>
      <trkpt lat="44.47873" lon="4.56891">
        <ele>359</ele>
        <time>2022-03-16T12:32:32Z</time>
      </trkpt>
      <trkpt lat="44.47873" lon="4.56893">
        <ele>363</ele>
        <time>2022-03-16T12:33:19Z</time>
      </trkpt>
      <trkpt lat="44.47878" lon="4.56893">
        <ele>363</ele>
        <time>2022-03-16T12:33:37Z</time>
      </trkpt>
      <trkpt lat="44.47882" lon="4.56897">
        <ele>363</ele>
        <time>2022-03-16T12:33:40Z</time>
      </trkpt>
      <trkpt lat="44.47903" lon="4.56907">
        <ele>366</ele>
        <time>2022-03-16T12:34:02Z</time>
      </trkpt>
      <trkpt lat="44.47907" lon="4.56912">
        <ele>368</ele>
        <time>2022-03-16T12:34:07Z</time>
      </trkpt>
      <trkpt lat="44.4791" lon="4.56914">
        <ele>369</ele>
        <time>2022-03-16T12:34:10Z</time>
      </trkpt>
      <trkpt lat="44.47913" lon="4.56915">
        <ele>368</ele>
        <time>2022-03-16T12:34:14Z</time>
      </trkpt>
      <trkpt lat="44.47921" lon="4.56916">
        <ele>371</ele>
        <time>2022-03-16T12:34:24Z</time>
      </trkpt>
      <trkpt lat="44.47928" lon="4.56916">
        <ele>373</ele>
        <time>2022-03-16T12:34:29Z</time>
      </trkpt>
      <trkpt lat="44.47931" lon="4.56915">
        <ele>373</ele>
        <time>2022-03-16T12:34:31Z</time>
      </trkpt>
      <trkpt lat="44.47941" lon="4.56917">
        <ele>374</ele>
        <time>2022-03-16T12:34:42Z</time>
      </trkpt>
      <trkpt lat="44.47945" lon="4.56915">
        <ele>375</ele>
        <time>2022-03-16T12:34:48Z</time>
      </trkpt>
      <trkpt lat="44.47949" lon="4.56913">
        <ele>374</ele>
        <time>2022-03-16T12:34:51Z</time>
      </trkpt>
      <trkpt lat="44.47957" lon="4.56911">
        <ele>375</ele>
        <time>2022-03-16T12:34:57Z</time>
      </trkpt>
      <trkpt lat="44.47961" lon="4.5691">
        <ele>375</ele>
        <time>2022-03-16T12:35:02Z</time>
      </trkpt>
      <trkpt lat="44.47994" lon="4.56896">
        <ele>377</ele>
        <time>2022-03-16T12:35:32Z</time>
      </trkpt>
      <trkpt lat="44.47999" lon="4.56896">
        <ele>378</ele>
        <time>2022-03-16T12:35:35Z</time>
      </trkpt>
      <trkpt lat="44.48007" lon="4.56895">
        <ele>378</ele>
        <time>2022-03-16T12:35:43Z</time>
      </trkpt>
      <trkpt lat="44.48017" lon="4.56888">
        <ele>377</ele>
        <time>2022-03-16T12:35:52Z</time>
      </trkpt>
      <trkpt lat="44.48021" lon="4.56887">
        <ele>379</ele>
        <time>2022-03-16T12:35:55Z</time>
      </trkpt>
      <trkpt lat="44.48036" lon="4.56879">
        <ele>376</ele>
        <time>2022-03-16T12:36:10Z</time>
      </trkpt>
      <trkpt lat="44.48044" lon="4.56881">
        <ele>376</ele>
        <time>2022-03-16T12:36:16Z</time>
      </trkpt>
      <trkpt lat="44.48052" lon="4.56886">
        <ele>375</ele>
        <time>2022-03-16T12:36:22Z</time>
      </trkpt>
      <trkpt lat="44.48055" lon="4.56888">
        <ele>375</ele>
        <time>2022-03-16T12:36:25Z</time>
      </trkpt>
      <trkpt lat="44.48068" lon="4.56895">
        <ele>374</ele>
        <time>2022-03-16T12:36:35Z</time>
      </trkpt>
      <trkpt lat="44.48072" lon="4.56895">
        <ele>374</ele>
        <time>2022-03-16T12:36:38Z</time>
      </trkpt>
      <trkpt lat="44.48073" lon="4.56899">
        <ele>376</ele>
        <time>2022-03-16T12:36:48Z</time>
      </trkpt>
      <trkpt lat="44.48106" lon="4.56926">
        <ele>372</ele>
        <time>2022-03-16T12:37:18Z</time>
      </trkpt>
      <trkpt lat="44.48109" lon="4.56929">
        <ele>372</ele>
        <time>2022-03-16T12:37:21Z</time>
      </trkpt>
      <trkpt lat="44.48116" lon="4.56933">
        <ele>373</ele>
        <time>2022-03-16T12:37:26Z</time>
      </trkpt>
      <trkpt lat="44.48121" lon="4.5694">
        <ele>374</ele>
        <time>2022-03-16T12:37:32Z</time>
      </trkpt>
      <trkpt lat="44.48123" lon="4.56944">
        <ele>373</ele>
        <time>2022-03-16T12:37:35Z</time>
      </trkpt>
      <trkpt lat="44.48129" lon="4.56957">
        <ele>372</ele>
        <time>2022-03-16T12:37:44Z</time>
      </trkpt>
      <trkpt lat="44.48134" lon="4.56964">
        <ele>372</ele>
        <time>2022-03-16T12:37:50Z</time>
      </trkpt>
      <trkpt lat="44.48136" lon="4.56969">
        <ele>372</ele>
        <time>2022-03-16T12:37:53Z</time>
      </trkpt>
      <trkpt lat="44.4814" lon="4.56974">
        <ele>372</ele>
        <time>2022-03-16T12:37:57Z</time>
      </trkpt>
      <trkpt lat="44.48146" lon="4.56979">
        <ele>372</ele>
        <time>2022-03-16T12:38:02Z</time>
      </trkpt>
      <trkpt lat="44.48148" lon="4.56983">
        <ele>372</ele>
        <time>2022-03-16T12:38:04Z</time>
      </trkpt>
      <trkpt lat="44.48154" lon="4.5699">
        <ele>375</ele>
        <time>2022-03-16T12:38:10Z</time>
      </trkpt>
      <trkpt lat="44.48157" lon="4.56994">
        <ele>374</ele>
        <time>2022-03-16T12:38:13Z</time>
      </trkpt>
      <trkpt lat="44.48161" lon="4.56998">
        <ele>372</ele>
        <time>2022-03-16T12:38:17Z</time>
      </trkpt>
      <trkpt lat="44.48163" lon="4.57003">
        <ele>373</ele>
        <time>2022-03-16T12:38:20Z</time>
      </trkpt>
      <trkpt lat="44.48167" lon="4.57007">
        <ele>373</ele>
        <time>2022-03-16T12:38:23Z</time>
      </trkpt>
      <trkpt lat="44.4817" lon="4.57015">
        <ele>373</ele>
        <time>2022-03-16T12:38:30Z</time>
      </trkpt>
      <trkpt lat="44.48175" lon="4.57023">
        <ele>371</ele>
        <time>2022-03-16T12:38:37Z</time>
      </trkpt>
      <trkpt lat="44.48178" lon="4.57038">
        <ele>370</ele>
        <time>2022-03-16T12:38:46Z</time>
      </trkpt>
      <trkpt lat="44.48177" lon="4.57042">
        <ele>370</ele>
        <time>2022-03-16T12:38:54Z</time>
      </trkpt>
      <trkpt lat="44.48178" lon="4.57048">
        <ele>370</ele>
        <time>2022-03-16T12:39:26Z</time>
      </trkpt>
      <trkpt lat="44.48182" lon="4.57059">
        <ele>367</ele>
        <time>2022-03-16T12:39:32Z</time>
      </trkpt>
      <trkpt lat="44.4819" lon="4.57074">
        <ele>365</ele>
        <time>2022-03-16T12:39:44Z</time>
      </trkpt>
      <trkpt lat="44.48193" lon="4.57076">
        <ele>365</ele>
        <time>2022-03-16T12:39:47Z</time>
      </trkpt>
      <trkpt lat="44.48195" lon="4.57081">
        <ele>366</ele>
        <time>2022-03-16T12:39:51Z</time>
      </trkpt>
      <trkpt lat="44.48207" lon="4.57102">
        <ele>365</ele>
        <time>2022-03-16T12:40:08Z</time>
      </trkpt>
      <trkpt lat="44.4821" lon="4.57106">
        <ele>365</ele>
        <time>2022-03-16T12:40:12Z</time>
      </trkpt>
      <trkpt lat="44.48213" lon="4.57114">
        <ele>363</ele>
        <time>2022-03-16T12:40:18Z</time>
      </trkpt>
      <trkpt lat="44.48215" lon="4.57123">
        <ele>363</ele>
        <time>2022-03-16T12:40:24Z</time>
      </trkpt>
      <trkpt lat="44.48217" lon="4.57129">
        <ele>363</ele>
        <time>2022-03-16T12:40:28Z</time>
      </trkpt>
      <trkpt lat="44.48221" lon="4.57137">
        <ele>364</ele>
        <time>2022-03-16T12:40:34Z</time>
      </trkpt>
      <trkpt lat="44.48223" lon="4.57143">
        <ele>364</ele>
        <time>2022-03-16T12:40:37Z</time>
      </trkpt>
      <trkpt lat="44.48235" lon="4.57157">
        <ele>362</ele>
        <time>2022-03-16T12:40:50Z</time>
      </trkpt>
      <trkpt lat="44.48241" lon="4.57165">
        <ele>360</ele>
        <time>2022-03-16T12:40:57Z</time>
      </trkpt>
      <trkpt lat="44.48245" lon="4.57167">
        <ele>360</ele>
        <time>2022-03-16T12:41:01Z</time>
      </trkpt>
      <trkpt lat="44.48252" lon="4.57176">
        <ele>361</ele>
        <time>2022-03-16T12:41:09Z</time>
      </trkpt>
      <trkpt lat="44.48254" lon="4.57189">
        <ele>361</ele>
        <time>2022-03-16T12:41:16Z</time>
      </trkpt>
      <trkpt lat="44.48256" lon="4.57202">
        <ele>361</ele>
        <time>2022-03-16T12:41:24Z</time>
      </trkpt>
      <trkpt lat="44.48257" lon="4.57207">
        <ele>361</ele>
        <time>2022-03-16T12:41:27Z</time>
      </trkpt>
      <trkpt lat="44.48255" lon="4.57211">
        <ele>361</ele>
        <time>2022-03-16T12:41:30Z</time>
      </trkpt>
      <trkpt lat="44.48255" lon="4.57216">
        <ele>359</ele>
        <time>2022-03-16T12:41:43Z</time>
      </trkpt>
      <trkpt lat="44.48254" lon="4.57221">
        <ele>359</ele>
        <time>2022-03-16T12:41:46Z</time>
      </trkpt>
      <trkpt lat="44.48251" lon="4.57225">
        <ele>359</ele>
        <time>2022-03-16T12:41:49Z</time>
      </trkpt>
      <trkpt lat="44.48246" lon="4.57239">
        <ele>359</ele>
        <time>2022-03-16T12:42:00Z</time>
      </trkpt>
      <trkpt lat="44.48243" lon="4.57242">
        <ele>360</ele>
        <time>2022-03-16T12:42:03Z</time>
      </trkpt>
      <trkpt lat="44.48241" lon="4.57246">
        <ele>360</ele>
        <time>2022-03-16T12:42:06Z</time>
      </trkpt>
      <trkpt lat="44.48239" lon="4.5725">
        <ele>360</ele>
        <time>2022-03-16T12:42:09Z</time>
      </trkpt>
      <trkpt lat="44.48236" lon="4.57255">
        <ele>360</ele>
        <time>2022-03-16T12:42:12Z</time>
      </trkpt>
      <trkpt lat="44.48231" lon="4.57264">
        <ele>360</ele>
        <time>2022-03-16T12:42:19Z</time>
      </trkpt>
      <trkpt lat="44.48228" lon="4.57267">
        <ele>360</ele>
        <time>2022-03-16T12:42:22Z</time>
      </trkpt>
      <trkpt lat="44.48223" lon="4.57279">
        <ele>360</ele>
        <time>2022-03-16T12:42:33Z</time>
      </trkpt>
      <trkpt lat="44.48224" lon="4.57287">
        <ele>359</ele>
        <time>2022-03-16T12:42:38Z</time>
      </trkpt>
      <trkpt lat="44.48225" lon="4.57294">
        <ele>357</ele>
        <time>2022-03-16T12:42:44Z</time>
      </trkpt>
      <trkpt lat="44.48229" lon="4.57299">
        <ele>356</ele>
        <time>2022-03-16T12:42:49Z</time>
      </trkpt>
      <trkpt lat="44.48234" lon="4.57309">
        <ele>354</ele>
        <time>2022-03-16T12:42:59Z</time>
      </trkpt>
      <trkpt lat="44.48241" lon="4.5732">
        <ele>351</ele>
        <time>2022-03-16T12:43:11Z</time>
      </trkpt>
      <trkpt lat="44.48252" lon="4.57319">
        <ele>350</ele>
        <time>2022-03-16T12:43:21Z</time>
      </trkpt>
      <trkpt lat="44.48284" lon="4.57338">
        <ele>350</ele>
        <time>2022-03-16T12:43:50Z</time>
      </trkpt>
      <trkpt lat="44.48288" lon="4.57341">
        <ele>353</ele>
        <time>2022-03-16T12:43:53Z</time>
      </trkpt>
      <trkpt lat="44.48296" lon="4.57346">
        <ele>353</ele>
        <time>2022-03-16T12:44:00Z</time>
      </trkpt>
      <trkpt lat="44.48298" lon="4.5735">
        <ele>351</ele>
        <time>2022-03-16T12:44:03Z</time>
      </trkpt>
      <trkpt lat="44.48305" lon="4.57367">
        <ele>350</ele>
        <time>2022-03-16T12:44:15Z</time>
      </trkpt>
      <trkpt lat="44.48315" lon="4.57392">
        <ele>346</ele>
        <time>2022-03-16T12:44:31Z</time>
      </trkpt>
      <trkpt lat="44.48318" lon="4.57396">
        <ele>346</ele>
        <time>2022-03-16T12:44:34Z</time>
      </trkpt>
      <trkpt lat="44.48323" lon="4.57401">
        <ele>344</ele>
        <time>2022-03-16T12:44:39Z</time>
      </trkpt>
      <trkpt lat="44.48331" lon="4.57404">
        <ele>344</ele>
        <time>2022-03-16T12:44:45Z</time>
      </trkpt>
      <trkpt lat="44.48342" lon="4.57405">
        <ele>344</ele>
        <time>2022-03-16T12:44:52Z</time>
      </trkpt>
      <trkpt lat="44.48345" lon="4.57407">
        <ele>343</ele>
        <time>2022-03-16T12:44:55Z</time>
      </trkpt>
      <trkpt lat="44.48348" lon="4.57408">
        <ele>343</ele>
        <time>2022-03-16T12:44:58Z</time>
      </trkpt>
      <trkpt lat="44.48362" lon="4.57414">
        <ele>344</ele>
        <time>2022-03-16T12:45:10Z</time>
      </trkpt>
      <trkpt lat="44.48368" lon="4.57415">
        <ele>345</ele>
        <time>2022-03-16T12:45:15Z</time>
      </trkpt>
      <trkpt lat="44.48376" lon="4.5742">
        <ele>345</ele>
        <time>2022-03-16T12:45:21Z</time>
      </trkpt>
      <trkpt lat="44.48409" lon="4.57431">
        <ele>344</ele>
        <time>2022-03-16T12:45:49Z</time>
      </trkpt>
      <trkpt lat="44.48417" lon="4.57434">
        <ele>344</ele>
        <time>2022-03-16T12:45:55Z</time>
      </trkpt>
      <trkpt lat="44.4842" lon="4.57436">
        <ele>344</ele>
        <time>2022-03-16T12:45:58Z</time>
      </trkpt>
      <trkpt lat="44.48424" lon="4.57438">
        <ele>344</ele>
        <time>2022-03-16T12:46:02Z</time>
      </trkpt>
      <trkpt lat="44.48443" lon="4.5744">
        <ele>344</ele>
        <time>2022-03-16T12:46:16Z</time>
      </trkpt>
      <trkpt lat="44.48456" lon="4.57449">
        <ele>344</ele>
        <time>2022-03-16T12:46:27Z</time>
      </trkpt>
      <trkpt lat="44.4846" lon="4.5745">
        <ele>344</ele>
        <time>2022-03-16T12:46:30Z</time>
      </trkpt>
      <trkpt lat="44.48467" lon="4.57449">
        <ele>342</ele>
        <time>2022-03-16T12:46:36Z</time>
      </trkpt>
      <trkpt lat="44.48471" lon="4.57451">
        <ele>342</ele>
        <time>2022-03-16T12:46:40Z</time>
      </trkpt>
      <trkpt lat="44.48475" lon="4.57455">
        <ele>341</ele>
        <time>2022-03-16T12:46:44Z</time>
      </trkpt>
      <trkpt lat="44.48478" lon="4.57458">
        <ele>342</ele>
        <time>2022-03-16T12:46:48Z</time>
      </trkpt>
      <trkpt lat="44.48481" lon="4.57463">
        <ele>343</ele>
        <time>2022-03-16T12:46:51Z</time>
      </trkpt>
      <trkpt lat="44.48487" lon="4.57466">
        <ele>342</ele>
        <time>2022-03-16T12:46:58Z</time>
      </trkpt>
      <trkpt lat="44.48502" lon="4.57468">
        <ele>341</ele>
        <time>2022-03-16T12:47:10Z</time>
      </trkpt>
      <trkpt lat="44.48509" lon="4.57468">
        <ele>341</ele>
        <time>2022-03-16T12:47:16Z</time>
      </trkpt>
      <trkpt lat="44.48514" lon="4.57472">
        <ele>340</ele>
        <time>2022-03-16T12:47:19Z</time>
      </trkpt>
      <trkpt lat="44.48522" lon="4.57474">
        <ele>340</ele>
        <time>2022-03-16T12:47:25Z</time>
      </trkpt>
      <trkpt lat="44.48526" lon="4.57477">
        <ele>340</ele>
        <time>2022-03-16T12:47:28Z</time>
      </trkpt>
      <trkpt lat="44.48536" lon="4.57481">
        <ele>339</ele>
        <time>2022-03-16T12:47:37Z</time>
      </trkpt>
      <trkpt lat="44.48538" lon="4.57483">
        <ele>338</ele>
        <time>2022-03-16T12:47:39Z</time>
      </trkpt>
      <trkpt lat="44.48543" lon="4.57486">
        <ele>338</ele>
        <time>2022-03-16T12:47:42Z</time>
      </trkpt>
      <trkpt lat="44.4855" lon="4.57487">
        <ele>337</ele>
        <time>2022-03-16T12:47:48Z</time>
      </trkpt>
      <trkpt lat="44.48557" lon="4.57492">
        <ele>337</ele>
        <time>2022-03-16T12:47:55Z</time>
      </trkpt>
      <trkpt lat="44.48579" lon="4.57497">
        <ele>339</ele>
        <time>2022-03-16T12:48:40Z</time>
      </trkpt>
      <trkpt lat="44.48584" lon="4.575">
        <ele>341</ele>
        <time>2022-03-16T12:48:45Z</time>
      </trkpt>
      <trkpt lat="44.48588" lon="4.57501">
        <ele>341</ele>
        <time>2022-03-16T12:48:48Z</time>
      </trkpt>
      <trkpt lat="44.48591" lon="4.575">
        <ele>341</ele>
        <time>2022-03-16T12:48:50Z</time>
      </trkpt>
      <trkpt lat="44.48598" lon="4.57504">
        <ele>341</ele>
        <time>2022-03-16T12:48:56Z</time>
      </trkpt>
      <trkpt lat="44.48601" lon="4.57506">
        <ele>341</ele>
        <time>2022-03-16T12:48:59Z</time>
      </trkpt>
      <trkpt lat="44.48608" lon="4.57506">
        <ele>344</ele>
        <time>2022-03-16T12:49:06Z</time>
      </trkpt>
      <trkpt lat="44.48612" lon="4.57509">
        <ele>344</ele>
        <time>2022-03-16T12:49:09Z</time>
      </trkpt>
      <trkpt lat="44.48626" lon="4.57511">
        <ele>347</ele>
        <time>2022-03-16T12:49:18Z</time>
      </trkpt>
      <trkpt lat="44.48632" lon="4.57515">
        <ele>348</ele>
        <time>2022-03-16T12:49:22Z</time>
      </trkpt>
      <trkpt lat="44.48635" lon="4.57515">
        <ele>344</ele>
        <time>2022-03-16T12:49:26Z</time>
      </trkpt>
      <trkpt lat="44.48636" lon="4.57519">
        <ele>344</ele>
        <time>2022-03-16T12:49:29Z</time>
      </trkpt>
      <trkpt lat="44.48641" lon="4.57523">
        <ele>343</ele>
        <time>2022-03-16T12:49:35Z</time>
      </trkpt>
      <trkpt lat="44.48644" lon="4.57524">
        <ele>342</ele>
        <time>2022-03-16T12:49:38Z</time>
      </trkpt>
      <trkpt lat="44.48651" lon="4.57526">
        <ele>339</ele>
        <time>2022-03-16T12:49:44Z</time>
      </trkpt>
      <trkpt lat="44.48671" lon="4.57527">
        <ele>339</ele>
        <time>2022-03-16T12:49:58Z</time>
      </trkpt>
      <trkpt lat="44.4868" lon="4.57534">
        <ele>341</ele>
        <time>2022-03-16T12:50:05Z</time>
      </trkpt>
      <trkpt lat="44.48682" lon="4.57537">
        <ele>341</ele>
        <time>2022-03-16T12:50:07Z</time>
      </trkpt>
      <trkpt lat="44.48683" lon="4.5754">
        <ele>342</ele>
        <time>2022-03-16T12:50:09Z</time>
      </trkpt>
      <trkpt lat="44.48689" lon="4.57545">
        <ele>342</ele>
        <time>2022-03-16T12:50:14Z</time>
      </trkpt>
      <trkpt lat="44.48691" lon="4.57548">
        <ele>342</ele>
        <time>2022-03-16T12:50:17Z</time>
      </trkpt>
      <trkpt lat="44.48694" lon="4.57551">
        <ele>342</ele>
        <time>2022-03-16T12:50:19Z</time>
      </trkpt>
      <trkpt lat="44.48697" lon="4.57553">
        <ele>342</ele>
        <time>2022-03-16T12:50:22Z</time>
      </trkpt>
      <trkpt lat="44.48702" lon="4.57564">
        <ele>342</ele>
        <time>2022-03-16T12:50:29Z</time>
      </trkpt>
      <trkpt lat="44.48701" lon="4.57567">
        <ele>342</ele>
        <time>2022-03-16T12:50:31Z</time>
      </trkpt>
      <trkpt lat="44.48703" lon="4.57574">
        <ele>342</ele>
        <time>2022-03-16T12:50:36Z</time>
      </trkpt>
      <trkpt lat="44.48708" lon="4.57586">
        <ele>341</ele>
        <time>2022-03-16T12:50:44Z</time>
      </trkpt>
      <trkpt lat="44.4871" lon="4.5759">
        <ele>340</ele>
        <time>2022-03-16T12:50:47Z</time>
      </trkpt>
      <trkpt lat="44.48715" lon="4.57599">
        <ele>339</ele>
        <time>2022-03-16T12:50:53Z</time>
      </trkpt>
      <trkpt lat="44.48717" lon="4.57603">
        <ele>338</ele>
        <time>2022-03-16T12:50:56Z</time>
      </trkpt>
      <trkpt lat="44.4872" lon="4.57605">
        <ele>338</ele>
        <time>2022-03-16T12:50:59Z</time>
      </trkpt>
      <trkpt lat="44.48727" lon="4.57614">
        <ele>335</ele>
        <time>2022-03-16T12:51:08Z</time>
      </trkpt>
      <trkpt lat="44.48729" lon="4.57616">
        <ele>335</ele>
        <time>2022-03-16T12:51:10Z</time>
      </trkpt>
      <trkpt lat="44.48736" lon="4.57623">
        <ele>335</ele>
        <time>2022-03-16T12:51:16Z</time>
      </trkpt>
      <trkpt lat="44.48743" lon="4.57651">
        <ele>334</ele>
        <time>2022-03-16T12:51:36Z</time>
      </trkpt>
      <trkpt lat="44.48745" lon="4.57659">
        <ele>333</ele>
        <time>2022-03-16T12:51:42Z</time>
      </trkpt>
      <trkpt lat="44.48756" lon="4.57673">
        <ele>330</ele>
        <time>2022-03-16T12:51:54Z</time>
      </trkpt>
      <trkpt lat="44.48759" lon="4.57676">
        <ele>329</ele>
        <time>2022-03-16T12:51:57Z</time>
      </trkpt>
      <trkpt lat="44.48761" lon="4.57679">
        <ele>329</ele>
        <time>2022-03-16T12:52:17Z</time>
      </trkpt>
      <trkpt lat="44.48764" lon="4.5768">
        <ele>330</ele>
        <time>2022-03-16T12:52:20Z</time>
      </trkpt>
      <trkpt lat="44.48787" lon="4.57699">
        <ele>326</ele>
        <time>2022-03-16T12:52:43Z</time>
      </trkpt>
      <trkpt lat="44.48792" lon="4.57704">
        <ele>326</ele>
        <time>2022-03-16T12:52:52Z</time>
      </trkpt>
      <trkpt lat="44.48792" lon="4.57707">
        <ele>325</ele>
        <time>2022-03-16T12:53:04Z</time>
      </trkpt>
      <trkpt lat="44.48795" lon="4.57709">
        <ele>324</ele>
        <time>2022-03-16T12:53:15Z</time>
      </trkpt>
      <trkpt lat="44.488" lon="4.57712">
        <ele>325</ele>
        <time>2022-03-16T12:53:22Z</time>
      </trkpt>
      <trkpt lat="44.48803" lon="4.57713">
        <ele>323</ele>
        <time>2022-03-16T12:53:25Z</time>
      </trkpt>
      <trkpt lat="44.48807" lon="4.57716">
        <ele>321</ele>
        <time>2022-03-16T12:53:29Z</time>
      </trkpt>
      <trkpt lat="44.48809" lon="4.57719">
        <ele>320</ele>
        <time>2022-03-16T12:53:32Z</time>
      </trkpt>
      <trkpt lat="44.4881" lon="4.57724">
        <ele>319</ele>
        <time>2022-03-16T12:53:36Z</time>
      </trkpt>
      <trkpt lat="44.48812" lon="4.57727">
        <ele>317</ele>
        <time>2022-03-16T12:53:39Z</time>
      </trkpt>
      <trkpt lat="44.48815" lon="4.57734">
        <ele>318</ele>
        <time>2022-03-16T12:53:45Z</time>
      </trkpt>
      <trkpt lat="44.4882" lon="4.57741">
        <ele>316</ele>
        <time>2022-03-16T12:53:52Z</time>
      </trkpt>
      <trkpt lat="44.48822" lon="4.57745">
        <ele>316</ele>
        <time>2022-03-16T12:53:56Z</time>
      </trkpt>
      <trkpt lat="44.48826" lon="4.57749">
        <ele>319</ele>
        <time>2022-03-16T12:54:21Z</time>
      </trkpt>
      <trkpt lat="44.48828" lon="4.57754">
        <ele>319</ele>
        <time>2022-03-16T12:54:25Z</time>
      </trkpt>
      <trkpt lat="44.48832" lon="4.57757">
        <ele>319</ele>
        <time>2022-03-16T12:54:30Z</time>
      </trkpt>
      <trkpt lat="44.48843" lon="4.57759">
        <ele>319</ele>
        <time>2022-03-16T12:54:47Z</time>
      </trkpt>
      <trkpt lat="44.48846" lon="4.57764">
        <ele>317</ele>
        <time>2022-03-16T12:54:51Z</time>
      </trkpt>
      <trkpt lat="44.48867" lon="4.57783">
        <ele>315</ele>
        <time>2022-03-16T12:55:10Z</time>
      </trkpt>
      <trkpt lat="44.48873" lon="4.57786">
        <ele>315</ele>
        <time>2022-03-16T12:55:14Z</time>
      </trkpt>
      <trkpt lat="44.48877" lon="4.5779">
        <ele>314</ele>
        <time>2022-03-16T12:55:18Z</time>
      </trkpt>
      <trkpt lat="44.48884" lon="4.57798">
        <ele>314</ele>
        <time>2022-03-16T12:55:25Z</time>
      </trkpt>
      <trkpt lat="44.48895" lon="4.57803">
        <ele>314</ele>
        <time>2022-03-16T12:55:32Z</time>
      </trkpt>
      <trkpt lat="44.48916" lon="4.57828">
        <ele>313</ele>
        <time>2022-03-16T12:55:57Z</time>
      </trkpt>
      <trkpt lat="44.48921" lon="4.57838">
        <ele>312</ele>
        <time>2022-03-16T12:56:05Z</time>
      </trkpt>
      <trkpt lat="44.48928" lon="4.57847">
        <ele>312</ele>
        <time>2022-03-16T12:56:14Z</time>
      </trkpt>
      <trkpt lat="44.48931" lon="4.57853">
        <ele>313</ele>
        <time>2022-03-16T12:56:19Z</time>
      </trkpt>
      <trkpt lat="44.48933" lon="4.57858">
        <ele>313</ele>
        <time>2022-03-16T12:56:26Z</time>
      </trkpt>
      <trkpt lat="44.48934" lon="4.57864">
        <ele>313</ele>
        <time>2022-03-16T12:56:33Z</time>
      </trkpt>
      <trkpt lat="44.48936" lon="4.57869">
        <ele>315</ele>
        <time>2022-03-16T12:56:37Z</time>
      </trkpt>
      <trkpt lat="44.48941" lon="4.57876">
        <ele>314</ele>
        <time>2022-03-16T12:56:43Z</time>
      </trkpt>
      <trkpt lat="44.4894" lon="4.57879">
        <ele>317</ele>
        <time>2022-03-16T12:56:57Z</time>
      </trkpt>
      <trkpt lat="44.48943" lon="4.57886">
        <ele>318</ele>
        <time>2022-03-16T12:57:04Z</time>
      </trkpt>
      <trkpt lat="44.48944" lon="4.57888">
        <ele>318</ele>
        <time>2022-03-16T12:57:08Z</time>
      </trkpt>
      <trkpt lat="44.48946" lon="4.57893">
        <ele>318</ele>
        <time>2022-03-16T12:57:11Z</time>
      </trkpt>
      <trkpt lat="44.48958" lon="4.57903">
        <ele>319</ele>
        <time>2022-03-16T12:57:25Z</time>
      </trkpt>
      <trkpt lat="44.48962" lon="4.57904">
        <ele>318</ele>
        <time>2022-03-16T12:57:29Z</time>
      </trkpt>
      <trkpt lat="44.48965" lon="4.57904">
        <ele>319</ele>
        <time>2022-03-16T12:57:32Z</time>
      </trkpt>
      <trkpt lat="44.48973" lon="4.57906">
        <ele>317</ele>
        <time>2022-03-16T12:57:40Z</time>
      </trkpt>
      <trkpt lat="44.48977" lon="4.57908">
        <ele>317</ele>
        <time>2022-03-16T12:57:43Z</time>
      </trkpt>
      <trkpt lat="44.48987" lon="4.57911">
        <ele>317</ele>
        <time>2022-03-16T12:57:54Z</time>
      </trkpt>
      <trkpt lat="44.48993" lon="4.57912">
        <ele>316</ele>
        <time>2022-03-16T12:58:03Z</time>
      </trkpt>
      <trkpt lat="44.48996" lon="4.57913">
        <ele>314</ele>
        <time>2022-03-16T12:58:06Z</time>
      </trkpt>
      <trkpt lat="44.49007" lon="4.57911">
        <ele>314</ele>
        <time>2022-03-16T12:58:19Z</time>
      </trkpt>
      <trkpt lat="44.49011" lon="4.5791">
        <ele>315</ele>
        <time>2022-03-16T12:58:22Z</time>
      </trkpt>
      <trkpt lat="44.49017" lon="4.57908">
        <ele>315</ele>
        <time>2022-03-16T12:58:29Z</time>
      </trkpt>
      <trkpt lat="44.4902" lon="4.57911">
        <ele>314</ele>
        <time>2022-03-16T12:58:31Z</time>
      </trkpt>
      <trkpt lat="44.49022" lon="4.57913">
        <ele>311</ele>
        <time>2022-03-16T12:58:33Z</time>
      </trkpt>
      <trkpt lat="44.49025" lon="4.57916">
        <ele>311</ele>
        <time>2022-03-16T12:58:37Z</time>
      </trkpt>
      <trkpt lat="44.49019" lon="4.57924">
        <ele>309</ele>
        <time>2022-03-16T12:58:43Z</time>
      </trkpt>
      <trkpt lat="44.49017" lon="4.57926">
        <ele>310</ele>
        <time>2022-03-16T12:58:51Z</time>
      </trkpt>
      <trkpt lat="44.49013" lon="4.5793">
        <ele>310</ele>
        <time>2022-03-16T12:58:55Z</time>
      </trkpt>
      <trkpt lat="44.48998" lon="4.57941">
        <ele>309</ele>
        <time>2022-03-16T12:59:11Z</time>
      </trkpt>
      <trkpt lat="44.48991" lon="4.57949">
        <ele>308</ele>
        <time>2022-03-16T12:59:17Z</time>
      </trkpt>
      <trkpt lat="44.48954" lon="4.57965">
        <ele>303</ele>
        <time>2022-03-16T12:59:49Z</time>
      </trkpt>
      <trkpt lat="44.48951" lon="4.57967">
        <ele>304</ele>
        <time>2022-03-16T12:59:55Z</time>
      </trkpt>
      <trkpt lat="44.48942" lon="4.57974">
        <ele>304</ele>
        <time>2022-03-16T13:00:03Z</time>
      </trkpt>
      <trkpt lat="44.48938" lon="4.57975">
        <ele>304</ele>
        <time>2022-03-16T13:00:06Z</time>
      </trkpt>
      <trkpt lat="44.48935" lon="4.57978">
        <ele>304</ele>
        <time>2022-03-16T13:00:09Z</time>
      </trkpt>
      <trkpt lat="44.48925" lon="4.57989">
        <ele>304</ele>
        <time>2022-03-16T13:00:21Z</time>
      </trkpt>
      <trkpt lat="44.48921" lon="4.57991">
        <ele>304</ele>
        <time>2022-03-16T13:00:23Z</time>
      </trkpt>
      <trkpt lat="44.48917" lon="4.57993">
        <ele>302</ele>
        <time>2022-03-16T13:00:26Z</time>
      </trkpt>
      <trkpt lat="44.48914" lon="4.57994">
        <ele>300</ele>
        <time>2022-03-16T13:00:31Z</time>
      </trkpt>
      <trkpt lat="44.4891" lon="4.57994">
        <ele>299</ele>
        <time>2022-03-16T13:00:34Z</time>
      </trkpt>
      <trkpt lat="44.48906" lon="4.57996">
        <ele>296</ele>
        <time>2022-03-16T13:00:37Z</time>
      </trkpt>
      <trkpt lat="44.48902" lon="4.58001">
        <ele>296</ele>
        <time>2022-03-16T13:00:42Z</time>
      </trkpt>
      <trkpt lat="44.489" lon="4.58004">
        <ele>296</ele>
        <time>2022-03-16T13:00:46Z</time>
      </trkpt>
      <trkpt lat="44.48899" lon="4.5801">
        <ele>296</ele>
        <time>2022-03-16T13:01:21Z</time>
      </trkpt>
      <trkpt lat="44.489" lon="4.58016">
        <ele>298</ele>
        <time>2022-03-16T13:01:25Z</time>
      </trkpt>
      <trkpt lat="44.48903" lon="4.58025">
        <ele>300</ele>
        <time>2022-03-16T13:01:32Z</time>
      </trkpt>
      <trkpt lat="44.48902" lon="4.58035">
        <ele>301</ele>
        <time>2022-03-16T13:01:40Z</time>
      </trkpt>
      <trkpt lat="44.48902" lon="4.58046">
        <ele>302</ele>
        <time>2022-03-16T13:01:47Z</time>
      </trkpt>
      <trkpt lat="44.489" lon="4.58049">
        <ele>302</ele>
        <time>2022-03-16T13:01:56Z</time>
      </trkpt>
      <trkpt lat="44.48897" lon="4.58049">
        <ele>303</ele>
        <time>2022-03-16T13:02:06Z</time>
      </trkpt>
      <trkpt lat="44.48895" lon="4.58055">
        <ele>303</ele>
        <time>2022-03-16T13:02:08Z</time>
      </trkpt>
      <trkpt lat="44.48896" lon="4.581">
        <ele>303</ele>
        <time>2022-03-16T13:02:35Z</time>
      </trkpt>
      <trkpt lat="44.48895" lon="4.58107">
        <ele>304</ele>
        <time>2022-03-16T13:02:39Z</time>
      </trkpt>
      <trkpt lat="44.48894" lon="4.58115">
        <ele>304</ele>
        <time>2022-03-16T13:02:43Z</time>
      </trkpt>
      <trkpt lat="44.48892" lon="4.58125">
        <ele>305</ele>
        <time>2022-03-16T13:02:49Z</time>
      </trkpt>
      <trkpt lat="44.48891" lon="4.58128">
        <ele>306</ele>
        <time>2022-03-16T13:02:51Z</time>
      </trkpt>
      <trkpt lat="44.48886" lon="4.58137">
        <ele>308</ele>
        <time>2022-03-16T13:02:59Z</time>
      </trkpt>
      <trkpt lat="44.48884" lon="4.58144">
        <ele>308</ele>
        <time>2022-03-16T13:03:04Z</time>
      </trkpt>
      <trkpt lat="44.48882" lon="4.58159">
        <ele>308</ele>
        <time>2022-03-16T13:03:12Z</time>
      </trkpt>
      <trkpt lat="44.48882" lon="4.58163">
        <ele>310</ele>
        <time>2022-03-16T13:03:15Z</time>
      </trkpt>
      <trkpt lat="44.48897" lon="4.58196">
        <ele>313</ele>
        <time>2022-03-16T13:03:41Z</time>
      </trkpt>
      <trkpt lat="44.48901" lon="4.58202">
        <ele>314</ele>
        <time>2022-03-16T13:03:47Z</time>
      </trkpt>
      <trkpt lat="44.48902" lon="4.58206">
        <ele>316</ele>
        <time>2022-03-16T13:03:50Z</time>
      </trkpt>
      <trkpt lat="44.48901" lon="4.58216">
        <ele>316</ele>
        <time>2022-03-16T13:03:57Z</time>
      </trkpt>
      <trkpt lat="44.48902" lon="4.58222">
        <ele>315</ele>
        <time>2022-03-16T13:04:01Z</time>
      </trkpt>
      <trkpt lat="44.48904" lon="4.58225">
        <ele>314</ele>
        <time>2022-03-16T13:04:04Z</time>
      </trkpt>
      <trkpt lat="44.48905" lon="4.58229">
        <ele>313</ele>
        <time>2022-03-16T13:04:08Z</time>
      </trkpt>
      <trkpt lat="44.48917" lon="4.58245">
        <ele>314</ele>
        <time>2022-03-16T13:04:23Z</time>
      </trkpt>
      <trkpt lat="44.48929" lon="4.58271">
        <ele>316</ele>
        <time>2022-03-16T13:04:44Z</time>
      </trkpt>
      <trkpt lat="44.48934" lon="4.58276">
        <ele>317</ele>
        <time>2022-03-16T13:04:50Z</time>
      </trkpt>
      <trkpt lat="44.48937" lon="4.58279">
        <ele>318</ele>
        <time>2022-03-16T13:04:53Z</time>
      </trkpt>
      <trkpt lat="44.48942" lon="4.58285">
        <ele>319</ele>
        <time>2022-03-16T13:04:59Z</time>
      </trkpt>
      <trkpt lat="44.48946" lon="4.58292">
        <ele>319</ele>
        <time>2022-03-16T13:05:06Z</time>
      </trkpt>
      <trkpt lat="44.48948" lon="4.58296">
        <ele>319</ele>
        <time>2022-03-16T13:05:09Z</time>
      </trkpt>
      <trkpt lat="44.48952" lon="4.58301">
        <ele>319</ele>
        <time>2022-03-16T13:05:15Z</time>
      </trkpt>
      <trkpt lat="44.48959" lon="4.5831">
        <ele>317</ele>
        <time>2022-03-16T13:05:23Z</time>
      </trkpt>
      <trkpt lat="44.48963" lon="4.58318">
        <ele>317</ele>
        <time>2022-03-16T13:05:29Z</time>
      </trkpt>
      <trkpt lat="44.48964" lon="4.58322">
        <ele>317</ele>
        <time>2022-03-16T13:05:31Z</time>
      </trkpt>
      <trkpt lat="44.48963" lon="4.58327">
        <ele>317</ele>
        <time>2022-03-16T13:05:36Z</time>
      </trkpt>
      <trkpt lat="44.48974" lon="4.58345">
        <ele>318</ele>
        <time>2022-03-16T13:05:51Z</time>
      </trkpt>
      <trkpt lat="44.48977" lon="4.58349">
        <ele>318</ele>
        <time>2022-03-16T13:05:55Z</time>
      </trkpt>
      <trkpt lat="44.48979" lon="4.58353">
        <ele>318</ele>
        <time>2022-03-16T13:05:59Z</time>
      </trkpt>
      <trkpt lat="44.48986" lon="4.58367">
        <ele>316</ele>
        <time>2022-03-16T13:06:08Z</time>
      </trkpt>
      <trkpt lat="44.48989" lon="4.5837">
        <ele>316</ele>
        <time>2022-03-16T13:06:11Z</time>
      </trkpt>
      <trkpt lat="44.48997" lon="4.58377">
        <ele>315</ele>
        <time>2022-03-16T13:06:19Z</time>
      </trkpt>
      <trkpt lat="44.49" lon="4.58381">
        <ele>314</ele>
        <time>2022-03-16T13:06:22Z</time>
      </trkpt>
      <trkpt lat="44.49002" lon="4.58387">
        <ele>314</ele>
        <time>2022-03-16T13:06:25Z</time>
      </trkpt>
      <trkpt lat="44.49007" lon="4.58398">
        <ele>314</ele>
        <time>2022-03-16T13:06:33Z</time>
      </trkpt>
      <trkpt lat="44.4901" lon="4.58402">
        <ele>314</ele>
        <time>2022-03-16T13:06:37Z</time>
      </trkpt>
      <trkpt lat="44.49013" lon="4.58406">
        <ele>313</ele>
        <time>2022-03-16T13:06:40Z</time>
      </trkpt>
      <trkpt lat="44.49014" lon="4.58412">
        <ele>313</ele>
        <time>2022-03-16T13:06:43Z</time>
      </trkpt>
      <trkpt lat="44.49016" lon="4.58416">
        <ele>313</ele>
        <time>2022-03-16T13:06:46Z</time>
      </trkpt>
      <trkpt lat="44.49019" lon="4.5842">
        <ele>313</ele>
        <time>2022-03-16T13:06:49Z</time>
      </trkpt>
      <trkpt lat="44.49022" lon="4.58424">
        <ele>313</ele>
        <time>2022-03-16T13:06:52Z</time>
      </trkpt>
      <trkpt lat="44.49024" lon="4.58428">
        <ele>312</ele>
        <time>2022-03-16T13:06:56Z</time>
      </trkpt>
      <trkpt lat="44.49026" lon="4.58433">
        <ele>311</ele>
        <time>2022-03-16T13:07:00Z</time>
      </trkpt>
      <trkpt lat="44.49028" lon="4.58437">
        <ele>312</ele>
        <time>2022-03-16T13:07:04Z</time>
      </trkpt>
      <trkpt lat="44.49031" lon="4.58441">
        <ele>312</ele>
        <time>2022-03-16T13:07:07Z</time>
      </trkpt>
      <trkpt lat="44.49035" lon="4.58453">
        <ele>310</ele>
        <time>2022-03-16T13:07:15Z</time>
      </trkpt>
      <trkpt lat="44.49038" lon="4.58456">
        <ele>310</ele>
        <time>2022-03-16T13:07:20Z</time>
      </trkpt>
      <trkpt lat="44.49039" lon="4.58462">
        <ele>310</ele>
        <time>2022-03-16T13:07:33Z</time>
      </trkpt>
      <trkpt lat="44.49042" lon="4.58468">
        <ele>309</ele>
        <time>2022-03-16T13:07:37Z</time>
      </trkpt>
      <trkpt lat="44.49051" lon="4.58491">
        <ele>308</ele>
        <time>2022-03-16T13:07:57Z</time>
      </trkpt>
      <trkpt lat="44.49057" lon="4.585">
        <ele>306</ele>
        <time>2022-03-16T13:08:05Z</time>
      </trkpt>
      <trkpt lat="44.49059" lon="4.58506">
        <ele>306</ele>
        <time>2022-03-16T13:08:10Z</time>
      </trkpt>
      <trkpt lat="44.4906" lon="4.58512">
        <ele>305</ele>
        <time>2022-03-16T13:08:14Z</time>
      </trkpt>
      <trkpt lat="44.49063" lon="4.58516">
        <ele>304</ele>
        <time>2022-03-16T13:08:18Z</time>
      </trkpt>
      <trkpt lat="44.4907" lon="4.58541">
        <ele>300</ele>
        <time>2022-03-16T13:08:37Z</time>
      </trkpt>
      <trkpt lat="44.49074" lon="4.58546">
        <ele>300</ele>
        <time>2022-03-16T13:08:45Z</time>
      </trkpt>
      <trkpt lat="44.49074" lon="4.58551">
        <ele>298</ele>
        <time>2022-03-16T13:08:49Z</time>
      </trkpt>
      <trkpt lat="44.49077" lon="4.58561">
        <ele>296</ele>
        <time>2022-03-16T13:09:01Z</time>
      </trkpt>
      <trkpt lat="44.49079" lon="4.58566">
        <ele>295</ele>
        <time>2022-03-16T13:09:08Z</time>
      </trkpt>
      <trkpt lat="44.49078" lon="4.58578">
        <ele>293</ele>
        <time>2022-03-16T13:09:15Z</time>
      </trkpt>
      <trkpt lat="44.4908" lon="4.58589">
        <ele>293</ele>
        <time>2022-03-16T13:09:23Z</time>
      </trkpt>
      <trkpt lat="44.49081" lon="4.58595">
        <ele>292</ele>
        <time>2022-03-16T13:09:28Z</time>
      </trkpt>
      <trkpt lat="44.49081" lon="4.58601">
        <ele>292</ele>
        <time>2022-03-16T13:09:33Z</time>
      </trkpt>
      <trkpt lat="44.49082" lon="4.58606">
        <ele>291</ele>
        <time>2022-03-16T13:09:36Z</time>
      </trkpt>
      <trkpt lat="44.49082" lon="4.58625">
        <ele>290</ele>
        <time>2022-03-16T13:09:45Z</time>
      </trkpt>
      <trkpt lat="44.49085" lon="4.58635">
        <ele>288</ele>
        <time>2022-03-16T13:09:54Z</time>
      </trkpt>
      <trkpt lat="44.49091" lon="4.58657">
        <ele>286</ele>
        <time>2022-03-16T13:10:09Z</time>
      </trkpt>
      <trkpt lat="44.49093" lon="4.5866">
        <ele>286</ele>
        <time>2022-03-16T13:10:12Z</time>
      </trkpt>
      <trkpt lat="44.49095" lon="4.58665">
        <ele>286</ele>
        <time>2022-03-16T13:10:15Z</time>
      </trkpt>
      <trkpt lat="44.49097" lon="4.58673">
        <ele>287</ele>
        <time>2022-03-16T13:10:20Z</time>
      </trkpt>
      <trkpt lat="44.49099" lon="4.58677">
        <ele>287</ele>
        <time>2022-03-16T13:10:23Z</time>
      </trkpt>
      <trkpt lat="44.491" lon="4.58684">
        <ele>288</ele>
        <time>2022-03-16T13:10:28Z</time>
      </trkpt>
      <trkpt lat="44.491" lon="4.5869">
        <ele>287</ele>
        <time>2022-03-16T13:10:31Z</time>
      </trkpt>
      <trkpt lat="44.49104" lon="4.58704">
        <ele>284</ele>
        <time>2022-03-16T13:10:40Z</time>
      </trkpt>
      <trkpt lat="44.49106" lon="4.58708">
        <ele>283</ele>
        <time>2022-03-16T13:10:43Z</time>
      </trkpt>
      <trkpt lat="44.49107" lon="4.58712">
        <ele>284</ele>
        <time>2022-03-16T13:10:46Z</time>
      </trkpt>
      <trkpt lat="44.49109" lon="4.58716">
        <ele>284</ele>
        <time>2022-03-16T13:10:50Z</time>
      </trkpt>
      <trkpt lat="44.49112" lon="4.58726">
        <ele>284</ele>
        <time>2022-03-16T13:10:57Z</time>
      </trkpt>
      <trkpt lat="44.49123" lon="4.58745">
        <ele>284</ele>
        <time>2022-03-16T13:11:11Z</time>
      </trkpt>
      <trkpt lat="44.49124" lon="4.58751">
        <ele>284</ele>
        <time>2022-03-16T13:11:14Z</time>
      </trkpt>
      <trkpt lat="44.49127" lon="4.58757">
        <ele>283</ele>
        <time>2022-03-16T13:11:18Z</time>
      </trkpt>
      <trkpt lat="44.4913" lon="4.5876">
        <ele>283</ele>
        <time>2022-03-16T13:11:21Z</time>
      </trkpt>
      <trkpt lat="44.49132" lon="4.58765">
        <ele>285</ele>
        <time>2022-03-16T13:11:44Z</time>
      </trkpt>
      <trkpt lat="44.49141" lon="4.58765">
        <ele>285</ele>
        <time>2022-03-16T13:11:52Z</time>
      </trkpt>
      <trkpt lat="44.49147" lon="4.58761">
        <ele>284</ele>
        <time>2022-03-16T13:11:57Z</time>
      </trkpt>
      <trkpt lat="44.4915" lon="4.58757">
        <ele>283</ele>
        <time>2022-03-16T13:12:01Z</time>
      </trkpt>
      <trkpt lat="44.49152" lon="4.5875">
        <ele>284</ele>
        <time>2022-03-16T13:12:05Z</time>
      </trkpt>
      <trkpt lat="44.49154" lon="4.58744">
        <ele>283</ele>
        <time>2022-03-16T13:12:10Z</time>
      </trkpt>
      <trkpt lat="44.4915" lon="4.5873">
        <ele>283</ele>
        <time>2022-03-16T13:12:21Z</time>
      </trkpt>
      <trkpt lat="44.4915" lon="4.58723">
        <ele>283</ele>
        <time>2022-03-16T13:12:25Z</time>
      </trkpt>
      <trkpt lat="44.49147" lon="4.58718">
        <ele>283</ele>
        <time>2022-03-16T13:12:30Z</time>
      </trkpt>
      <trkpt lat="44.49146" lon="4.58711">
        <ele>283</ele>
        <time>2022-03-16T13:12:34Z</time>
      </trkpt>
      <trkpt lat="44.4915" lon="4.58693">
        <ele>285</ele>
        <time>2022-03-16T13:12:48Z</time>
      </trkpt>
      <trkpt lat="44.49147" lon="4.58687">
        <ele>285</ele>
        <time>2022-03-16T13:12:52Z</time>
      </trkpt>
      <trkpt lat="44.49148" lon="4.58681">
        <ele>285</ele>
        <time>2022-03-16T13:12:56Z</time>
      </trkpt>
      <trkpt lat="44.4915" lon="4.58675">
        <ele>283</ele>
        <time>2022-03-16T13:13:03Z</time>
      </trkpt>
      <trkpt lat="44.49151" lon="4.58668">
        <ele>283</ele>
        <time>2022-03-16T13:13:08Z</time>
      </trkpt>
      <trkpt lat="44.49153" lon="4.58655">
        <ele>282</ele>
        <time>2022-03-16T13:13:19Z</time>
      </trkpt>
      <trkpt lat="44.49156" lon="4.5865">
        <ele>282</ele>
        <time>2022-03-16T13:13:23Z</time>
      </trkpt>
      <trkpt lat="44.49156" lon="4.58643">
        <ele>281</ele>
        <time>2022-03-16T13:13:32Z</time>
      </trkpt>
      <trkpt lat="44.4916" lon="4.5864">
        <ele>280</ele>
        <time>2022-03-16T13:13:35Z</time>
      </trkpt>
      <trkpt lat="44.49162" lon="4.58635">
        <ele>280</ele>
        <time>2022-03-16T13:13:39Z</time>
      </trkpt>
      <trkpt lat="44.49164" lon="4.5863">
        <ele>280</ele>
        <time>2022-03-16T13:13:43Z</time>
      </trkpt>
      <trkpt lat="44.49165" lon="4.58625">
        <ele>280</ele>
        <time>2022-03-16T13:13:47Z</time>
      </trkpt>
      <trkpt lat="44.49167" lon="4.58621">
        <ele>279</ele>
        <time>2022-03-16T13:13:50Z</time>
      </trkpt>
      <trkpt lat="44.4917" lon="4.58619">
        <ele>280</ele>
        <time>2022-03-16T13:13:56Z</time>
      </trkpt>
      <trkpt lat="44.49172" lon="4.58619">
        <ele>279</ele>
        <time>2022-03-16T13:14:03Z</time>
      </trkpt>
      <trkpt lat="44.49179" lon="4.58618">
        <ele>278</ele>
        <time>2022-03-16T13:14:19Z</time>
      </trkpt>
      <trkpt lat="44.49183" lon="4.5862">
        <ele>277</ele>
        <time>2022-03-16T13:14:23Z</time>
      </trkpt>
      <trkpt lat="44.49187" lon="4.58628">
        <ele>274</ele>
        <time>2022-03-16T13:14:34Z</time>
      </trkpt>
      <trkpt lat="44.49191" lon="4.5863">
        <ele>273</ele>
        <time>2022-03-16T13:14:39Z</time>
      </trkpt>
      <trkpt lat="44.49196" lon="4.58638">
        <ele>271</ele>
        <time>2022-03-16T13:14:50Z</time>
      </trkpt>
      <trkpt lat="44.49198" lon="4.58645">
        <ele>270</ele>
        <time>2022-03-16T13:14:55Z</time>
      </trkpt>
      <trkpt lat="44.49201" lon="4.58651">
        <ele>269</ele>
        <time>2022-03-16T13:15:01Z</time>
      </trkpt>
      <trkpt lat="44.49209" lon="4.58663">
        <ele>267</ele>
        <time>2022-03-16T13:15:12Z</time>
      </trkpt>
      <trkpt lat="44.49212" lon="4.58671">
        <ele>266</ele>
        <time>2022-03-16T13:15:20Z</time>
      </trkpt>
      <trkpt lat="44.49217" lon="4.58676">
        <ele>263</ele>
        <time>2022-03-16T13:15:26Z</time>
      </trkpt>
      <trkpt lat="44.49224" lon="4.58675">
        <ele>262</ele>
        <time>2022-03-16T13:15:33Z</time>
      </trkpt>
      <trkpt lat="44.49228" lon="4.5868">
        <ele>261</ele>
        <time>2022-03-16T13:15:39Z</time>
      </trkpt>
      <trkpt lat="44.49232" lon="4.58686">
        <ele>260</ele>
        <time>2022-03-16T13:15:45Z</time>
      </trkpt>
      <trkpt lat="44.49237" lon="4.58689">
        <ele>259</ele>
        <time>2022-03-16T13:15:53Z</time>
      </trkpt>
      <trkpt lat="44.49242" lon="4.58695">
        <ele>258</ele>
        <time>2022-03-16T13:16:00Z</time>
      </trkpt>
      <trkpt lat="44.49244" lon="4.58702">
        <ele>256</ele>
        <time>2022-03-16T13:16:05Z</time>
      </trkpt>
      <trkpt lat="44.49248" lon="4.58706">
        <ele>254</ele>
        <time>2022-03-16T13:16:09Z</time>
      </trkpt>
      <trkpt lat="44.4925" lon="4.58712">
        <ele>250</ele>
        <time>2022-03-16T13:16:13Z</time>
      </trkpt>
      <trkpt lat="44.49253" lon="4.58716">
        <ele>248</ele>
        <time>2022-03-16T13:16:18Z</time>
      </trkpt>
      <trkpt lat="44.49261" lon="4.58735">
        <ele>249</ele>
        <time>2022-03-16T13:16:34Z</time>
      </trkpt>
      <trkpt lat="44.49264" lon="4.58739">
        <ele>245</ele>
        <time>2022-03-16T13:16:38Z</time>
      </trkpt>
      <trkpt lat="44.49267" lon="4.58744">
        <ele>243</ele>
        <time>2022-03-16T13:16:44Z</time>
      </trkpt>
      <trkpt lat="44.49269" lon="4.58749">
        <ele>241</ele>
        <time>2022-03-16T13:16:48Z</time>
      </trkpt>
      <trkpt lat="44.49274" lon="4.58751">
        <ele>241</ele>
        <time>2022-03-16T13:16:52Z</time>
      </trkpt>
      <trkpt lat="44.4928" lon="4.58758">
        <ele>239</ele>
        <time>2022-03-16T13:17:00Z</time>
      </trkpt>
      <trkpt lat="44.49284" lon="4.5876">
        <ele>239</ele>
        <time>2022-03-16T13:17:03Z</time>
      </trkpt>
      <trkpt lat="44.49286" lon="4.58764">
        <ele>239</ele>
        <time>2022-03-16T13:17:07Z</time>
      </trkpt>
      <trkpt lat="44.493" lon="4.58778">
        <ele>236</ele>
        <time>2022-03-16T13:17:26Z</time>
      </trkpt>
      <trkpt lat="44.49303" lon="4.5878">
        <ele>235</ele>
        <time>2022-03-16T13:17:30Z</time>
      </trkpt>
      <trkpt lat="44.49309" lon="4.58781">
        <ele>236</ele>
        <time>2022-03-16T13:17:39Z</time>
      </trkpt>
      <trkpt lat="44.49321" lon="4.58787">
        <ele>234</ele>
        <time>2022-03-16T13:17:52Z</time>
      </trkpt>
      <trkpt lat="44.49328" lon="4.58789">
        <ele>234</ele>
        <time>2022-03-16T13:17:58Z</time>
      </trkpt>
      <trkpt lat="44.49332" lon="4.58792">
        <ele>234</ele>
        <time>2022-03-16T13:18:02Z</time>
      </trkpt>
      <trkpt lat="44.49335" lon="4.58794">
        <ele>234</ele>
        <time>2022-03-16T13:18:06Z</time>
      </trkpt>
      <trkpt lat="44.49338" lon="4.58796">
        <ele>233</ele>
        <time>2022-03-16T13:18:10Z</time>
      </trkpt>
      <trkpt lat="44.49344" lon="4.58797">
        <ele>233</ele>
        <time>2022-03-16T13:18:15Z</time>
      </trkpt>
      <trkpt lat="44.49353" lon="4.58803">
        <ele>233</ele>
        <time>2022-03-16T13:18:24Z</time>
      </trkpt>
      <trkpt lat="44.4936" lon="4.58806">
        <ele>232</ele>
        <time>2022-03-16T13:18:30Z</time>
      </trkpt>
      <trkpt lat="44.49366" lon="4.58809">
        <ele>232</ele>
        <time>2022-03-16T13:18:36Z</time>
      </trkpt>
      <trkpt lat="44.49369" lon="4.58811">
        <ele>231</ele>
        <time>2022-03-16T13:18:39Z</time>
      </trkpt>
      <trkpt lat="44.49371" lon="4.58815">
        <ele>231</ele>
        <time>2022-03-16T13:18:42Z</time>
      </trkpt>
      <trkpt lat="44.49375" lon="4.58821">
        <ele>230</ele>
        <time>2022-03-16T13:18:48Z</time>
      </trkpt>
      <trkpt lat="44.49384" lon="4.58829">
        <ele>230</ele>
        <time>2022-03-16T13:18:58Z</time>
      </trkpt>
      <trkpt lat="44.49388" lon="4.58834">
        <ele>228</ele>
        <time>2022-03-16T13:19:16Z</time>
      </trkpt>
      <trkpt lat="44.49395" lon="4.58838">
        <ele>225</ele>
        <time>2022-03-16T13:19:23Z</time>
      </trkpt>
      <trkpt lat="44.494" lon="4.58841">
        <ele>225</ele>
        <time>2022-03-16T13:19:29Z</time>
      </trkpt>
      <trkpt lat="44.49407" lon="4.58844">
        <ele>223</ele>
        <time>2022-03-16T13:19:35Z</time>
      </trkpt>
      <trkpt lat="44.49416" lon="4.5885">
        <ele>223</ele>
        <time>2022-03-16T13:19:44Z</time>
      </trkpt>
      <trkpt lat="44.49426" lon="4.58854">
        <ele>223</ele>
        <time>2022-03-16T13:19:53Z</time>
      </trkpt>
      <trkpt lat="44.49437" lon="4.58862">
        <ele>223</ele>
        <time>2022-03-16T13:20:05Z</time>
      </trkpt>
      <trkpt lat="44.49441" lon="4.58863">
        <ele>223</ele>
        <time>2022-03-16T13:20:08Z</time>
      </trkpt>
      <trkpt lat="44.49444" lon="4.58867">
        <ele>223</ele>
        <time>2022-03-16T13:20:12Z</time>
      </trkpt>
      <trkpt lat="44.49446" lon="4.58871">
        <ele>222</ele>
        <time>2022-03-16T13:20:16Z</time>
      </trkpt>
      <trkpt lat="44.49448" lon="4.58874">
        <ele>222</ele>
        <time>2022-03-16T13:20:20Z</time>
      </trkpt>
      <trkpt lat="44.49451" lon="4.58877">
        <ele>220</ele>
        <time>2022-03-16T13:20:23Z</time>
      </trkpt>
      <trkpt lat="44.49454" lon="4.58881">
        <ele>219</ele>
        <time>2022-03-16T13:20:28Z</time>
      </trkpt>
      <trkpt lat="44.49455" lon="4.58886">
        <ele>217</ele>
        <time>2022-03-16T13:20:33Z</time>
      </trkpt>
      <trkpt lat="44.49456" lon="4.58897">
        <ele>217</ele>
        <time>2022-03-16T13:20:40Z</time>
      </trkpt>
      <trkpt lat="44.49457" lon="4.58901">
        <ele>215</ele>
        <time>2022-03-16T13:20:45Z</time>
      </trkpt>
      <trkpt lat="44.4946" lon="4.58905">
        <ele>214</ele>
        <time>2022-03-16T13:20:52Z</time>
      </trkpt>
      <trkpt lat="44.49462" lon="4.58911">
        <ele>212</ele>
        <time>2022-03-16T13:20:56Z</time>
      </trkpt>
      <trkpt lat="44.49462" lon="4.58917">
        <ele>211</ele>
        <time>2022-03-16T13:21:01Z</time>
      </trkpt>
      <trkpt lat="44.49465" lon="4.5893">
        <ele>211</ele>
        <time>2022-03-16T13:21:08Z</time>
      </trkpt>
      <trkpt lat="44.49469" lon="4.58935">
        <ele>210</ele>
        <time>2022-03-16T13:21:12Z</time>
      </trkpt>
      <trkpt lat="44.49472" lon="4.58938">
        <ele>210</ele>
        <time>2022-03-16T13:21:16Z</time>
      </trkpt>
      <trkpt lat="44.49475" lon="4.58943">
        <ele>211</ele>
        <time>2022-03-16T13:21:20Z</time>
      </trkpt>
      <trkpt lat="44.49476" lon="4.58947">
        <ele>213</ele>
        <time>2022-03-16T13:21:24Z</time>
      </trkpt>
      <trkpt lat="44.49486" lon="4.58963">
        <ele>209</ele>
        <time>2022-03-16T13:21:39Z</time>
      </trkpt>
      <trkpt lat="44.49488" lon="4.58966">
        <ele>209</ele>
        <time>2022-03-16T13:21:42Z</time>
      </trkpt>
      <trkpt lat="44.4949" lon="4.5897">
        <ele>208</ele>
        <time>2022-03-16T13:21:45Z</time>
      </trkpt>
      <trkpt lat="44.49491" lon="4.58975">
        <ele>207</ele>
        <time>2022-03-16T13:21:50Z</time>
      </trkpt>
      <trkpt lat="44.49493" lon="4.58985">
        <ele>206</ele>
        <time>2022-03-16T13:21:58Z</time>
      </trkpt>
      <trkpt lat="44.49497" lon="4.58994">
        <ele>204</ele>
        <time>2022-03-16T13:22:07Z</time>
      </trkpt>
      <trkpt lat="44.495" lon="4.58994">
        <ele>202</ele>
        <time>2022-03-16T13:22:20Z</time>
      </trkpt>
      <trkpt lat="44.49499" lon="4.59001">
        <ele>199</ele>
        <time>2022-03-16T13:22:47Z</time>
      </trkpt>
      <trkpt lat="44.49501" lon="4.59008">
        <ele>199</ele>
        <time>2022-03-16T13:22:54Z</time>
      </trkpt>
      <trkpt lat="44.495" lon="4.59017">
        <ele>196</ele>
        <time>2022-03-16T13:23:01Z</time>
      </trkpt>
      <trkpt lat="44.49502" lon="4.59025">
        <ele>196</ele>
        <time>2022-03-16T13:23:11Z</time>
      </trkpt>
      <trkpt lat="44.49511" lon="4.59041">
        <ele>194</ele>
        <time>2022-03-16T13:23:28Z</time>
      </trkpt>
      <trkpt lat="44.49511" lon="4.59051">
        <ele>192</ele>
        <time>2022-03-16T13:23:37Z</time>
      </trkpt>
      <trkpt lat="44.49512" lon="4.59061">
        <ele>191</ele>
        <time>2022-03-16T13:23:43Z</time>
      </trkpt>
      <trkpt lat="44.49516" lon="4.59068">
        <ele>190</ele>
        <time>2022-03-16T13:23:50Z</time>
      </trkpt>
      <trkpt lat="44.49521" lon="4.59076">
        <ele>190</ele>
        <time>2022-03-16T13:23:57Z</time>
      </trkpt>
      <trkpt lat="44.49525" lon="4.59083">
        <ele>186</ele>
        <time>2022-03-16T13:24:03Z</time>
      </trkpt>
      <trkpt lat="44.49529" lon="4.59098">
        <ele>186</ele>
        <time>2022-03-16T13:24:14Z</time>
      </trkpt>
      <trkpt lat="44.49534" lon="4.59102">
        <ele>186</ele>
        <time>2022-03-16T13:24:20Z</time>
      </trkpt>
      <trkpt lat="44.49541" lon="4.59116">
        <ele>186</ele>
        <time>2022-03-16T13:24:29Z</time>
      </trkpt>
      <trkpt lat="44.49545" lon="4.59121">
        <ele>187</ele>
        <time>2022-03-16T13:24:33Z</time>
      </trkpt>
      <trkpt lat="44.49549" lon="4.59124">
        <ele>187</ele>
        <time>2022-03-16T13:24:37Z</time>
      </trkpt>
      <trkpt lat="44.49557" lon="4.59134">
        <ele>186</ele>
        <time>2022-03-16T13:24:44Z</time>
      </trkpt>
      <trkpt lat="44.49561" lon="4.59138">
        <ele>188</ele>
        <time>2022-03-16T13:24:47Z</time>
      </trkpt>
      <trkpt lat="44.49565" lon="4.59139">
        <ele>189</ele>
        <time>2022-03-16T13:24:51Z</time>
      </trkpt>
      <trkpt lat="44.49587" lon="4.59143">
        <ele>186</ele>
        <time>2022-03-16T13:25:09Z</time>
      </trkpt>
      <trkpt lat="44.49591" lon="4.59144">
        <ele>186</ele>
        <time>2022-03-16T13:25:13Z</time>
      </trkpt>
      <trkpt lat="44.49605" lon="4.59147">
        <ele>185</ele>
        <time>2022-03-16T13:25:25Z</time>
      </trkpt>
      <trkpt lat="44.4961" lon="4.59145">
        <ele>185</ele>
        <time>2022-03-16T13:25:28Z</time>
      </trkpt>
      <trkpt lat="44.49619" lon="4.59148">
        <ele>184</ele>
        <time>2022-03-16T13:25:34Z</time>
      </trkpt>
      <trkpt lat="44.49623" lon="4.59145">
        <ele>184</ele>
        <time>2022-03-16T13:25:37Z</time>
      </trkpt>
      <trkpt lat="44.49627" lon="4.59144">
        <ele>182</ele>
        <time>2022-03-16T13:25:40Z</time>
      </trkpt>
      <trkpt lat="44.49641" lon="4.59145">
        <ele>181</ele>
        <time>2022-03-16T13:25:51Z</time>
      </trkpt>
      <trkpt lat="44.49645" lon="4.59147">
        <ele>182</ele>
        <time>2022-03-16T13:25:55Z</time>
      </trkpt>
      <trkpt lat="44.49668" lon="4.59143">
        <ele>183</ele>
        <time>2022-03-16T13:26:12Z</time>
      </trkpt>
      <trkpt lat="44.49678" lon="4.5914">
        <ele>184</ele>
        <time>2022-03-16T13:26:19Z</time>
      </trkpt>
      <trkpt lat="44.49682" lon="4.59141">
        <ele>183</ele>
        <time>2022-03-16T13:26:23Z</time>
      </trkpt>
      <trkpt lat="44.49707" lon="4.59132">
        <ele>183</ele>
        <time>2022-03-16T13:26:39Z</time>
      </trkpt>
      <trkpt lat="44.4971" lon="4.59131">
        <ele>183</ele>
        <time>2022-03-16T13:26:51Z</time>
      </trkpt>
      <trkpt lat="44.49713" lon="4.59128">
        <ele>183</ele>
        <time>2022-03-16T13:26:55Z</time>
      </trkpt>
      <trkpt lat="44.49717" lon="4.59124">
        <ele>183</ele>
        <time>2022-03-16T13:26:59Z</time>
      </trkpt>
      <trkpt lat="44.49717" lon="4.59118">
        <ele>183</ele>
        <time>2022-03-16T13:27:08Z</time>
      </trkpt>
      <trkpt lat="44.49719" lon="4.59112">
        <ele>181</ele>
        <time>2022-03-16T13:27:12Z</time>
      </trkpt>
      <trkpt lat="44.49718" lon="4.59104">
        <ele>182</ele>
        <time>2022-03-16T13:27:17Z</time>
      </trkpt>
      <trkpt lat="44.49715" lon="4.591">
        <ele>183</ele>
        <time>2022-03-16T13:27:21Z</time>
      </trkpt>
      <trkpt lat="44.4971" lon="4.59093">
        <ele>183</ele>
        <time>2022-03-16T13:27:28Z</time>
      </trkpt>
      <trkpt lat="44.49706" lon="4.59086">
        <ele>184</ele>
        <time>2022-03-16T13:27:33Z</time>
      </trkpt>
      <trkpt lat="44.49704" lon="4.59077">
        <ele>183</ele>
        <time>2022-03-16T13:27:38Z</time>
      </trkpt>
      <trkpt lat="44.49705" lon="4.59058">
        <ele>182</ele>
        <time>2022-03-16T13:27:48Z</time>
      </trkpt>
      <trkpt lat="44.49699" lon="4.59036">
        <ele>181</ele>
        <time>2022-03-16T13:28:06Z</time>
      </trkpt>
      <trkpt lat="44.49697" lon="4.59028">
        <ele>181</ele>
        <time>2022-03-16T13:28:11Z</time>
      </trkpt>
      <trkpt lat="44.49697" lon="4.59019">
        <ele>181</ele>
        <time>2022-03-16T13:28:16Z</time>
      </trkpt>
      <trkpt lat="44.49696" lon="4.58996">
        <ele>178</ele>
        <time>2022-03-16T13:28:31Z</time>
      </trkpt>
      <trkpt lat="44.49693" lon="4.58988">
        <ele>178</ele>
        <time>2022-03-16T13:28:37Z</time>
      </trkpt>
      <trkpt lat="44.49692" lon="4.58979">
        <ele>178</ele>
        <time>2022-03-16T13:28:42Z</time>
      </trkpt>
      <trkpt lat="44.49693" lon="4.58971">
        <ele>179</ele>
        <time>2022-03-16T13:28:46Z</time>
      </trkpt>
      <trkpt lat="44.49694" lon="4.58964">
        <ele>178</ele>
        <time>2022-03-16T13:28:50Z</time>
      </trkpt>
      <trkpt lat="44.49694" lon="4.58956">
        <ele>178</ele>
        <time>2022-03-16T13:28:55Z</time>
      </trkpt>
      <trkpt lat="44.49699" lon="4.58932">
        <ele>174</ele>
        <time>2022-03-16T13:29:08Z</time>
      </trkpt>
      <trkpt lat="44.497" lon="4.58925">
        <ele>173</ele>
        <time>2022-03-16T13:29:13Z</time>
      </trkpt>
      <trkpt lat="44.49702" lon="4.58919">
        <ele>172</ele>
        <time>2022-03-16T13:29:17Z</time>
      </trkpt>
      <trkpt lat="44.49702" lon="4.58912">
        <ele>170</ele>
        <time>2022-03-16T13:29:21Z</time>
      </trkpt>
      <trkpt lat="44.49702" lon="4.58906">
        <ele>169</ele>
        <time>2022-03-16T13:29:25Z</time>
      </trkpt>
      <trkpt lat="44.49704" lon="4.58876">
        <ele>167</ele>
        <time>2022-03-16T13:29:43Z</time>
      </trkpt>
      <trkpt lat="44.49704" lon="4.5887">
        <ele>167</ele>
        <time>2022-03-16T13:29:47Z</time>
      </trkpt>
      <trkpt lat="44.49705" lon="4.58866">
        <ele>165</ele>
        <time>2022-03-16T13:29:59Z</time>
      </trkpt>
      <trkpt lat="44.49706" lon="4.5886">
        <ele>166</ele>
        <time>2022-03-16T13:30:05Z</time>
      </trkpt>
      <trkpt lat="44.49708" lon="4.58855">
        <ele>166</ele>
        <time>2022-03-16T13:30:08Z</time>
      </trkpt>
      <trkpt lat="44.49706" lon="4.58847">
        <ele>165</ele>
        <time>2022-03-16T13:30:12Z</time>
      </trkpt>
      <trkpt lat="44.49708" lon="4.58832">
        <ele>162</ele>
        <time>2022-03-16T13:30:20Z</time>
      </trkpt>
      <trkpt lat="44.49717" lon="4.58804">
        <ele>163</ele>
        <time>2022-03-16T13:30:38Z</time>
      </trkpt>
      <trkpt lat="44.49723" lon="4.58784">
        <ele>164</ele>
        <time>2022-03-16T13:30:52Z</time>
      </trkpt>
      <trkpt lat="44.49724" lon="4.58774">
        <ele>162</ele>
        <time>2022-03-16T13:30:58Z</time>
      </trkpt>
      <trkpt lat="44.49729" lon="4.58763">
        <ele>162</ele>
        <time>2022-03-16T13:31:06Z</time>
      </trkpt>
      <trkpt lat="44.49731" lon="4.58752">
        <ele>161</ele>
        <time>2022-03-16T13:31:12Z</time>
      </trkpt>
      <trkpt lat="44.49732" lon="4.58747">
        <ele>160</ele>
        <time>2022-03-16T13:31:33Z</time>
      </trkpt>
      <trkpt lat="44.49732" lon="4.58739">
        <ele>158</ele>
        <time>2022-03-16T13:31:40Z</time>
      </trkpt>
      <trkpt lat="44.49734" lon="4.58732">
        <ele>157</ele>
        <time>2022-03-16T13:31:45Z</time>
      </trkpt>
      <trkpt lat="44.49737" lon="4.58726">
        <ele>156</ele>
        <time>2022-03-16T13:31:50Z</time>
      </trkpt>
      <trkpt lat="44.49739" lon="4.5872">
        <ele>157</ele>
        <time>2022-03-16T13:31:54Z</time>
      </trkpt>
      <trkpt lat="44.49737" lon="4.58713">
        <ele>157</ele>
        <time>2022-03-16T13:32:00Z</time>
      </trkpt>
      <trkpt lat="44.49739" lon="4.58705">
        <ele>157</ele>
        <time>2022-03-16T13:32:05Z</time>
      </trkpt>
      <trkpt lat="44.49741" lon="4.58681">
        <ele>156</ele>
        <time>2022-03-16T13:32:18Z</time>
      </trkpt>
      <trkpt lat="44.49749" lon="4.58668">
        <ele>155</ele>
        <time>2022-03-16T13:32:29Z</time>
      </trkpt>
      <trkpt lat="44.49751" lon="4.58659">
        <ele>154</ele>
        <time>2022-03-16T13:32:34Z</time>
      </trkpt>
      <trkpt lat="44.49754" lon="4.58635">
        <ele>151</ele>
        <time>2022-03-16T13:32:50Z</time>
      </trkpt>
      <trkpt lat="44.49756" lon="4.58628">
        <ele>151</ele>
        <time>2022-03-16T13:32:55Z</time>
      </trkpt>
      <trkpt lat="44.49757" lon="4.5862">
        <ele>152</ele>
        <time>2022-03-16T13:33:00Z</time>
      </trkpt>
      <trkpt lat="44.4976" lon="4.5861">
        <ele>152</ele>
        <time>2022-03-16T13:33:07Z</time>
      </trkpt>
      <trkpt lat="44.49764" lon="4.58603">
        <ele>152</ele>
        <time>2022-03-16T13:33:11Z</time>
      </trkpt>
      <trkpt lat="44.49764" lon="4.58596">
        <ele>152</ele>
        <time>2022-03-16T13:33:18Z</time>
      </trkpt>
      <trkpt lat="44.49772" lon="4.58572">
        <ele>151</ele>
        <time>2022-03-16T13:33:31Z</time>
      </trkpt>
      <trkpt lat="44.49773" lon="4.58564">
        <ele>150</ele>
        <time>2022-03-16T13:33:35Z</time>
      </trkpt>
      <trkpt lat="44.49772" lon="4.58556">
        <ele>148</ele>
        <time>2022-03-16T13:33:39Z</time>
      </trkpt>
      <trkpt lat="44.49771" lon="4.58551">
        <ele>145</ele>
        <time>2022-03-16T13:33:43Z</time>
      </trkpt>
      <trkpt lat="44.49769" lon="4.58546">
        <ele>144</ele>
        <time>2022-03-16T13:33:47Z</time>
      </trkpt>
      <trkpt lat="44.49766" lon="4.58542">
        <ele>143</ele>
        <time>2022-03-16T13:33:50Z</time>
      </trkpt>
      <trkpt lat="44.49761" lon="4.58532">
        <ele>141</ele>
        <time>2022-03-16T13:33:57Z</time>
      </trkpt>
      <trkpt lat="44.4976" lon="4.58522">
        <ele>141</ele>
        <time>2022-03-16T13:34:03Z</time>
      </trkpt>
      <trkpt lat="44.49759" lon="4.58517">
        <ele>141</ele>
        <time>2022-03-16T13:34:06Z</time>
      </trkpt>
      <trkpt lat="44.49761" lon="4.58512">
        <ele>141</ele>
        <time>2022-03-16T13:34:11Z</time>
      </trkpt>
      <trkpt lat="44.49762" lon="4.58508">
        <ele>140</ele>
        <time>2022-03-16T13:34:15Z</time>
      </trkpt>
      <trkpt lat="44.49759" lon="4.58502">
        <ele>140</ele>
        <time>2022-03-16T13:34:19Z</time>
      </trkpt>
      <trkpt lat="44.49758" lon="4.58497">
        <ele>139</ele>
        <time>2022-03-16T13:34:24Z</time>
      </trkpt>
      <trkpt lat="44.49756" lon="4.58493">
        <ele>139</ele>
        <time>2022-03-16T13:34:31Z</time>
      </trkpt>
      <trkpt lat="44.49759" lon="4.58476">
        <ele>138</ele>
        <time>2022-03-16T13:34:41Z</time>
      </trkpt>
      <trkpt lat="44.49762" lon="4.58466">
        <ele>139</ele>
        <time>2022-03-16T13:34:47Z</time>
      </trkpt>
      <trkpt lat="44.49766" lon="4.58439">
        <ele>141</ele>
        <time>2022-03-16T13:35:05Z</time>
      </trkpt>
      <trkpt lat="44.49778" lon="4.58404">
        <ele>145</ele>
        <time>2022-03-16T13:35:32Z</time>
      </trkpt>
      <trkpt lat="44.4978" lon="4.58401">
        <ele>147</ele>
        <time>2022-03-16T13:35:38Z</time>
      </trkpt>
      <trkpt lat="44.49785" lon="4.58398">
        <ele>148</ele>
        <time>2022-03-16T13:35:51Z</time>
      </trkpt>
      <trkpt lat="44.49787" lon="4.58391">
        <ele>147</ele>
        <time>2022-03-16T13:35:55Z</time>
      </trkpt>
      <trkpt lat="44.49786" lon="4.58383">
        <ele>146</ele>
        <time>2022-03-16T13:36:00Z</time>
      </trkpt>
      <trkpt lat="44.4979" lon="4.58368">
        <ele>147</ele>
        <time>2022-03-16T13:36:10Z</time>
      </trkpt>
      <trkpt lat="44.49789" lon="4.58356">
        <ele>150</ele>
        <time>2022-03-16T13:36:31Z</time>
      </trkpt>
      <trkpt lat="44.49788" lon="4.5835">
        <ele>151</ele>
        <time>2022-03-16T13:36:35Z</time>
      </trkpt>
      <trkpt lat="44.49788" lon="4.58343">
        <ele>151</ele>
        <time>2022-03-16T13:36:39Z</time>
      </trkpt>
      <trkpt lat="44.49786" lon="4.58302">
        <ele>153</ele>
        <time>2022-03-16T13:37:03Z</time>
      </trkpt>
      <trkpt lat="44.49786" lon="4.58296">
        <ele>153</ele>
        <time>2022-03-16T13:37:07Z</time>
      </trkpt>
      <trkpt lat="44.49787" lon="4.58289">
        <ele>153</ele>
        <time>2022-03-16T13:37:11Z</time>
      </trkpt>
      <trkpt lat="44.49788" lon="4.58283">
        <ele>153</ele>
        <time>2022-03-16T13:37:15Z</time>
      </trkpt>
      <trkpt lat="44.49789" lon="4.58276">
        <ele>154</ele>
        <time>2022-03-16T13:37:19Z</time>
      </trkpt>
      <trkpt lat="44.49788" lon="4.58232">
        <ele>155</ele>
        <time>2022-03-16T13:37:44Z</time>
      </trkpt>
      <trkpt lat="44.49796" lon="4.58196">
        <ele>157</ele>
        <time>2022-03-16T13:38:06Z</time>
      </trkpt>
      <trkpt lat="44.49807" lon="4.58158">
        <ele>158</ele>
        <time>2022-03-16T13:38:30Z</time>
      </trkpt>
      <trkpt lat="44.49809" lon="4.58155">
        <ele>159</ele>
        <time>2022-03-16T13:38:32Z</time>
      </trkpt>
      <trkpt lat="44.4981" lon="4.58152">
        <ele>159</ele>
        <time>2022-03-16T13:38:36Z</time>
      </trkpt>
      <trkpt lat="44.49818" lon="4.58127">
        <ele>164</ele>
        <time>2022-03-16T13:38:59Z</time>
      </trkpt>
      <trkpt lat="44.49819" lon="4.58118">
        <ele>165</ele>
        <time>2022-03-16T13:39:09Z</time>
      </trkpt>
      <trkpt lat="44.49822" lon="4.58106">
        <ele>167</ele>
        <time>2022-03-16T13:39:16Z</time>
      </trkpt>
      <trkpt lat="44.49824" lon="4.58101">
        <ele>166</ele>
        <time>2022-03-16T13:39:19Z</time>
      </trkpt>
      <trkpt lat="44.49833" lon="4.58063">
        <ele>167</ele>
        <time>2022-03-16T13:39:45Z</time>
      </trkpt>
      <trkpt lat="44.49834" lon="4.58058">
        <ele>167</ele>
        <time>2022-03-16T13:39:48Z</time>
      </trkpt>
      <trkpt lat="44.49837" lon="4.58053">
        <ele>168</ele>
        <time>2022-03-16T13:39:50Z</time>
      </trkpt>
      <trkpt lat="44.49837" lon="4.58049">
        <ele>169</ele>
        <time>2022-03-16T13:39:52Z</time>
      </trkpt>
      <trkpt lat="44.49837" lon="4.58045">
        <ele>168</ele>
        <time>2022-03-16T13:39:54Z</time>
      </trkpt>
      <trkpt lat="44.49841" lon="4.5803">
        <ele>169</ele>
        <time>2022-03-16T13:40:05Z</time>
      </trkpt>
      <trkpt lat="44.49842" lon="4.58022">
        <ele>168</ele>
        <time>2022-03-16T13:40:11Z</time>
      </trkpt>
      <trkpt lat="44.49854" lon="4.57975">
        <ele>168</ele>
        <time>2022-03-16T13:40:41Z</time>
      </trkpt>
      <trkpt lat="44.4986" lon="4.57959">
        <ele>169</ele>
        <time>2022-03-16T13:40:51Z</time>
      </trkpt>
      <trkpt lat="44.4986" lon="4.57953">
        <ele>170</ele>
        <time>2022-03-16T13:40:55Z</time>
      </trkpt>
      <trkpt lat="44.49864" lon="4.5794">
        <ele>171</ele>
        <time>2022-03-16T13:41:03Z</time>
      </trkpt>
      <trkpt lat="44.49866" lon="4.57936">
        <ele>173</ele>
        <time>2022-03-16T13:41:06Z</time>
      </trkpt>
      <trkpt lat="44.4987" lon="4.57924">
        <ele>173</ele>
        <time>2022-03-16T13:41:14Z</time>
      </trkpt>
      <trkpt lat="44.4987" lon="4.57919">
        <ele>172</ele>
        <time>2022-03-16T13:41:17Z</time>
      </trkpt>
      <trkpt lat="44.49872" lon="4.57913">
        <ele>172</ele>
        <time>2022-03-16T13:41:20Z</time>
      </trkpt>
      <trkpt lat="44.49876" lon="4.57905">
        <ele>172</ele>
        <time>2022-03-16T13:41:26Z</time>
      </trkpt>
      <trkpt lat="44.49892" lon="4.57859">
        <ele>174</ele>
        <time>2022-03-16T13:41:56Z</time>
      </trkpt>
      <trkpt lat="44.49904" lon="4.57825">
        <ele>173</ele>
        <time>2022-03-16T13:42:25Z</time>
      </trkpt>
      <trkpt lat="44.49906" lon="4.57817">
        <ele>172</ele>
        <time>2022-03-16T13:42:31Z</time>
      </trkpt>
      <trkpt lat="44.49908" lon="4.57815">
        <ele>172</ele>
        <time>2022-03-16T13:42:41Z</time>
      </trkpt>
      <trkpt lat="44.4991" lon="4.57812">
        <ele>172</ele>
        <time>2022-03-16T13:42:44Z</time>
      </trkpt>
      <trkpt lat="44.49916" lon="4.57803">
        <ele>172</ele>
        <time>2022-03-16T13:42:50Z</time>
      </trkpt>
      <trkpt lat="44.49917" lon="4.578">
        <ele>172</ele>
        <time>2022-03-16T13:42:52Z</time>
      </trkpt>
      <trkpt lat="44.49918" lon="4.57797">
        <ele>172</ele>
        <time>2022-03-16T13:42:54Z</time>
      </trkpt>
      <trkpt lat="44.49919" lon="4.57793">
        <ele>172</ele>
        <time>2022-03-16T13:42:58Z</time>
      </trkpt>
      <trkpt lat="44.4992" lon="4.5779">
        <ele>172</ele>
        <time>2022-03-16T13:43:00Z</time>
      </trkpt>
      <trkpt lat="44.49923" lon="4.57771">
        <ele>172</ele>
        <time>2022-03-16T13:43:12Z</time>
      </trkpt>
      <trkpt lat="44.49925" lon="4.57765">
        <ele>173</ele>
        <time>2022-03-16T13:43:16Z</time>
      </trkpt>
      <trkpt lat="44.49927" lon="4.57758">
        <ele>173</ele>
        <time>2022-03-16T13:43:21Z</time>
      </trkpt>
      <trkpt lat="44.4993" lon="4.57754">
        <ele>173</ele>
        <time>2022-03-16T13:43:23Z</time>
      </trkpt>
      <trkpt lat="44.49931" lon="4.57749">
        <ele>173</ele>
        <time>2022-03-16T13:43:27Z</time>
      </trkpt>
      <trkpt lat="44.49934" lon="4.57745">
        <ele>173</ele>
        <time>2022-03-16T13:43:30Z</time>
      </trkpt>
      <trkpt lat="44.49936" lon="4.5774">
        <ele>173</ele>
        <time>2022-03-16T13:43:34Z</time>
      </trkpt>
      <trkpt lat="44.49938" lon="4.57735">
        <ele>172</ele>
        <time>2022-03-16T13:43:38Z</time>
      </trkpt>
      <trkpt lat="44.49942" lon="4.57725">
        <ele>169</ele>
        <time>2022-03-16T13:43:45Z</time>
      </trkpt>
      <trkpt lat="44.49944" lon="4.57718">
        <ele>169</ele>
        <time>2022-03-16T13:43:49Z</time>
      </trkpt>
      <trkpt lat="44.4995" lon="4.577">
        <ele>170</ele>
        <time>2022-03-16T13:44:01Z</time>
      </trkpt>
      <trkpt lat="44.49952" lon="4.57688">
        <ele>170</ele>
        <time>2022-03-16T13:44:08Z</time>
      </trkpt>
      <trkpt lat="44.49965" lon="4.57664">
        <ele>167</ele>
        <time>2022-03-16T13:44:25Z</time>
      </trkpt>
      <trkpt lat="44.49966" lon="4.57658">
        <ele>168</ele>
        <time>2022-03-16T13:44:28Z</time>
      </trkpt>
      <trkpt lat="44.49966" lon="4.57642">
        <ele>168</ele>
        <time>2022-03-16T13:44:38Z</time>
      </trkpt>
      <trkpt lat="44.49966" lon="4.57636">
        <ele>168</ele>
        <time>2022-03-16T13:44:43Z</time>
      </trkpt>
      <trkpt lat="44.49967" lon="4.57628">
        <ele>167</ele>
        <time>2022-03-16T13:44:50Z</time>
      </trkpt>
      <trkpt lat="44.49973" lon="4.57619">
        <ele>167</ele>
        <time>2022-03-16T13:44:57Z</time>
      </trkpt>
      <trkpt lat="44.49981" lon="4.57618">
        <ele>166</ele>
        <time>2022-03-16T13:45:04Z</time>
      </trkpt>
      <trkpt lat="44.49996" lon="4.57611">
        <ele>165</ele>
        <time>2022-03-16T13:45:17Z</time>
      </trkpt>
      <trkpt lat="44.49999" lon="4.57606">
        <ele>167</ele>
        <time>2022-03-16T13:45:20Z</time>
      </trkpt>
      <trkpt lat="44.50003" lon="4.57608">
        <ele>167</ele>
        <time>2022-03-16T13:45:24Z</time>
      </trkpt>
      <trkpt lat="44.5002" lon="4.57586">
        <ele>171</ele>
        <time>2022-03-16T13:45:40Z</time>
      </trkpt>
      <trkpt lat="44.50022" lon="4.57581">
        <ele>172</ele>
        <time>2022-03-16T13:45:43Z</time>
      </trkpt>
      <trkpt lat="44.50025" lon="4.5757">
        <ele>171</ele>
        <time>2022-03-16T13:45:49Z</time>
      </trkpt>
      <trkpt lat="44.50025" lon="4.57564">
        <ele>170</ele>
        <time>2022-03-16T13:45:52Z</time>
      </trkpt>
      <trkpt lat="44.50023" lon="4.57553">
        <ele>170</ele>
        <time>2022-03-16T13:45:58Z</time>
      </trkpt>
      <trkpt lat="44.50024" lon="4.57548">
        <ele>170</ele>
        <time>2022-03-16T13:46:01Z</time>
      </trkpt>
      <trkpt lat="44.50024" lon="4.57542">
        <ele>170</ele>
        <time>2022-03-16T13:46:04Z</time>
      </trkpt>
      <trkpt lat="44.50025" lon="4.57536">
        <ele>170</ele>
        <time>2022-03-16T13:46:08Z</time>
      </trkpt>
      <trkpt lat="44.50027" lon="4.57531">
        <ele>169</ele>
        <time>2022-03-16T13:46:12Z</time>
      </trkpt>
      <trkpt lat="44.5003" lon="4.57522">
        <ele>170</ele>
        <time>2022-03-16T13:46:19Z</time>
      </trkpt>
      <trkpt lat="44.50033" lon="4.57507">
        <ele>171</ele>
        <time>2022-03-16T13:46:28Z</time>
      </trkpt>
      <trkpt lat="44.50033" lon="4.57497">
        <ele>171</ele>
        <time>2022-03-16T13:46:33Z</time>
      </trkpt>
      <trkpt lat="44.50035" lon="4.57486">
        <ele>173</ele>
        <time>2022-03-16T13:46:40Z</time>
      </trkpt>
      <trkpt lat="44.50037" lon="4.57483">
        <ele>173</ele>
        <time>2022-03-16T13:46:48Z</time>
      </trkpt>
      <trkpt lat="44.5004" lon="4.57472">
        <ele>173</ele>
        <time>2022-03-16T13:46:54Z</time>
      </trkpt>
      <trkpt lat="44.50045" lon="4.57456">
        <ele>175</ele>
        <time>2022-03-16T13:47:02Z</time>
      </trkpt>
      <trkpt lat="44.50049" lon="4.57454">
        <ele>174</ele>
        <time>2022-03-16T13:47:06Z</time>
      </trkpt>
      <trkpt lat="44.50053" lon="4.57454">
        <ele>174</ele>
        <time>2022-03-16T13:47:13Z</time>
      </trkpt>
      <trkpt lat="44.50058" lon="4.57455">
        <ele>175</ele>
        <time>2022-03-16T13:47:17Z</time>
      </trkpt>
      <trkpt lat="44.50064" lon="4.57454">
        <ele>175</ele>
        <time>2022-03-16T13:47:21Z</time>
      </trkpt>
      <trkpt lat="44.50074" lon="4.57452">
        <ele>178</ele>
        <time>2022-03-16T13:47:30Z</time>
      </trkpt>
      <trkpt lat="44.50077" lon="4.57449">
        <ele>177</ele>
        <time>2022-03-16T13:47:34Z</time>
      </trkpt>
      <trkpt lat="44.50078" lon="4.57445">
        <ele>175</ele>
        <time>2022-03-16T13:47:37Z</time>
      </trkpt>
      <trkpt lat="44.50077" lon="4.57439">
        <ele>174</ele>
        <time>2022-03-16T13:47:40Z</time>
      </trkpt>
      <trkpt lat="44.50079" lon="4.57436">
        <ele>172</ele>
        <time>2022-03-16T13:47:47Z</time>
      </trkpt>
      <trkpt lat="44.5008" lon="4.57432">
        <ele>171</ele>
        <time>2022-03-16T13:48:03Z</time>
      </trkpt>
      <trkpt lat="44.50084" lon="4.57432">
        <ele>171</ele>
        <time>2022-03-16T13:48:51Z</time>
      </trkpt>
      <trkpt lat="44.50086" lon="4.57428">
        <ele>177</ele>
        <time>2022-03-16T13:50:17Z</time>
      </trkpt>
      <trkpt lat="44.50085" lon="4.5743">
        <ele>176</ele>
        <time>2022-03-16T13:50:53Z</time>
      </trkpt>
      <trkpt lat="44.50089" lon="4.57434">
        <ele>177</ele>
        <time>2022-03-16T13:51:10Z</time>
      </trkpt>
    </trkseg>
  </trk>
</gpx>